[[{"header":{"parameterUnit":"m.s-1","parameterCategory":1,"la1":30.6,"la2":29.2853,"lo1":-89.7004,"lo2":-87.6739,"dy":0.0162,"dx":0.0183,"nx":112,"ny":82,"refTime":"2024-06-14T18:00:00:Z","depth":0,"parameterNumber":2,"parameterNumberName":"U-component_of_WINDS"},"data":[0.0,0.0,0.0,0.0,0.0,0.0,0.0,0.0,0.0,0.0,0.0,0.0,0.0,0.0,0.0,0.0,0.0,0.0,0.0,0.0,0.0,0.0,0.0,0.0,0.0,0.0,0.0,0.0,0.0,0.0,0.0,0.0,0.0,0.0,0.0,0.0,0.0,0.0,0.0,0.0,0.0,0.0,0.0,0.0,0.0,0.0,0.0,0.0,0.0,0.0,0.0,0.0,0.0,0.0,0.0,0.0,0.0,0.0,0.0,0.0,0.0,0.0,0.0,0.0,0.0,0.0,0.0,0.0,0.0,0.0,0.0,0.0,0.0,0.0,0.0,0.0,0.0,0.0,0.0,0.0,0.0,0.0,0.0,0.0,0.0,0.0,0.0,0.0,0.0,0.0,0.7103,0.8712,1.0635,1.1933,1.2231,1.2475,1.1947,1.0412,0.0,0.0,0.0,0.0,0.0,0.0,0.0,0.0,0.0,0.0,0.0,0.0,0.0,0.0,0.0,0.0,0.0,0.0,0.0,0.0,0.0,0.0,0.0,0.0,0.0,0.0,0.0,0.0,0.0,0.0,0.0,0.0,0.0,0.0,0.0,0.0,0.0,0.0,0.0,0.0,0.0,0.0,0.0,0.0,0.0,0.0,0.0,0.0,0.0,0.0,0.0,0.0,0.0,0.0,0.0,0.0,0.0,0.0,0.0,0.0,0.0,0.0,0.0,0.0,0.0,0.0,0.0,0.0,0.0,0.0,0.0,0.0,0.0,0.0,0.0,0.0,0.0,0.0,0.0,0.0,0.0,0.0,0.0,0.0,0.0,0.0,0.0,0.0,0.0,0.0,0.0,0.0,0.0,0.0,0.0,0.0,0.0,0.0,0.0,0.0,0.0,0.0,0.0,0.0,0.8151,1.0321,1.1285,1.2003,1.2494,1.2572,1.2074,1.0859,0.0,0.0,0.0,0.0,0.0,0.0,0.0,0.0,0.0,0.0,0.0,0.0,0.0,0.0,0.0,0.0,0.0,0.0,0.0,0.0,0.0,0.0,0.0,0.0,0.0,0.0,0.0,0.0,0.0,0.0,0.0,0.0,0.0,0.0,0.0,0.0,0.0,0.0,0.0,0.0,0.0,0.0,0.0,0.0,0.0,0.0,0.0,0.0,0.0,0.0,0.0,0.0,0.0,0.0,0.0,0.0,0.0,0.0,0.0,0.0,0.0,0.0,0.0,0.0,0.0,0.0,0.0,0.0,0.0,0.0,0.0,0.0,0.0,0.0,0.0,0.0,0.0,0.0,0.0,0.0,0.0,0.0,0.0,0.0,0.0,0.0,0.0,0.0,0.0,0.0,0.0,0.0,0.0,0.0,0.0,0.0,0.0,0.0,0.0,0.0,0.0,0.0,0.0,0.7656,0.8944,1.0908,1.1527,1.1961,1.2352,1.2514,1.2002,1.0608,1.0653,0.0,0.0,0.0,0.0,0.0,0.0,0.0,0.0,0.0,0.0,0.0,0.0,0.0,0.0,0.0,0.0,0.0,0.0,0.0,0.0,0.0,0.0,0.0,0.0,0.0,0.0,0.0,0.0,0.0,0.0,0.0,0.0,0.0,0.0,0.0,0.0,0.0,0.0,0.0,0.0,0.0,0.0,0.0,0.0,0.0,0.0,0.0,0.0,0.0,0.0,0.0,0.0,0.0,0.0,0.0,0.0,0.0,0.0,0.0,0.0,0.0,0.0,0.0,0.0,0.0,0.0,0.0,0.0,0.0,0.0,0.0,0.0,0.0,0.0,0.0,0.0,0.0,0.0,0.0,0.0,0.0,0.0,0.0,0.0,0.0,0.0,0.0,0.0,0.0,0.0,0.0,0.0,0.0,0.0,0.0,0.0,0.0,0.0,0.0,0.0,0.0,0.0,0.8639,0.964,1.1136,1.1601,1.1912,1.2185,1.2254,1.168,1.0279,1.0256,0.0,0.0,0.0,0.0,0.0,0.0,0.0,0.0,0.0,0.0,0.0,0.0,0.0,0.0,0.0,0.0,0.0,0.0,0.0,0.0,0.0,0.0,0.0,0.0,0.0,0.0,0.0,0.0,0.0,0.0,0.0,0.0,0.0,0.0,0.0,0.0,0.0,0.0,0.0,0.0,0.0,0.0,0.0,0.0,0.0,0.0,0.0,0.0,0.0,0.0,0.0,0.0,0.0,0.0,0.0,0.0,0.0,0.0,0.0,0.0,0.0,0.0,0.0,0.0,0.0,0.0,0.0,0.0,0.0,0.0,0.0,0.0,0.0,0.0,0.0,0.0,0.0,0.0,0.0,0.0,0.0,0.0,0.0,0.0,0.0,0.0,0.0,0.0,0.0,0.0,0.0,0.0,0.0,0.0,0.0,0.0,0.0,0.0,0.0,0.0,0.0,0.0,0.9121,1.0269,1.1201,1.1601,1.1912,1.2185,1.1645,1.0981,1.0248,0.9687,0.0,0.0,0.0,0.0,0.0,0.0,0.0,0.0,0.0,0.0,0.0,0.0,0.0,0.0,0.0,0.0,0.0,0.0,0.0,0.0,0.0,0.0,0.0,0.0,0.0,0.0,0.0,0.0,0.0,0.0,0.0,0.0,0.0,0.0,0.0,0.0,0.0,0.0,0.0,0.0,0.0,0.0,0.0,0.0,0.0,0.0,0.0,0.0,0.0,0.0,0.0,0.0,0.0,0.0,0.0,0.0,0.0,0.0,0.0,0.0,0.0,0.0,0.0,0.0,0.0,0.0,0.0,0.0,0.0,0.0,0.0,0.0,0.0,0.0,0.0,0.0,0.0,0.0,0.0,0.0,0.0,0.0,0.0,0.0,0.0,0.0,0.0,0.0,0.0,0.0,0.0,0.0,0.0,0.0,0.0,0.0,0.0,0.0,0.0,0.0,0.0,0.0,0.9467,1.0648,0.0,1.1725,1.1912,1.2185,1.2121,1.1532,1.0279,0.0,0.0,0.0,0.0,0.0,0.0,0.0,0.0,0.0,0.0,0.0,0.0,0.0,0.0,0.0,0.0,0.0,0.0,0.0,0.0,0.0,0.0,0.0,0.0,0.0,0.0,0.0,0.0,0.0,0.0,0.0,0.0,0.0,0.0,0.0,0.0,0.0,0.0,0.0,0.0,0.0,0.0,0.0,0.0,0.0,0.0,0.0,0.0,0.0,0.0,0.0,0.0,0.0,0.0,0.0,0.0,0.0,0.0,0.0,0.0,0.0,0.0,0.0,0.0,0.0,0.0,0.0,0.0,0.0,0.0,0.0,0.0,0.0,0.0,0.0,0.0,0.0,0.0,0.0,0.0,0.0,0.0,0.0,0.0,0.0,0.0,0.0,0.0,0.0,0.0,0.0,0.0,0.0,0.0,0.0,0.0,0.0,0.0,0.0,0.0,0.0,0.0,0.8504,0.9856,1.103,0.0,1.1805,1.1912,1.2185,1.2172,1.1598,1.0279,0.0,0.0,0.0,0.0,0.0,0.0,0.0,0.0,0.0,0.0,0.0,0.0,0.0,0.0,0.0,0.0,0.0,0.0,0.0,0.0,0.0,0.0,0.0,0.0,0.0,0.0,0.0,0.0,0.0,0.0,0.0,0.0,0.0,0.0,0.0,0.0,0.0,0.0,0.0,0.0,0.0,0.0,0.0,0.0,0.0,0.0,0.0,0.0,0.0,0.0,0.0,0.0,0.0,0.0,0.0,0.0,0.0,0.0,0.0,0.0,0.0,0.0,0.0,0.0,0.0,0.0,0.0,0.0,0.0,0.0,0.0,0.0,0.0,0.0,0.0,0.0,0.0,0.0,0.0,0.0,0.0,0.0,0.0,0.0,0.0,0.0,0.0,0.0,0.0,0.0,0.0,0.0,0.0,0.0,0.0,0.0,0.0,0.0,0.0,0.0,0.0,0.0,0.8766,1.0256,1.1423,1.1747,1.1805,1.1912,1.2169,1.1594,1.0916,0.0,0.0,0.0,0.0,0.0,0.0,0.0,0.0,0.0,0.0,0.0,0.0,0.0,0.0,0.0,0.0,0.0,0.0,0.0,0.0,0.0,0.0,0.0,0.0,0.0,0.0,0.0,0.0,0.0,0.0,0.0,0.0,0.0,0.0,0.0,0.0,0.0,0.0,0.0,0.0,0.0,0.0,0.0,0.0,0.0,0.0,0.0,0.0,0.0,0.0,0.0,0.0,0.0,0.0,0.0,0.0,0.0,0.0,0.0,0.0,0.0,0.0,0.0,0.0,0.0,0.0,0.0,0.0,0.0,0.0,0.0,0.0,0.0,0.0,0.0,0.0,0.0,0.0,0.0,0.0,0.0,0.0,0.0,0.0,0.0,0.0,0.0,0.0,0.0,0.0,0.0,0.0,0.0,0.0,0.0,0.0,0.0,0.0,0.0,0.0,0.0,0.0,0.0,0.8853,1.0498,1.1681,1.1805,1.1805,1.1833,1.1897,1.161,1.1037,1.0179,0.0,0.0,0.0,0.0,0.0,0.0,0.0,0.0,0.0,0.0,0.0,0.0,0.0,0.0,0.0,0.0,0.0,0.0,0.0,0.0,0.0,0.0,0.0,0.0,0.0,0.0,0.0,0.0,0.0,0.0,0.0,0.0,0.0,0.0,0.0,0.0,0.0,0.0,0.0,0.0,0.0,0.0,0.0,0.0,0.0,0.0,0.0,0.0,0.0,0.0,0.0,0.0,0.0,0.0,0.0,0.0,0.0,0.0,0.0,0.0,0.0,0.0,0.0,0.0,0.0,0.0,0.0,0.0,0.0,0.0,0.0,0.0,0.0,0.0,0.0,0.0,0.0,0.0,0.0,0.0,0.0,0.0,0.0,0.0,0.0,0.0,0.0,0.0,0.0,0.0,0.0,0.0,0.0,0.0,0.0,0.0,0.0,0.0,0.0,0.0,0.0,0.0,0.9144,1.0702,1.1805,1.1805,1.1805,1.1876,1.2092,1.1999,1.1498,1.0478,0.0,0.0,0.0,0.0,0.0,0.0,0.0,0.0,0.0,0.0,0.0,0.0,0.0,0.0,0.0,0.0,0.0,0.0,0.0,0.0,0.0,0.0,0.0,0.0,0.0,0.0,0.0,0.0,0.0,0.0,0.0,0.0,0.0,0.0,0.0,0.0,0.0,0.0,0.0,0.0,0.0,0.0,0.0,0.0,0.0,0.0,0.0,0.0,0.0,0.0,0.0,0.0,0.0,0.0,0.0,0.0,0.0,0.0,0.0,0.0,0.0,0.0,0.0,0.0,0.0,0.0,0.0,0.0,0.0,0.0,0.0,0.0,0.0,0.0,0.0,0.0,0.0,0.0,0.0,0.0,0.0,0.0,0.0,0.0,0.0,0.0,0.0,0.0,0.0,0.0,0.0,0.0,0.0,0.0,0.0,0.0,0.0,0.0,0.0,0.0,0.0,0.0,0.9503,1.086,1.1805,1.1805,1.1805,1.2024,1.2514,1.2508,1.2044,1.0951,0.0,0.0,0.0,0.0,0.0,0.0,0.0,0.0,0.0,0.0,0.0,0.0,0.0,0.0,0.0,0.0,0.0,0.0,0.0,0.0,0.0,0.0,0.0,0.0,0.0,0.0,0.0,0.0,0.0,0.0,0.0,0.0,0.0,0.0,0.0,0.0,0.0,0.0,0.0,0.0,0.0,0.0,0.0,0.0,0.0,0.0,0.0,0.0,0.0,0.0,0.0,0.0,0.0,0.0,0.0,0.0,0.0,0.0,0.0,0.0,0.8891,0.8891,0.0,0.0,0.0,0.0,0.0,0.0,0.0,0.0,0.0,0.0,0.0,0.0,0.0,0.0,0.0,0.0,0.0,0.0,0.0,0.0,0.0,0.0,0.0,0.0,0.0,0.0,0.0,0.0,0.0,0.0,0.0,0.0,0.0,0.0,0.0,0.0,0.0,0.0,0.0,0.0,0.9503,1.086,1.1805,1.1805,1.1805,1.1918,1.2251,1.1961,1.1475,1.0859,0.9699,0.0,0.0,0.0,0.0,0.0,0.0,0.0,0.0,0.0,0.0,0.0,0.0,0.0,0.0,0.0,0.0,0.0,0.0,0.0,0.0,0.0,0.0,0.0,0.0,0.0,0.0,0.0,0.0,0.0,0.0,0.0,0.0,0.0,0.0,0.0,0.0,0.0,0.0,0.0,0.0,0.0,0.0,0.0,0.0,0.0,0.0,0.0,0.0,0.0,0.0,0.0,0.0,0.0,0.0,0.0,0.0,0.0,0.0,0.0,0.9518,0.9721,0.0,0.0,0.0,0.0,0.0,0.0,0.0,0.0,0.0,0.0,0.0,0.0,0.0,0.0,0.0,0.0,0.0,0.0,0.0,0.0,0.0,0.0,0.0,0.0,0.0,0.0,0.0,0.0,0.0,0.0,0.0,0.0,0.0,0.0,0.0,0.0,0.0,0.0,0.0,0.0,0.9695,1.1204,1.2291,1.2291,1.2402,1.2584,1.2859,1.2463,1.2021,1.1542,1.0494,0.0,0.0,0.0,0.0,0.0,0.0,0.0,0.0,0.0,0.0,0.0,0.0,0.0,0.0,0.0,0.0,0.0,0.0,0.0,0.0,0.0,0.0,0.0,0.0,0.0,0.0,0.0,0.0,0.0,0.0,0.0,0.0,0.0,0.0,0.0,0.0,0.0,0.0,0.0,0.0,0.0,0.0,0.0,0.0,0.0,0.0,0.0,0.0,0.0,0.0,0.0,0.0,0.0,1.2493,1.2493,1.2539,1.3408,1.3812,1.3679,1.1185,1.1357,1.321,1.0703,0.0,0.0,0.0,0.0,0.0,0.0,0.0,0.0,0.0,0.0,0.0,0.0,0.0,0.0,0.0,0.0,0.0,0.0,0.0,0.0,0.0,0.0,1.7284,1.592,1.5595,1.5037,1.299,0.0,0.0,0.0,0.0,0.0,0.0,0.0,0.0,0.0,0.0,0.0,1.0282,1.1864,1.3008,1.3137,1.3228,1.3392,1.3652,1.3277,1.2804,1.2332,1.1671,1.0639,0.0,0.0,0.0,0.0,0.0,0.0,0.0,0.0,0.0,0.0,0.0,0.0,0.0,0.0,0.0,0.0,0.0,0.0,0.0,0.0,0.0,0.0,0.0,0.0,0.0,0.0,0.0,0.0,0.0,0.0,0.0,0.0,0.7564,0.7854,0.0,0.0,0.0,0.0,0.0,0.0,0.0,0.0,0.0,0.0,0.0,0.0,0.0,1.1281,1.1281,1.1281,1.2628,1.5274,1.5274,1.5274,1.5274,1.5424,1.5479,1.5464,1.5046,0.0,1.3362,1.2973,0.0,0.0,0.0,0.0,0.0,0.0,0.0,0.0,0.0,0.0,0.0,0.0,0.0,0.0,0.0,0.0,0.0,0.0,0.0,0.0,0.0,0.0,1.6641,1.579,1.5595,1.5511,1.5172,1.4173,1.3059,1.2148,1.1405,1.0649,0.0,0.0,0.0,0.0,0.0,0.0,1.1855,1.2921,1.3845,1.4479,1.3994,1.373,1.4012,1.339,1.2804,1.2332,1.2195,1.1451,0.9916,0.9378,0.0,0.0,0.0,0.0,0.0,0.0,0.0,0.0,0.0,0.0,0.0,0.0,0.0,0.0,0.0,0.0,0.0,0.0,0.0,0.0,0.0,0.0,0.0,0.0,0.0,0.0,0.0,0.0,0.0,0.735,0.8665,0.9941,0.8799,0.7899,0.0,0.0,0.0,0.0,0.0,0.0,0.0,0.0,0.0,1.0084,1.2643,1.406,1.406,1.406,1.4644,1.5799,1.5799,1.5799,1.5799,1.5799,1.5799,1.5799,1.5799,1.5381,1.4813,1.5545,1.4107,1.1432,0.0,0.0,0.0,0.0,1.0805,1.3447,1.3785,1.4985,1.6081,1.4425,0.0,0.0,0.0,0.0,0.0,0.0,0.0,1.3245,1.6986,1.826,1.8295,1.7298,1.7262,1.7337,1.6931,1.6001,1.492,1.3768,1.3582,1.299,1.0978,1.0851,0.0,0.0,0.0,1.1925,1.2457,1.3908,1.4995,1.5324,1.5211,1.4978,1.4689,1.4169,1.3579,1.2957,1.2598,1.2101,1.1437,1.0502,0.9648,0.0,0.0,0.0,0.0,0.0,0.0,0.0,0.0,0.0,0.0,0.0,0.0,0.0,0.0,0.0,0.0,0.0,0.0,0.0,0.0,0.0,0.0,0.0,0.0,0.0,0.0,0.0,0.0,0.7944,0.9235,1.0932,0.9516,0.8274,0.0,0.0,0.0,0.0,0.0,0.0,1.17,1.2448,1.2807,1.2807,1.4764,1.5799,1.5799,1.5799,1.5799,1.5814,1.6488,1.6803,1.6803,1.6803,1.6803,1.6833,1.7281,1.7222,1.6834,1.7139,1.6198,1.4531,1.4531,1.4531,1.4242,1.2007,1.26,1.4834,1.705,1.7811,1.7456,1.524,1.6692,1.939,1.9888,0.0,0.0,0.0,0.0,1.6319,1.8837,1.9837,1.9925,1.892,1.8938,1.9029,1.8464,1.7861,1.6925,1.5373,1.5358,1.4834,1.2381,1.2337,0.0,1.1082,1.2188,1.3266,1.3567,1.5038,1.6098,1.6294,1.6324,1.6033,1.5288,1.4766,1.419,1.3515,1.302,1.2725,1.2579,1.1554,1.0615,0.9823,0.0,0.0,0.0,0.0,0.0,0.0,0.0,0.0,0.0,0.0,0.0,0.0,0.0,0.0,0.0,0.0,0.0,0.0,0.0,0.0,0.0,0.0,0.0,0.0,0.0,0.0,0.0,0.0,0.0,0.9323,0.9605,0.0,0.0,0.0,0.0,1.1416,1.1595,1.1655,1.179,1.4225,1.5604,1.5604,1.5724,1.5799,1.5799,1.5799,1.5799,1.5829,1.8332,1.948,1.948,1.948,1.948,1.9587,2.1234,2.1019,1.9336,1.6909,1.6548,1.7591,1.7591,1.7591,1.7574,1.7422,1.7456,1.7608,1.776,1.7811,1.7794,1.7642,1.837,1.9305,1.935,1.9114,0.0,0.0,1.9051,1.9191,1.9809,2.0368,2.063,2.0057,1.9942,1.9934,1.99,1.9551,1.8715,1.6934,1.6035,1.5325,1.4496,0.0,1.4269,1.393,1.4178,1.4821,1.5967,1.6423,1.6927,1.7614,1.7079,1.639,1.5643,1.4893,1.4238,1.3616,1.3565,1.3322,1.2811,1.2119,1.1398,1.0656,0.9237,0.0,0.0,0.0,0.0,0.0,0.0,0.0,0.0,0.0,0.0,0.0,0.0,0.0,0.0,0.0,0.0,0.0,0.0,0.0,0.0,0.0,0.0,0.0,0.0,0.0,0.0,0.0,0.0,1.0862,1.1521,0.0,1.0503,0.9665,1.0642,1.412,1.4375,1.4375,1.4375,1.5289,1.5799,1.5799,1.5799,1.5799,1.5799,1.7477,1.8317,1.8332,1.9241,1.969,1.969,1.969,2.0311,2.1401,2.202,2.1323,1.9615,1.8672,1.8583,1.903,1.903,1.903,1.9154,2.0279,2.0703,2.0703,2.0703,2.0703,2.0703,2.0703,2.0051,1.9305,1.9305,1.9305,1.973,2.1859,2.1855,2.1257,2.1453,2.1615,2.161,2.0973,2.0798,2.0636,2.0103,1.9883,1.9596,1.8954,1.8024,1.6897,1.5455,1.5595,1.5559,1.4519,1.5233,1.6065,1.6504,1.7057,1.7507,1.7777,1.7557,1.7105,1.6367,1.5629,1.4975,1.4418,1.3888,1.3632,1.3693,1.2476,1.1747,1.1601,1.0063,0.9011,0.0,0.0,0.0,0.0,0.0,0.0,0.0,0.0,0.0,0.0,0.0,0.0,0.0,0.0,0.0,0.0,0.0,0.0,0.0,0.0,0.0,0.0,0.0,0.0,0.0,1.0771,1.188,1.2104,1.2852,1.2942,1.1895,1.1446,1.2478,1.5574,1.5799,1.5799,1.5799,1.5799,1.6203,1.7103,1.7118,1.7118,1.7118,1.8822,1.969,1.969,1.969,1.969,1.969,1.969,2.0345,2.1462,2.2049,2.1645,2.0532,1.9945,1.969,1.969,1.969,1.969,1.9925,2.1661,2.231,2.231,2.231,2.231,2.231,2.231,2.1396,2.0307,2.0307,2.0307,2.0773,2.2944,2.2943,2.231,2.231,2.231,2.2197,2.173,2.16,2.1431,2.088,2.0639,2.0502,2.0424,1.9484,1.8326,1.7271,1.716,1.6948,1.6116,1.6593,1.7067,1.7067,1.7507,1.7811,1.7811,1.7811,1.7501,1.6758,1.6035,1.5371,1.483,1.4113,1.385,1.4202,1.2717,1.1967,1.2103,1.0523,0.9437,0.8909,0.0,0.0,0.0,0.0,0.0,0.0,0.0,0.0,0.0,0.0,0.0,0.0,0.0,0.0,0.0,0.0,0.0,0.0,0.0,0.0,0.0,0.0,0.0,1.2044,1.188,1.2119,1.2786,1.3466,1.3376,1.2044,1.3107,1.4393,1.5709,1.5873,1.5918,1.5918,1.5918,1.7088,1.96,1.969,1.969,1.969,1.969,1.969,1.969,1.969,1.969,1.969,1.969,1.9726,1.9889,2.1554,2.231,2.218,2.0481,1.9782,1.9782,1.9782,1.9782,1.998,2.1691,2.231,2.231,2.231,2.231,2.231,2.231,2.231,2.231,2.231,2.231,2.231,2.231,2.231,2.231,2.231,2.231,2.231,2.231,2.231,2.231,2.231,2.1928,2.1549,2.1292,2.0294,1.9574,1.9951,1.9076,1.8451,1.8846,1.8268,0.0,1.7811,1.7811,1.7811,1.7811,1.7811,1.7502,1.6803,1.6034,1.5371,1.4882,1.4244,1.3986,1.4197,1.2869,1.2105,1.2059,1.0558,0.9758,0.971,0.0,0.0,0.0,0.0,0.0,0.0,0.0,0.0,0.0,0.0,0.0,0.0,0.0,0.0,0.0,0.0,0.0,0.0,0.0,0.0,0.0,1.2584,1.3675,1.3316,1.3675,1.4034,1.4214,1.5218,1.5577,1.4794,1.5049,1.5409,1.5769,1.7567,1.8646,1.8646,1.8646,1.8976,1.966,1.969,1.969,1.969,1.969,1.969,1.969,1.969,1.969,1.969,1.969,2.0379,2.1615,2.2077,2.231,2.2254,2.1781,2.1584,2.1584,2.1584,2.1584,2.1645,2.2106,2.231,2.231,2.231,2.231,2.231,2.231,2.231,2.231,2.231,2.231,2.231,2.231,2.231,2.231,2.231,2.231,2.231,2.231,2.231,2.231,2.231,2.2209,2.2084,2.2012,2.1461,2.0775,2.0119,1.9302,1.8773,1.887,1.8268,1.7811,1.7811,1.7811,1.7811,1.7811,1.7811,1.7721,1.7502,1.6338,1.561,1.5591,1.4405,1.385,1.4186,1.3279,1.2269,1.125,1.137,1.0872,0.0,0.0,0.0,0.0,0.0,0.0,0.0,0.0,0.0,0.0,0.0,0.0,0.0,0.0,0.0,0.0,0.0,0.0,0.0,0.0,0.0,0.0,1.4124,1.4767,1.5126,1.4947,1.4887,1.5199,1.6084,1.6667,1.6593,1.6593,1.6817,1.7402,1.8856,1.969,1.969,1.969,1.969,1.969,1.969,1.969,1.969,1.969,1.969,1.9726,2.0447,2.0413,1.969,1.969,2.0243,2.126,2.1974,2.231,2.231,2.231,2.231,2.231,0.0,0.0,0.0,0.0,2.231,2.231,2.231,2.231,2.231,2.231,2.231,2.231,2.231,2.231,2.231,2.231,2.231,2.231,2.231,2.231,2.231,2.231,2.231,2.231,2.231,2.231,2.231,2.231,2.2077,0.0,2.1073,2.0202,1.9529,1.9393,1.8741,1.8149,1.7845,1.7811,1.7811,1.7811,1.7811,1.7811,1.7811,1.6734,0.0,0.0,0.0,1.3979,1.3702,1.3332,0.0,0.0,0.0,0.0,0.0,0.0,0.0,0.0,1.1319,1.1535,0.0,0.0,0.0,0.0,0.0,0.0,0.0,0.0,0.0,0.0,0.0,0.0,0.0,0.0,0.0,0.0,1.6068,1.6248,1.7133,1.6009,1.5336,1.5948,1.6532,1.713,1.7637,1.7832,1.8433,1.96,1.969,1.969,1.969,1.969,0.0,0.0,0.0,1.969,1.969,1.969,1.9782,2.0015,2.1354,2.1197,1.969,1.969,1.9818,2.0085,2.1615,2.231,2.231,2.231,2.231,2.231,2.231,2.231,2.231,2.231,2.231,2.231,2.231,0.0,0.0,2.231,2.231,2.231,2.231,2.231,2.231,2.231,2.231,2.231,2.231,2.231,2.231,2.231,2.231,2.231,2.231,2.231,2.231,2.231,2.231,2.231,2.231,2.1339,2.0495,2.017,1.9435,1.8657,1.8008,1.7839,1.7811,1.7811,1.7811,0.0,1.7811,1.7127,1.6429,1.5766,1.5141,1.4329,1.3311,1.3347,1.3076,1.2388,1.2462,1.2858,1.3574,1.3666,1.4059,1.4738,1.3272,1.3333,0.0,0.0,0.0,0.0,0.0,0.0,0.0,0.0,0.0,0.0,0.0,0.0,0.0,0.0,0.0,1.8452,1.7777,1.7163,1.8032,1.7565,1.7206,1.7326,1.7924,1.8164,1.7727,1.8687,1.9405,1.966,1.969,1.969,1.969,1.969,1.969,1.969,1.969,1.969,1.969,1.969,2.0413,2.1781,2.0698,0.0,1.969,1.969,2.0481,2.1827,2.2152,2.231,2.231,2.231,2.231,2.231,2.231,2.231,2.231,2.231,2.231,2.231,2.231,2.231,2.231,2.231,2.231,2.231,2.231,2.231,0.0,2.231,2.231,2.231,2.231,2.231,2.231,2.231,2.231,2.231,2.231,2.231,2.231,2.231,2.231,2.231,2.231,2.1613,2.1029,2.0974,1.979,1.886,1.8704,1.8154,1.7811,1.7811,1.7811,1.7811,1.7811,1.7127,1.6642,1.65,1.5444,1.4821,1.4837,1.4322,1.4029,1.4029,1.4664,1.5068,1.5245,1.5894,1.6285,1.6413,1.5453,1.5182,0.0,0.0,0.0,0.0,0.0,0.0,0.0,0.0,0.0,0.0,0.0,1.0684,0.0,0.0,1.7251,1.8811,1.8119,1.7625,1.8317,1.7999,1.7697,1.7697,1.8208,1.8328,1.7742,1.8912,1.969,1.969,1.969,1.969,1.969,1.969,1.969,1.969,1.969,1.969,1.969,1.969,2.0139,2.1007,2.012,1.969,1.9726,2.0599,2.1493,2.231,2.231,2.231,2.231,2.231,2.231,2.231,2.231,2.231,2.231,2.231,2.231,2.231,2.231,2.231,2.231,2.231,2.231,2.231,2.231,2.231,2.231,2.231,2.231,2.231,2.231,2.231,2.231,2.231,2.231,2.231,2.231,2.231,2.231,2.231,2.231,2.231,2.231,2.1989,2.1623,2.1271,2.0533,1.9764,1.9005,1.8586,1.8206,1.7845,1.7811,1.7811,1.7811,1.7127,1.6714,1.6714,1.5837,1.5481,1.5796,1.5505,1.5447,1.5698,1.6101,1.6298,1.6298,1.6707,1.711,1.7477,1.7087,1.6912,0.0,0.0,0.0,0.0,0.0,0.0,0.0,0.0,1.3219,1.402,1.369,1.3657,1.4881,1.6533,1.7924,1.8538,1.8119,1.7939,1.8553,1.8328,1.8104,1.8104,1.8418,1.8493,1.8149,1.9061,1.969,1.969,1.969,1.969,1.969,1.969,1.969,1.969,1.969,1.969,1.969,1.969,1.969,1.969,1.969,1.9889,2.0243,2.1661,2.231,2.231,2.231,2.231,2.231,2.231,2.231,2.231,2.231,2.231,2.231,2.231,2.231,2.231,2.231,2.231,2.231,2.231,2.231,2.231,2.231,2.231,2.231,2.231,2.231,2.231,2.231,2.231,2.231,2.231,2.231,2.231,2.231,2.231,2.231,2.231,2.231,2.231,2.231,2.231,2.2102,2.1496,2.1278,2.0737,1.9512,1.9087,1.8676,1.8082,1.7901,1.7811,1.7811,1.7306,1.6981,1.6981,1.6498,1.6323,1.6554,1.6554,1.6715,1.7128,1.7128,1.7202,1.7367,1.7367,1.7697,1.8335,1.8335,1.8335,1.1608,1.2323,1.3023,1.3624,1.3497,1.3691,0.0,0.0,1.4339,1.5357,1.6368,1.7163,1.7326,1.7533,1.8119,1.9346,1.8523,1.8115,1.9375,1.9495,1.9465,1.9465,1.951,1.951,1.9465,1.96,1.969,1.969,1.969,1.969,1.969,1.969,1.969,1.969,1.969,1.969,1.969,1.969,1.969,1.969,1.969,2.0514,2.202,2.2209,2.231,2.231,2.231,2.231,2.231,2.231,2.231,2.231,2.231,2.231,2.231,2.231,2.231,2.231,2.231,2.231,2.231,2.231,2.231,2.231,2.231,2.231,2.231,2.231,2.231,2.231,2.231,2.231,2.231,2.231,2.231,2.231,2.231,2.231,2.231,2.231,2.231,2.231,2.231,2.231,2.2265,2.2198,2.1619,2.115,2.095,1.9738,1.8876,1.8785,1.8189,1.7811,1.7811,1.7935,1.8025,1.8025,1.7582,1.7383,1.7537,1.6917,1.7013,1.7935,1.7968,1.8317,1.9032,1.9032,1.9069,1.9161,1.9161,1.9161,1.3883,1.432,1.4723,0.0,1.5707,1.6042,1.7206,1.6865,1.6463,1.707,1.7483,1.7772,1.8059,1.8104,1.8448,0.0,1.9226,1.9061,1.9615,1.969,1.969,1.969,1.969,1.969,1.969,1.969,1.969,1.969,1.969,1.969,1.969,1.969,1.969,1.969,1.969,1.969,1.969,1.969,1.969,1.9711,2.0731,2.1584,2.231,2.231,2.231,2.231,2.231,2.231,2.231,2.231,2.231,2.231,2.231,2.231,2.231,2.231,2.231,2.231,2.231,2.231,2.231,2.231,2.231,2.231,2.231,2.231,2.231,2.231,2.231,2.231,2.231,2.231,2.231,2.231,2.231,2.231,2.231,2.231,2.231,2.231,2.231,2.231,2.231,2.231,2.231,2.231,2.204,2.1687,2.1256,2.0629,1.9883,1.899,1.8603,1.8331,1.8042,1.8133,1.8258,1.843,1.8253,1.8235,1.8466,1.816,1.8247,1.8794,1.8794,1.8959,1.9305,1.9305,1.9305,1.9305,1.9305,1.9546,1.5206,1.5544,0.0,1.6673,1.7612,1.8377,1.8431,1.8087,1.7811,1.7913,1.7911,1.7924,1.7999,1.8452,1.8991,1.9585,1.969,1.969,1.969,1.969,1.969,1.969,1.969,1.969,1.969,1.969,1.969,1.969,1.969,1.969,1.969,1.969,1.969,1.969,1.9909,2.005,2.005,2.0311,2.0413,2.0447,2.1691,2.231,2.231,2.231,2.231,2.231,2.231,2.231,2.231,2.231,2.231,2.231,2.231,2.231,2.231,2.231,2.231,2.231,2.231,2.231,2.231,2.231,2.231,2.231,2.231,2.231,2.231,2.231,2.231,2.231,2.231,2.231,2.231,2.231,2.231,2.231,2.231,2.231,2.231,2.231,2.231,2.231,2.231,2.231,2.231,2.231,2.231,2.2119,2.1575,2.1144,2.0361,1.9041,1.8716,1.8495,1.8223,1.8258,1.8425,1.8703,1.8752,1.887,1.9067,1.9086,1.915,1.9289,1.9305,1.9305,1.9305,1.9305,1.9305,1.9323,1.9528,1.995,0.0,0.0,1.6425,1.7033,1.8522,1.9666,1.8946,1.8223,1.7633,1.739,1.7882,1.8137,1.7297,1.8527,1.966,1.969,1.969,1.969,1.969,1.969,1.969,1.969,1.969,1.969,0.0,1.969,1.969,1.969,1.969,1.969,1.969,1.969,1.969,1.969,2.0499,2.0959,2.0959,2.1781,2.2209,2.2209,2.2282,2.231,2.231,2.231,2.231,2.231,2.231,2.231,2.231,2.231,2.231,2.231,2.231,2.231,2.231,2.231,2.231,2.231,2.231,2.231,2.231,2.231,2.231,2.231,2.231,2.231,2.231,2.231,2.231,2.231,2.231,2.231,2.231,2.231,2.231,2.231,2.231,2.231,2.231,2.231,2.231,2.231,2.231,2.231,2.231,2.231,2.231,2.231,2.2265,2.0955,1.9743,1.8993,1.8269,1.7935,1.8189,1.8431,1.8703,1.8965,1.9179,1.9271,1.9289,1.9289,1.9289,1.9305,1.9305,1.9305,1.9305,1.9305,1.9305,1.9323,2.0097,2.0484,1.6752,0.0,1.7864,1.876,1.9463,1.9872,1.9797,1.9275,1.8726,1.8303,1.8308,1.8208,1.761,1.8702,1.9121,1.7402,1.8587,1.969,1.969,1.969,1.969,1.969,1.969,0.0,0.0,0.0,0.0,1.969,1.969,1.969,1.969,1.969,1.969,1.969,1.998,2.0311,2.0714,2.1385,2.1899,2.231,2.231,2.231,2.231,2.231,2.231,2.231,2.231,2.231,2.231,2.231,2.231,2.231,2.231,2.231,2.231,2.231,2.231,2.231,2.231,2.231,2.231,2.231,2.231,2.231,2.231,2.231,2.231,2.231,2.231,2.231,2.231,2.231,2.231,2.231,2.231,2.231,2.231,2.231,2.231,2.231,2.231,2.231,2.231,2.231,2.231,2.231,2.231,2.231,2.231,2.186,2.1248,2.0489,2.0206,1.9819,1.924,1.9273,1.9289,1.9198,1.9253,1.9305,1.9305,1.9305,1.9305,1.9305,1.9305,1.9305,1.9305,1.9305,1.9565,2.0097,2.0356,2.109,1.788,1.8188,1.8315,1.9388,1.975,1.9822,1.9725,1.9415,1.8951,1.8275,1.8134,1.7909,1.7161,1.6937,1.6968,1.7163,1.8616,1.969,1.969,1.969,1.969,1.969,1.969,1.969,0.0,0.0,0.0,1.969,1.969,1.969,1.969,1.969,1.969,1.969,1.9839,2.0104,2.0481,2.0991,2.1615,2.231,2.231,2.231,2.231,2.231,2.231,2.231,2.231,2.231,2.231,2.231,2.231,2.231,2.231,2.231,2.231,2.231,2.231,2.231,2.231,2.231,2.231,2.231,2.231,2.231,2.231,2.231,2.231,2.231,2.231,2.231,2.231,2.231,2.231,2.231,2.231,2.231,2.231,2.231,2.231,2.231,2.231,2.231,2.231,2.231,2.231,2.231,2.231,2.231,2.231,2.2085,2.1729,2.1238,2.0938,2.0556,1.9982,2.0063,1.9954,1.9611,1.9666,1.9611,1.9323,1.9305,1.9305,1.9305,1.9305,1.9305,1.9305,1.9583,1.9987,2.0503,2.1108,2.197,1.8085,1.8047,1.7976,1.8992,1.9459,1.9465,1.8852,1.8627,1.8253,1.7252,1.7266,1.7101,0.0,0.0,1.357,1.8657,1.96,1.969,1.969,1.969,1.969,0.0,0.0,0.0,0.0,0.0,0.0,1.969,1.969,1.969,1.969,1.969,1.969,1.969,2.0054,2.028,2.028,2.0731,2.1354,2.2237,2.2282,2.231,2.231,2.231,2.231,2.231,2.231,2.231,2.231,2.231,2.231,2.231,2.231,2.231,2.231,2.231,2.231,2.231,2.231,2.231,2.231,2.231,2.231,2.231,2.231,2.231,2.231,2.231,2.231,2.231,2.231,2.231,2.231,2.231,2.231,2.231,2.231,2.231,2.231,2.231,2.231,2.231,2.231,2.231,2.231,2.231,2.231,2.231,2.231,2.1692,2.1273,2.1256,2.0577,2.0228,2.0449,2.0761,2.0723,2.0197,2.0428,2.0228,1.947,1.9433,1.9433,1.9433,1.9433,1.9433,1.9433,2.0189,2.0576,2.0668,2.2245,2.3033,1.8826,1.9263,1.961,1.9591,1.9251,1.8912,1.8747,1.7565,1.6473,1.6188,1.5126,1.3989,0.0,0.0,0.0,1.6413,1.8437,0.0,1.969,1.969,0.0,1.969,0.0,1.969,1.969,1.969,0.0,1.969,1.969,1.969,1.969,1.969,1.969,1.969,1.9818,1.9839,1.9839,1.998,2.0481,2.1323,2.1991,2.231,2.231,2.231,2.231,2.231,2.231,2.231,2.231,2.231,2.231,2.231,2.231,2.231,2.231,2.231,2.231,2.231,2.231,2.231,2.231,2.231,2.231,2.231,2.231,2.231,2.231,2.231,2.231,2.231,2.231,2.231,2.231,2.231,2.231,2.231,2.231,2.231,2.231,2.231,2.231,2.231,2.231,2.231,2.231,2.231,2.231,2.231,2.231,2.2303,2.2247,2.205,2.2006,2.1799,2.1256,2.152,2.15,2.1015,2.1298,2.1383,2.1178,2.116,2.116,2.116,2.116,2.116,2.116,2.1363,2.1785,2.2355,2.2795,2.3327,1.9505,1.9882,1.9965,1.9747,1.9196,1.8553,1.7951,1.6548,1.5137,1.4379,1.3323,0.0,1.1161,1.173,1.2972,0.0,0.0,0.0,1.9136,1.9495,1.969,0.0,1.969,0.0,1.969,1.969,1.969,1.969,1.969,1.969,1.969,1.969,1.969,1.969,1.969,1.969,1.969,1.969,1.996,2.0447,2.0926,2.1554,2.231,2.231,2.231,2.231,2.231,2.231,2.231,2.231,2.231,2.231,2.231,2.231,2.231,2.231,2.231,2.231,2.231,2.231,2.231,2.231,2.231,2.231,2.231,2.231,2.231,2.231,2.231,2.231,2.231,2.231,2.231,2.231,2.231,2.231,2.231,2.231,2.231,2.231,2.2443,2.2542,2.2485,2.259,2.2654,2.2485,2.2586,2.2626,2.2503,2.2611,2.2646,2.2481,2.2737,2.2747,2.228,2.2548,2.2478,2.187,2.2136,2.2172,2.1821,2.1803,2.1803,2.1803,2.1803,2.1803,2.1803,2.2152,2.2556,2.3015,2.3364,2.3768,1.997,1.9965,1.969,1.969,1.9166,1.8328,1.701,1.559,1.4106,1.2528,0.0,1.1258,1.0037,1.0342,1.1535,1.3895,0.0,1.6593,1.8485,1.9266,1.9656,1.9711,1.969,1.969,1.969,1.969,1.969,1.969,1.969,1.969,1.969,1.969,1.969,1.969,1.969,1.969,1.969,1.969,1.969,1.969,1.969,2.0599,2.231,2.231,2.231,2.231,2.231,2.231,2.231,2.231,2.231,2.231,2.231,2.231,2.231,2.231,2.231,2.231,2.231,2.231,2.231,2.231,2.231,2.231,2.231,2.231,2.231,2.231,2.231,2.2338,2.2497,2.2552,2.2497,2.2338,2.231,2.231,2.231,2.2349,2.2405,2.2389,2.2667,2.2859,2.2784,2.3005,2.3102,2.2804,2.2997,2.3087,2.2806,2.2808,2.2821,2.2767,2.3074,2.3236,2.3189,2.3513,2.3404,2.2703,2.2978,2.2849,2.2152,2.2133,2.2133,2.2133,2.2133,2.2133,2.2133,2.2813,2.3162,2.318,2.3878,2.419,1.9752,1.9747,1.969,1.969,1.9061,1.8134,1.698,1.4995,0.0,0.0,1.1327,1.0408,0.9624,1.0945,1.2502,1.3583,1.531,1.7167,1.8883,1.9201,1.939,0.0,1.969,1.969,1.969,1.969,0.0,0.0,1.969,1.969,1.969,1.969,1.969,1.969,1.969,1.969,1.969,1.969,1.969,1.969,1.969,2.0599,2.231,2.231,2.231,2.231,2.231,2.231,2.231,2.231,2.231,2.231,2.231,2.231,2.231,2.231,2.231,2.231,2.231,2.231,2.231,2.231,2.231,2.231,2.231,2.231,2.231,2.231,2.231,2.2552,2.3602,2.3873,2.3602,2.2552,2.231,2.231,2.231,2.2686,2.2977,2.2839,2.2835,2.2942,2.3084,2.3157,2.318,2.312,2.3161,2.3187,2.3133,2.3356,2.342,2.3153,2.3426,2.35,2.3212,2.3513,2.3635,2.3503,2.3798,2.3933,2.3786,2.3768,2.3768,2.3768,2.3768,2.3768,2.3768,2.3914,2.3988,2.4006,2.4135,2.419,1.96,1.969,1.96,1.9256,1.8343,1.7116,1.5615,0.0,0.0,0.0,1.0034,0.9297,0.907,1.0047,0.0,1.2326,1.3923,1.5833,1.8136,1.8563,0.0,2.0255,1.998,1.9782,0.0,1.9818,1.969,1.969,1.969,1.969,1.969,1.969,1.969,1.969,1.969,1.9925,2.0379,1.9925,2.0154,2.1055,2.1055,2.1493,2.231,2.231,2.231,2.231,2.231,2.231,2.231,2.231,2.231,2.231,2.231,2.231,2.231,2.231,2.231,2.231,2.231,2.231,2.231,2.231,2.2756,2.3283,2.3283,2.3283,2.3283,2.3283,2.3283,2.3445,2.4034,2.419,2.4054,2.3445,2.3283,2.3116,2.2443,2.2777,2.3274,2.3531,2.3584,2.3543,2.3472,2.3602,2.3656,2.3485,2.3613,2.3661,2.3487,2.3747,2.3833,2.3502,2.3762,2.3896,2.3735,2.3876,2.3976,2.3976,2.4113,2.419,2.419,2.419,2.419,2.419,2.419,2.419,2.419,2.419,2.419,2.419,2.419,2.419,1.9295,1.957,1.9525,1.8867,1.7578,1.6068,1.4399,1.2531,0.0,0.0,0.901,0.8551,0.8712,0.0,0.9995,0.0,1.2681,1.4459,1.7273,1.794,1.8764,0.0,2.0252,0.0,2.0158,1.9965,0.0,1.9726,1.969,1.969,1.969,1.969,1.969,1.969,1.9818,2.0277,2.1086,2.0532,2.0926,2.231,2.231,2.231,2.231,2.231,2.231,2.231,2.231,2.231,2.231,2.231,2.231,2.231,2.231,2.231,2.231,2.231,2.231,2.2338,2.2615,2.2721,2.2721,2.2721,2.3212,2.3834,2.4132,2.419,2.419,2.419,2.419,2.419,2.419,2.419,2.419,2.419,2.419,2.3935,2.2917,2.3076,2.3573,2.4107,2.419,2.4135,2.3858,2.4024,2.4116,2.3858,2.4024,2.4116,2.384,2.4042,2.4094,2.3855,2.4036,2.419,2.419,2.419,2.419,2.419,2.419,2.419,2.419,2.419,2.419,2.419,2.419,2.419,2.419,2.419,2.419,2.419,2.419,2.419,1.8624,1.9226,1.9525,1.8867,1.7266,1.5585,1.4364,0.0,0.0,0.9843,0.9201,0.8858,0.8869,0.947,1.0437,0.0,0.0,1.431,1.688,1.7834,1.8563,1.9293,0.0,0.0,1.9818,2.0054,2.0089,1.9726,1.969,1.969,1.969,1.969,1.969,1.969,2.0224,2.078,2.1368,2.184,2.2152,2.231,2.231,2.231,2.231,2.231,2.231,2.231,2.231,2.231,2.231,2.231,2.231,2.231,2.231,2.231,2.231,2.231,2.231,2.247,2.3624,2.4034,2.4034,2.4034,2.3312,2.2694,2.3852,2.419,2.419,2.419,2.419,2.419,2.419,2.419,2.419,2.419,2.419,2.417,2.4054,2.4071,2.4129,2.4189,2.419,2.419,2.4153,2.4171,2.419,2.4153,2.4171,2.419,2.4153,2.4171,2.419,2.4151,2.417,2.419,2.419,2.419,2.419,2.419,2.419,2.419,2.419,2.419,2.419,2.419,2.419,2.419,2.419,2.419,2.419,2.419,2.419,2.419,1.7829,1.813,1.8008,1.762,1.6128,1.4473,1.3283,0.0,1.0495,0.9395,0.9037,0.8891,0.8891,0.9076,0.9593,1.0744,1.1078,1.2256,1.5175,1.5956,1.7109,1.9409,2.0056,0.0,0.0,0.0,2.0532,2.0089,2.033,2.0379,2.007,1.9839,1.9803,2.0054,2.0413,2.0878,2.1399,2.2003,2.231,2.231,2.231,2.231,2.231,2.231,2.231,2.231,2.231,2.231,2.231,2.231,2.231,2.231,2.231,2.231,2.2377,2.3164,2.3445,2.3513,2.4034,2.419,2.419,2.419,2.3873,2.3535,2.4054,2.419,2.419,2.419,2.419,2.419,2.419,2.419,2.419,2.419,2.419,2.419,2.419,2.419,2.419,2.419,2.419,2.419,2.419,2.419,2.419,2.419,2.419,2.419,2.419,2.419,2.419,2.419,2.419,2.419,2.419,2.419,2.419,2.419,2.419,2.419,2.419,2.419,2.419,2.419,2.419,2.419,2.419,2.419,2.419,2.419,2.419,2.419,1.6816,1.7078,1.6996,1.6768,1.5492,1.3962,0.0,1.1307,1.0111,0.9103,0.8891,0.8891,0.8891,0.8829,0.9033,0.987,1.0095,1.1185,1.4088,1.5038,1.6447,0.0,0.0,2.0235,2.1024,2.1037,2.0862,2.0516,2.0829,2.0862,2.0516,2.0243,2.0193,2.0483,2.0764,2.1086,2.146,2.2003,2.231,2.231,2.231,2.231,2.231,2.248,2.247,2.231,2.231,2.231,2.231,2.231,2.2525,2.2859,2.2859,2.2859,2.2968,2.3873,2.419,2.419,2.419,2.419,2.419,2.419,2.419,2.419,2.419,2.419,2.419,2.419,2.419,2.419,2.419,2.419,2.419,2.419,2.419,2.419,2.419,2.419,2.419,2.419,2.419,2.419,2.419,2.419,2.419,2.419,2.419,2.419,2.419,2.419,2.419,2.419,2.419,2.419,2.419,2.419,2.419,2.419,2.419,2.419,2.419,2.419,2.419,2.419,2.419,2.419,2.419,2.419,2.419,2.419,2.419,2.419,1.5475,1.6371,1.6862,1.6736,1.5726,1.4362,0.0,1.1307,1.0111,0.9103,0.8891,0.8891,0.8891,0.8891,0.9145,0.9883,1.0622,1.1891,1.4173,1.5764,1.7087,0.0,0.0,1.9974,1.9919,2.0559,2.0991,2.0991,2.0991,2.0991,2.0991,2.1007,2.1007,2.0991,2.1368,2.1582,2.1582,2.2061,2.231,2.231,2.231,2.231,2.2338,2.2908,2.2857,2.231,2.231,2.231,2.231,2.231,2.3042,2.417,2.417,2.417,2.417,2.4208,2.419,2.419,2.419,2.419,2.419,2.419,2.419,2.419,2.419,2.419,2.419,2.419,2.419,2.419,2.419,2.419,2.419,2.419,2.419,2.419,2.419,2.419,2.419,2.419,2.419,2.419,2.419,2.419,2.419,2.419,2.419,2.419,2.419,2.419,2.419,2.419,2.419,2.419,2.419,2.419,2.419,2.419,2.419,2.419,2.419,2.419,2.419,2.419,2.419,2.419,2.419,2.419,2.419,2.419,2.419,2.419,1.2963,1.337,1.3637,1.3401,1.2586,1.171,1.1137,1.0415,0.9672,0.9037,0.8891,0.8891,0.8891,0.8829,0.9196,1.0541,1.0877,0.0,0.0,0.0,0.0,1.8557,2.0406,2.1558,0.0,2.1753,2.1751,2.143,2.1705,2.1751,2.143,2.1705,2.1751,2.143,2.1521,2.1748,2.2077,2.2225,2.2388,2.2573,2.2573,2.2573,2.2573,2.2581,2.279,2.3105,2.2982,2.2908,2.2908,2.2908,2.341,2.419,2.419,2.419,2.419,2.419,2.419,2.419,2.419,2.419,2.419,2.419,2.419,2.419,2.419,2.419,2.419,2.419,2.419,2.419,2.419,2.419,2.419,2.419,2.419,2.419,2.419,2.419,2.419,2.419,2.419,2.419,2.419,2.419,2.419,2.419,2.419,2.419,2.419,2.419,2.419,2.419,2.419,2.419,2.419,2.419,2.419,2.419,2.419,2.419,2.419,2.419,2.419,2.419,2.419,2.419,2.419,2.419,2.419,2.419,2.419,2.4282,0.0,1.1938,1.2193,1.203,1.1419,1.0777,1.0524,1.0054,0.9524,0.901,0.8936,0.8957,0.8902,0.884,0.9131,1.0161,1.07,0.0,0.0,0.0,0.0,1.9286,0.0,0.0,0.0,2.2207,2.218,2.1899,2.2135,2.222,2.2034,2.2292,2.2375,2.2224,2.1965,2.2113,2.2634,2.2517,2.259,2.2898,2.2898,2.2898,2.2898,2.2849,2.3032,2.3392,2.3522,2.3477,0.0,2.3212,2.3606,2.419,2.419,2.419,2.419,2.419,2.419,2.419,2.419,2.419,2.419,2.419,2.4392,2.462,2.462,2.4426,2.419,2.419,2.419,2.419,2.419,2.419,2.419,2.419,2.419,2.419,2.419,2.419,2.419,2.419,2.419,2.419,2.419,2.419,2.419,2.419,2.419,2.419,2.419,2.419,2.419,2.419,2.419,2.419,2.419,2.419,2.419,2.419,2.419,2.419,2.419,2.419,2.419,2.419,2.419,2.4247,2.4321,2.4393,2.4393,2.4321,2.4321,2.4395,0.0,0.0,0.0,1.2019,1.1603,1.1096,1.0575,1.0095,0.0,0.9049,0.9033,0.9085,0.9026,0.897,0.9037,0.9362,1.0467,0.0,0.0,1.5646,0.0,0.0,2.124,0.0,2.1697,2.208,2.2349,2.2349,2.2349,2.2463,2.2721,2.2746,2.2898,2.3212,2.266,2.2634,2.3189,2.2898,2.2898,2.3253,2.3253,2.3253,2.3253,2.3566,2.3522,2.3259,2.3896,2.3917,2.35,2.3346,2.3628,2.4151,2.419,2.419,2.419,2.419,2.419,2.419,2.419,2.419,2.419,2.419,2.4693,2.5303,2.5303,2.478,2.4209,2.4266,2.4284,2.4284,2.4284,2.4247,2.419,2.419,2.419,2.419,2.419,2.419,2.419,2.419,2.419,2.419,2.419,2.419,2.419,2.419,2.419,2.419,2.419,2.419,2.419,2.419,2.419,2.419,2.419,2.4209,2.4228,2.4228,2.4228,2.4247,2.4247,2.4228,2.4228,2.4228,2.4209,2.4303,2.4495,2.4685,2.4685,2.4528,2.4528,2.452,0.9552,0.0,0.9955,0.9446,0.9322,0.9307,0.0,0.9242,0.9254,0.9214,0.0,0.0,1.002,0.9613,0.9939,1.2176,0.0,1.3781,1.5973,0.0,0.0,2.1967,2.215,2.2234,2.241,2.2531,2.273,2.2965,2.2989,2.3014,2.3069,2.3069,2.3253,2.3566,2.3183,2.3063,2.3189,2.3117,2.3236,2.3566,2.3566,2.3566,2.3588,2.3671,2.3671,2.3588,2.3753,2.3735,2.3671,2.3876,2.3855,2.3692,2.4074,2.419,2.419,2.419,2.419,2.419,2.419,2.419,2.419,2.419,2.4693,2.5303,2.5303,2.478,2.4321,2.4877,2.5049,2.5049,2.5049,2.462,2.419,2.419,2.419,2.419,2.419,2.419,2.419,2.419,2.419,2.419,2.419,2.419,2.419,2.419,2.419,2.419,2.419,2.419,2.419,2.419,2.419,2.419,2.419,2.4339,2.4445,2.4445,2.4559,2.4654,2.4654,2.4512,2.4445,2.4445,2.4266,2.4303,2.4495,2.4561,2.4623,2.4731,2.4731,2.4786,0.9189,0.9537,0.9811,0.9375,0.9394,0.9537,0.958,0.0,0.0,0.0,0.0,0.0,0.0,0.0,0.0,0.0,1.3598,0.0,0.0,0.0,2.1383,2.2755,2.2933,2.3,2.3141,2.3021,2.2996,2.3189,2.3189,2.3277,2.3414,2.3414,2.3588,2.3917,2.3735,2.3671,2.3671,2.3522,2.3588,2.3917,2.3917,2.3979,2.4079,2.4079,2.4118,2.4192,2.4192,2.4155,2.4136,2.4302,2.4154,2.3855,2.4094,2.419,2.4247,2.4572,2.4693,2.4693,2.4693,2.4693,2.4693,2.4693,2.4968,2.5303,2.5303,2.5024,2.478,2.5182,2.5303,2.5303,2.5303,2.4993,2.462,2.4284,2.419,2.419,2.419,2.419,2.4303,2.4651,2.4693,2.4693,2.4693,2.4408,2.419,2.419,2.419,2.419,2.419,2.419,2.419,2.419,2.419,2.419,2.419,2.4303,2.441,2.4495,2.4591,2.47,2.4804,2.47,2.4591,2.4512,2.454,2.4588,2.4639,2.4799,2.4883,2.4891,2.4891,2.4931,0.9482,1.0125,1.0649,1.0252,1.033,1.0468,1.0382,0.0,0.0,0.0,0.0,0.0,0.0,1.0923,0.0,0.0,0.0,0.0,1.9332,2.0822,2.199,2.3145,2.3477,2.3631,2.3692,2.3437,2.33,2.3346,2.3346,2.3477,2.3774,2.3774,2.3917,2.4247,2.4247,2.4247,2.4284,2.3979,2.3979,2.4284,2.4284,2.4375,2.4561,2.4561,2.4639,2.4804,2.4804,2.4716,2.4594,2.4626,2.4462,2.4209,2.4321,2.4375,2.4442,2.5072,2.5303,2.5303,2.5303,2.5303,2.5303,2.5303,2.5303,2.5303,2.5303,2.5303,2.5303,2.5303,2.5303,2.5303,2.5303,2.5303,2.5149,2.4526,2.4375,2.4375,2.4375,2.4375,2.454,2.5182,2.5303,2.5303,2.5303,2.478,2.4375,2.4375,2.4375,2.4321,2.4209,2.4303,2.4375,2.4375,2.4375,2.4321,2.4209,2.419,2.4266,2.4444,2.4526,2.4651,2.4814,2.4855,2.4756,2.4561,2.4818,2.4911,2.4828,2.5115,2.5163,2.5046,2.5046,2.5049,1.0303,1.1166,1.1468,0.9866,0.9976,1.0346,0.978,0.0,0.0,0.0,0.0,0.0,0.0,1.2861,1.3358,0.0,0.0,1.9198,0.0,0.0,2.2661,2.352,2.3414,2.3392,2.3671,2.3649,2.3735,2.4034,2.4054,2.4074,2.4113,2.4113,2.421,2.4444,2.4444,2.4545,2.47,2.4493,2.4493,2.4716,2.4716,2.4731,2.476,2.476,2.4775,2.4804,2.4804,2.4716,2.461,2.4716,2.4526,2.4266,2.4891,2.5118,2.513,2.5253,2.5303,2.5303,2.5303,2.5303,2.5303,2.5303,2.5303,2.5303,2.5303,2.5303,2.5303,2.5303,2.5303,2.5303,2.5303,2.5303,2.5264,2.516,2.5118,2.5118,2.5118,2.5118,2.5171,2.5274,2.5303,2.5303,2.5303,2.5222,2.5118,2.5118,2.5118,2.4904,2.4284,2.4737,2.5118,2.5118,2.5118,2.4877,2.4247,2.419,2.4209,2.4247,2.4659,2.4937,2.4974,2.513,2.508,2.476,2.4799,2.4883,2.4974,2.4962,2.5065,2.5253,2.5253,2.5253,1.0065,1.0794,1.1242,1.0377,1.1101,1.1929,1.1615,0.0,0.0,0.0,0.0,0.0,0.0,0.0,1.4799,1.7128,0.0,2.0479,2.2307,2.2676,2.2986,2.3623,2.3714,2.3795,2.3955,2.4078,2.4211,2.4357,2.4461,2.4528,2.4528,2.4528,2.4578,2.4654,2.4654,2.4741,2.4904,2.4823,2.478,2.4804,2.4804,2.4842,2.4917,2.4917,2.4975,2.508,2.508,2.5043,2.4975,2.5037,2.4962,2.4823,2.5171,2.5303,2.5303,2.5303,2.5303,2.5303,2.5303,2.5303,2.5303,2.5303,2.5303,2.5303,2.5303,2.5303,2.5303,2.5303,2.5303,2.5303,2.5303,2.5303,2.5303,2.5303,2.5303,2.5303,2.5303,2.5303,2.5303,2.5303,2.5303,2.5303,2.5303,2.5303,2.5303,2.5303,2.5303,2.5182,2.4836,2.5084,2.5303,2.5303,2.5303,2.516,2.4823,2.4795,2.4617,2.4228,2.4823,2.5163,2.5163,2.5253,2.5233,2.508,2.508,2.5012,2.4891,2.5041,2.5192,2.5303,2.5303,2.5303,0.9937,1.0425,1.0948,1.1132,0.0,1.2839,1.3206,0.0,0.0,0.0,0.0,0.0,0.0,1.5075,0.0,1.9464,2.0498,2.141,2.2831,2.3217,2.3493,2.3909,2.4154,2.4284,2.4339,2.4478,2.4559,2.4559,2.4716,2.4804,2.4804,2.4804,2.4799,2.4842,2.4842,2.4917,2.5077,2.5077,2.5018,2.4929,2.4929,2.4975,2.5077,2.5096,2.5171,2.5322,2.5341,2.5322,2.5303,2.5303,2.5303,2.5303,2.5303,2.5303,2.5303,2.5303,2.5303,2.5303,2.5379,2.5346,2.5303,2.5303,2.5303,2.5303,2.5303,2.5303,2.5303,2.5303,2.5303,2.5303,2.5303,2.5303,2.5303,2.5303,2.5303,2.5303,2.5303,2.5303,2.5303,2.5303,2.5303,2.5303,2.5303,2.5303,2.5303,2.5303,2.5303,2.5303,2.5303,2.5303,2.5303,2.5303,2.5303,2.5303,2.5303,2.5303,2.5061,2.4493,2.4823,2.5107,2.5284,2.5303,2.5303,2.5303,2.5303,2.5171,2.4929,2.5171,2.5303,2.5303,2.5303,2.5303,1.06,1.0857,1.1077,1.1838,1.1544,0.0,1.2968,1.3254,0.0,1.5322,0.0,0.0,0.0,1.7783,1.9084,2.1428,2.2014,2.2749,2.4407,2.4482,2.447,2.4697,2.4575,2.4543,2.4746,2.4775,2.4775,2.4775,2.479,2.4804,2.4804,2.4804,2.4855,2.4986,2.4986,2.5077,2.5274,2.5274,2.5264,2.5264,2.5264,2.5264,2.5274,2.5331,2.538,2.5409,2.5466,2.5409,2.5303,2.5303,2.5303,2.5303,2.5303,2.5303,2.5303,2.5303,2.5303,2.533,2.5573,2.5513,2.5303,2.5303,2.5303,2.5303,2.5303,2.5303,2.5303,2.5303,2.5303,2.5303,2.5303,2.5303,2.5303,2.5303,2.5303,2.5303,2.5303,2.5303,2.5303,2.5303,2.5303,2.5303,2.5303,2.5303,2.5303,2.5303,2.5303,2.5303,2.5303,2.5303,2.5303,2.5303,2.5303,2.5303,2.5303,2.5303,2.5274,2.5214,2.4636,2.4588,2.5264,2.5303,2.5303,2.5303,2.5303,2.5293,2.5264,2.5293,2.5303,2.5303,2.5303,2.5303,1.0124,1.0647,1.1285,1.2101,1.206,0.0,0.0,1.4493,1.528,1.6522,1.7041,0.0,0.0,0.0,1.9224,2.1078,2.1889,2.2701,2.3832,2.4392,2.4716,2.479,2.4731,2.4716,2.479,2.4883,2.4911,2.4911,2.5037,2.5115,2.5115,2.5115,2.5138,2.5173,2.5192,2.5224,2.5303,2.5341,2.537,2.537,2.5322,2.5322,2.537,2.539,2.5415,2.546,2.5499,2.5484,2.5486,2.5447,2.5476,2.5551,2.5551,2.5551,2.5551,2.5551,2.5551,2.5558,2.5661,2.5634,2.5551,2.5551,2.5551,2.5522,2.5337,2.5303,2.5303,2.5303,2.5303,2.5303,2.5303,2.5303,2.5303,2.5303,2.5303,2.5303,2.5303,2.5303,2.5303,2.5303,2.5303,2.5303,2.5303,2.5303,2.5303,2.5303,2.5303,2.5303,2.5303,2.5303,2.5303,2.5303,2.5303,2.5303,2.5303,2.5303,2.5303,2.5303,2.5037,2.5012,2.5293,2.5303,2.5303,2.5303,2.5303,2.5303,2.5303,2.5303,2.5303,2.5303,2.5303,2.5303,0.9831,1.0301,1.0993,0.0,0.0,0.0,1.4658,1.5498,1.637,1.7841,1.8279,0.0,1.903,0.0,0.0,0.0,2.2045,2.2828,2.3929,2.4536,2.4896,2.4936,2.4896,2.4896,2.4949,2.503,2.5099,2.5099,2.5224,2.5303,2.5303,2.5303,2.5303,2.5303,2.5322,2.5322,2.5322,2.5409,2.5428,2.5421,2.5382,2.5387,2.5428,2.5447,2.5481,2.5525,2.5554,2.5595,2.5635,2.5576,2.5617,2.5703,2.5703,2.5703,2.5703,2.5703,2.5703,2.5703,2.5703,2.5703,2.5703,2.5703,2.5703,2.5661,2.5488,2.5441,2.5413,2.5312,2.5303,2.5303,2.5303,2.5303,2.5303,2.5303,2.5303,2.5303,2.5303,2.5303,2.5303,2.5303,2.5303,2.5303,2.5303,2.5303,2.5303,2.5303,2.5303,2.5303,2.5303,2.5303,2.5303,2.5303,2.5303,2.5303,2.5303,2.5303,2.5303,2.5303,2.5303,2.5303,2.5303,2.5303,2.5303,2.5303,2.5303,2.5303,2.5303,2.5303,2.5303,2.5303,2.5303,2.5303,0.9893,0.9912,0.0,0.0,0.0,0.0,1.5751,1.612,1.6857,1.9459,2.0161,2.0208,1.9866,2.0079,0.0,2.2333,2.2719,2.3389,2.5053,2.5122,2.5088,2.5274,2.5111,2.5088,2.5274,2.5303,2.5303,2.5303,2.5303,2.5303,2.5303,2.5303,2.5303,2.5303,2.537,2.5409,2.5409,2.5466,2.5506,2.5508,2.5489,2.5506,2.5505,2.5563,2.5611,2.561,2.5673,2.5703,2.5703,2.5703,2.5703,2.5703,2.5703,2.5703,2.5703,2.5703,2.5703,2.5703,2.5703,2.5703,2.5703,2.5703,2.5703,2.5703,2.5703,2.5703,2.5637,2.5387,2.5293,2.5303,2.5303,2.5303,2.5303,2.5303,2.5303,2.5303,2.5303,2.5303,2.5303,2.5293,2.5293,2.5293,2.5293,2.5293,2.5293,2.5293,2.5293,2.5293,2.5293,2.5293,2.5293,2.5293,2.5313,2.5303,2.5303,2.5303,2.5303,2.5303,2.5303,2.5303,2.5303,2.5303,2.5303,2.5303,2.5303,2.5303,2.5303,2.5303,2.5303,2.5303,2.5303,2.5303,0.9965,1.0904,0.0,1.2188,0.0,0.0,0.0,1.7556,0.0,0.0,2.0161,2.0269,2.0162,2.0724,0.0,2.1817,2.2929,2.3898,2.4389,2.4899,2.5224,2.5284,2.5292,2.5301,2.536,2.5409,2.5447,2.5447,2.5447,2.5428,2.537,2.537,2.537,2.537,2.539,2.5415,2.546,2.5539,2.5562,2.5575,2.5621,2.5622,2.5563,2.5582,2.563,2.5671,2.5634,2.5667,2.5703,2.5703,2.5703,2.5703,2.5703,2.5703,2.5703,2.5703,2.5703,2.5703,2.5703,2.5703,2.5703,2.5703,2.5703,2.5703,2.5703,2.5703,2.5683,2.5603,2.5447,2.5303,2.5303,2.5447,2.5524,2.5341,2.5303,2.5303,2.5303,2.5303,2.5354,2.5547,2.557,2.557,2.557,2.557,2.557,2.557,2.557,2.557,2.557,2.557,2.557,2.557,2.5401,2.5303,2.5303,2.5303,2.539,2.5563,2.5582,2.5505,2.5303,2.5303,2.5303,2.5303,2.5303,2.5303,2.5303,2.5303,2.5303,2.5303,2.5303,2.5303,1.0353,0.0,0.0,1.3369,1.5081,1.6888,1.8388,0.0,0.0,0.0,2.0263,2.0335,2.0328,2.1056,0.0,2.2053,2.3283,2.4158,2.4111,2.4543,2.4735,2.4408,2.4687,2.4908,2.4907,2.5271,2.5492,2.5492,2.5492,2.5472,2.5434,2.5446,2.5447,2.5447,2.5466,2.5502,2.5531,2.5602,2.5634,2.5609,2.5644,2.5623,2.5559,2.5595,2.5615,2.5627,2.5591,2.5584,2.5629,2.5679,2.5703,2.5703,2.5703,2.5634,2.5543,2.5543,2.5543,2.5554,2.5661,2.5703,2.5703,2.5703,2.5703,2.5703,2.5703,2.5703,2.5703,2.5703,2.5571,2.5466,2.5466,2.5588,2.5659,2.5498,2.5459,2.5421,2.5312,2.5303,2.5387,2.5658,2.5703,2.5703,2.5703,2.5703,2.5703,2.5703,2.5703,2.5703,2.5703,2.5703,2.5703,2.5703,2.5554,2.5459,2.5459,2.5459,2.5517,2.5698,2.5698,2.5633,2.5476,2.537,2.5303,2.5303,2.5303,2.5303,2.5303,2.5303,2.5303,2.5303,2.5303,2.5303,1.0911,0.0,0.0,1.4417,1.5875,0.0,1.9773,2.0331,2.0331,2.0392,0.0,2.0403,2.0415,2.1115,2.1949,2.2686,2.3578,2.4147,2.4015,2.4053,2.3813,2.3083,2.365,2.4097,2.4105,2.4827,2.5273,2.5273,2.5293,2.5293,2.5273,2.5348,2.5398,2.539,2.5524,2.5611,2.5609,2.5659,2.566,2.5601,2.5582,2.5564,2.5488,2.5567,2.5545,2.5482,2.5509,2.5486,2.5485,2.5616,2.5661,2.5661,2.5683,2.5539,2.5303,2.5303,2.5303,2.533,2.559,2.5661,2.5661,2.5683,2.5703,2.5703,2.5703,2.5703,2.5703,2.5703,2.5706,2.5695,2.5695,2.5697,2.5703,2.5703,2.5703,2.5634,2.5383,2.5339,2.5413,2.5658,2.5703,2.5703,2.5703,2.5703,2.5703,2.5703,2.5703,2.5703,2.5703,2.5703,2.5703,2.5703,2.5703,2.5703,2.5703,2.5703,2.5703,2.5703,2.5703,2.5693,2.5713,2.5474,2.5312,2.5303,2.5303,2.5303,2.5303,2.5303,2.5303,2.5303,2.5303,2.5303,1.1013,1.1746,0.0,0.0,1.6862,1.8876,2.0158,2.0465,2.0453,2.041,2.0431,2.0481,2.0487,2.1184,2.1849,2.2014,2.2733,2.3272,2.3243,2.3242,2.3184,2.3029,2.3191,2.3343,2.334,2.3501,2.3628,2.3628,2.3667,2.3667,2.3628,2.4206,2.4564,2.4563,2.5245,2.5638,2.5683,2.5643,2.5605,2.5601,2.5543,2.5495,2.5425,2.5495,2.5476,2.5425,2.5486,2.5447,2.5351,2.5363,2.5383,2.5413,2.5627,2.5539,2.5303,2.5303,2.5303,2.5303,2.5371,2.5383,2.5415,2.5633,2.5703,2.5703,2.5703,2.5703,2.5703,2.5703,2.5699,2.5705,2.5705,2.5698,2.5703,2.5703,2.5703,2.5683,2.5631,2.5607,2.5633,2.5683,2.5703,2.5703,2.5703,2.5703,2.5703,2.5703,2.5703,2.5703,2.5703,2.5703,2.5703,2.5703,2.5703,2.5703,2.5703,2.5703,2.5703,2.5703,2.5703,2.5702,2.5705,2.5646,2.5503,2.5293,2.5303,2.5303,2.5303,2.5303,2.5303,2.5303,2.5303,2.5303,1.0984,0.0,0.0,1.5427,0.0,1.92,2.0258,2.0523,2.0546,2.0506,2.0516,2.0558,2.0558,2.1253,2.1836,2.1816,2.2539,2.2943,2.2487,2.2444,2.2313,2.1903,2.2247,2.2532,2.2532,2.2873,2.3105,2.3105,2.3125,2.332,2.3691,2.4082,2.4489,2.4902,2.5336,2.556,2.5603,2.5568,2.5545,2.5505,2.5466,2.5428,2.5341,2.539,2.539,2.5341,2.539,2.537,2.5303,2.5303,2.5303,2.5313,2.5453,2.5415,2.5303,2.5303,2.5303,2.5303,2.5303,2.5303,2.5312,2.5465,2.5513,2.5513,2.5513,2.5513,2.5513,2.5513,2.5513,2.5539,2.5661,2.5703,2.5703,2.5703,2.5703,2.5703,2.5703,2.5703,2.5703,2.5703,2.5703,2.5703,2.5703,2.5703,2.5703,2.5703,2.5703,2.5703,2.5703,2.5703,2.5703,2.5703,2.5703,2.5703,2.5703,2.5703,2.5703,2.5703,2.5703,2.5703,2.5703,2.5703,2.5634,2.5479,2.5498,2.5498,2.5498,2.5498,2.5441,2.5303,2.5303,2.5303,1.0885,0.0,1.3576,1.601,1.7711,0.0,2.0246,2.0564,2.0604,2.0601,2.0605,2.0605,2.0605,2.1191,2.166,2.1602,2.2246,2.2483,2.169,2.1643,2.1406,2.0684,2.123,2.168,2.168,2.2285,2.2676,2.2676,2.2676,2.2988,2.3711,2.3824,2.4207,2.4918,2.5168,2.5296,2.5296,2.5413,2.5459,2.5409,2.534,2.5282,2.5222,2.5222,2.5243,2.5303,2.5303,2.5274,2.5224,2.5274,2.5303,2.5303,2.5303,2.5303,2.5303,2.5303,2.5303,2.5303,2.5303,2.5303,2.5303,2.5303,2.5303,2.5303,2.5303,2.5303,2.5303,2.5303,2.5303,2.5346,2.5564,2.5633,2.5633,2.5633,2.5633,2.5633,2.5633,2.5661,2.5703,2.5703,2.5703,2.5703,2.5703,2.5703,2.5703,2.5703,2.5703,2.5703,2.5703,2.5703,2.5703,2.5703,2.5703,2.5703,2.5703,2.5703,2.5703,2.5703,2.5703,2.5703,2.5703,2.5703,2.5703,2.5703,2.5703,2.5703,2.5703,2.5703,2.5558,2.5303,2.5303,2.5303,0.0,0.0,1.501,0.0,1.733,1.9388,0.0,0.0,2.0601,0.0,2.0605,2.0605,2.0605,2.0703,2.0762,2.0762,2.0879,2.0898,2.0774,2.0779,2.0723,2.0605,2.0703,2.0762,2.0762,2.0879,2.0937,2.0937,2.0937,2.0977,2.1094,2.1764,2.2191,2.2307,2.3704,2.4466,2.4466,2.5081,2.5399,2.5409,2.516,2.4981,2.4874,2.4874,2.5031,2.5303,2.5303,2.5163,2.4974,2.5203,2.5303,2.5303,2.5303,2.5303,2.5303,2.5303,2.5303,2.5303,2.5303,2.5303,2.5303,2.5303,2.5303,2.5303,2.5303,2.5303,2.5303,2.5303,2.5303,2.5303,2.5348,2.5346,2.5346,2.5346,2.5346,2.5346,2.5346,2.5539,2.5703,2.5703,2.5703,2.5703,2.5703,2.5703,2.5703,2.5703,2.5703,2.5703,2.5703,2.5703,2.5703,2.5703,2.5703,2.5703,2.5703,2.5703,2.5703,2.5703,2.5703,2.5703,2.5703,2.5703,2.5703,2.5703,2.5703,2.5703,2.5703,2.5703,2.5558,2.5303,2.5303,2.5303,1.09,1.2329,1.3656,0.0,1.617,1.7645,2.0056,0.0,1.9824,2.0469,2.0605,2.0605,2.0605,2.0605,2.0581,2.0546,2.0545,2.0527,2.0497,2.0522,2.0547,2.0547,2.0586,2.0598,2.0558,2.0545,2.0531,2.048,2.0482,2.0699,2.1186,2.152,2.1905,2.2403,2.3081,2.342,2.336,2.4126,2.4694,2.5069,2.4828,2.4756,2.4804,2.4685,2.4809,2.5122,2.5122,2.5034,2.4924,2.5,2.5126,2.5303,2.5303,2.5303,2.5303,2.5303,2.5303,2.5303,2.5303,2.5303,2.5303,2.5303,2.5303,2.5303,2.5303,2.5303,2.5303,2.5303,2.5303,2.5303,2.5303,2.5303,2.5303,2.5303,2.5303,2.5303,2.5303,2.5517,2.5703,2.5703,2.5703,2.5703,2.5703,2.5703,2.5703,2.5703,2.5703,2.5703,2.5703,2.5703,2.5703,2.5703,2.5703,2.5703,2.5703,2.5703,2.5703,2.5703,2.5703,2.5703,2.5703,2.5703,2.5703,2.5703,2.5703,2.5703,2.5703,2.5703,2.5636,2.5526,2.5371,2.5303,0.0,0.0,1.2084,1.3618,1.4676,1.6029,0.0,0.0,1.8964,0.0,2.0233,2.0315,2.0502,2.0554,2.0558,2.0502,2.0465,2.046,2.041,2.0435,2.0472,2.0463,2.0522,2.0533,2.0489,2.0477,2.0448,2.0395,2.04,2.0677,2.1328,2.1319,2.1545,2.2162,2.2334,2.2355,2.2231,2.3217,2.4049,2.4716,2.4559,2.4543,2.4639,2.4495,2.4588,2.4885,2.4924,2.4924,2.4872,2.4814,2.4883,2.5024,2.5024,2.5118,2.5303,2.5303,2.5303,2.5303,2.5303,2.5303,2.5303,2.5303,2.5303,2.5303,2.5303,2.5303,2.5303,2.5303,2.5303,2.5303,2.5303,2.5303,2.5303,2.5303,2.5303,2.5303,2.5303,2.5459,2.5601,2.5601,2.5601,2.5601,2.5601,2.5601,2.5629,2.5683,2.5703,2.5703,2.5703,2.5703,2.5703,2.5703,2.5703,2.5703,2.5703,2.5703,2.5703,2.5703,2.5703,2.5703,2.5703,2.5703,2.5703,2.5703,2.5703,2.5703,2.5703,2.5703,2.5703,2.5703,2.5499,2.537,0.0,1.0884,0.0,1.0641,1.295,0.0,0.0,0.0,1.829,1.9092,1.9273,1.951,2.0262,2.0454,2.0476,2.0424,2.0405,2.0389,2.0404,2.0392,2.0405,2.0406,2.0418,2.0414,2.0402,2.0418,2.0396,2.0404,2.0404,2.0423,2.0462,2.0389,2.0323,2.0259,2.0975,2.1314,2.1178,2.2735,2.385,2.4512,2.4512,2.441,2.4228,2.4228,2.4339,2.4545,2.4731,2.4818,2.4785,2.4804,2.4594,2.4247,2.4247,2.4678,2.5303,2.5303,2.5303,2.5303,2.5303,2.5303,2.5303,2.5303,2.5303,2.5303,2.5303,2.5303,2.5303,2.5303,2.5303,2.5303,2.5303,2.5303,2.5303,2.5303,2.5303,2.5303,2.5303,2.5313,2.5322,2.5322,2.5322,2.5322,2.5322,2.5322,2.5413,2.566,2.5703,2.5703,2.5703,2.5703,2.5703,2.5703,2.5703,2.5703,2.5703,2.5703,2.5703,2.5703,2.5703,2.5703,2.5703,2.5703,2.5703,2.5703,2.5703,2.5703,2.5703,2.5703,2.5703,2.5703,2.5693,2.5543,0.0,0.0,0.0,1.0337,1.23,1.4508,1.5223,1.6316,1.7389,1.8203,1.8821,1.9265,1.9516,2.0036,2.0412,2.034,2.0337,2.035,2.035,2.035,2.0335,2.0347,2.0373,2.0373,2.0334,2.033,2.035,2.035,2.035,2.028,2.0153,2.0115,2.005,1.9915,2.0191,2.0771,2.1676,2.2151,2.3058,2.4303,2.4097,2.4077,2.419,2.3976,2.4001,2.4192,2.4355,2.4512,2.4689,2.476,2.4559,2.419,2.419,2.4356,2.4648,2.5138,2.5012,2.4588,2.4588,2.4588,2.4588,2.4588,2.4917,2.5303,2.5303,2.5303,2.5303,2.5303,2.5303,2.5303,2.5303,2.5303,2.5303,2.5303,2.5303,2.5303,2.5303,2.5303,2.5303,2.5303,2.5303,2.5303,2.5303,2.5303,2.533,2.5421,2.5441,2.5441,2.5441,2.5441,2.5441,2.5441,2.5598,2.5703,2.5703,2.5703,2.5703,2.5703,2.5703,2.5703,2.5703,2.5703,2.5703,2.5703,2.5703,2.5703,2.5703,2.5703,2.5703,2.5703,2.5698,2.5652,0.9848,0.0,0.0,0.0,0.0,1.3255,1.4289,1.5199,1.6055,1.6868,1.7694,1.8367,1.8588,1.9338,2.0004,2.0254,2.0312,2.0312,2.0312,2.0312,2.0312,2.0312,2.035,2.035,2.0312,2.0241,2.0197,2.0197,2.0162,2.0069,1.9943,1.9924,1.9869,1.9738,1.9676,2.0224,2.147,2.1585,2.23,2.3633,2.3566,2.3649,2.3876,2.3631,2.3617,2.3731,2.3901,2.4117,2.4386,2.4524,2.4426,2.419,2.419,2.419,2.4247,2.4752,2.462,2.419,2.419,2.419,2.419,2.419,2.4524,2.493,2.493,2.5096,2.5303,2.5303,2.5303,2.5303,2.5303,2.5303,2.5303,2.5303,2.5303,2.5303,2.5303,2.5303,2.5303,2.5303,2.5303,2.5303,2.5303,2.5303,2.5303,2.5303,2.5303,2.5303,2.5303,2.5303,2.5303,2.5303,2.5543,2.5703,2.5703,2.5703,2.5703,2.5703,2.5703,2.5703,2.5703,2.5703,2.5703,2.5703,2.5703,2.5703,2.5703,2.5703,2.5703,2.5703,2.5703,2.5703,0.0,0.0,0.0,0.0,0.0,0.0,1.2588,0.0,1.4282,1.5093,1.5901,1.6702,1.7503,1.8376,1.9261,2.0111,2.0285,2.0312,2.0312,2.0312,2.0312,2.0312,2.0312,2.0304,2.0285,2.0115,2.0012,1.9984,1.988,1.9809,1.9778,1.9778,1.9713,1.9569,1.938,1.9677,2.0468,2.1025,2.1686,2.2497,2.2949,2.3189,2.3189,2.3189,2.3189,2.3189,2.3392,2.3645,2.3876,2.4097,2.417,2.4151,2.4151,2.417,2.419,2.419,2.419,2.419,2.419,2.419,2.419,2.419,2.419,2.419,2.419,2.4693,2.5264,2.5264,2.5264,2.5264,2.5264,2.5264,2.5264,2.5264,2.5264,2.5264,2.5264,2.5264,2.5264,2.5303,2.5303,2.5303,2.5303,2.5303,2.5303,2.5303,2.5303,2.5303,2.5303,2.5303,2.5303,2.5303,2.5535,2.5683,2.5703,2.5703,2.5703,2.5703,2.5703,2.5703,2.5703,2.5703,2.5703,2.5703,2.5703,2.5703,2.5703,2.5703,2.5703,2.5703,2.5703,2.5703,0.9979,0.0,0.0,0.0,0.0,0.0,0.0,0.0,1.3364,1.4137,1.4978,1.5786,1.6555,1.7442,1.8316,1.9098,1.983,2.0312,2.0312,2.0312,2.0312,2.0312,2.0312,2.0241,2.0106,2.0031,1.9973,1.9869,1.9813,1.9762,1.9656,1.9376,1.9113,1.8877,1.8825,1.9165,1.999,2.0662,2.1405,2.2206,2.2628,2.2972,2.3189,2.2947,2.2898,2.2989,2.3206,2.3069,2.2822,2.3795,2.3664,2.2833,2.2833,2.3399,2.419,2.419,2.419,2.419,2.419,2.419,2.419,2.419,2.419,2.419,2.419,2.4339,2.451,2.451,2.451,2.451,2.451,2.451,2.451,2.451,2.451,2.451,2.451,2.451,2.4648,2.5192,2.5303,2.5303,2.5303,2.5303,2.5303,2.5303,2.5303,2.5303,2.5303,2.5303,2.5303,2.5303,2.5371,2.5493,2.5683,2.5703,2.5703,2.5703,2.5703,2.5703,2.5703,2.5703,2.5703,2.5703,2.5703,2.5703,2.5703,2.5703,2.5703,2.5703,2.5703,2.5703,1.0116,0.0,0.0,0.0,0.0,0.0,1.1439,1.1896,1.235,1.2732,1.3503,1.4322,1.5042,1.5918,1.6781,1.7555,1.8753,1.9752,2.0238,2.0312,2.0277,2.0169,2.0169,2.0106,1.9933,1.9869,1.979,1.9713,1.9553,1.9387,1.9193,1.8965,1.877,1.8604,1.8585,1.8834,1.9279,1.9917,2.0627,2.1417,2.1848,2.2332,2.2824,2.2616,2.2581,2.2677,2.2773,2.2607,2.2366,2.3116,2.2968,2.231,2.231,2.2756,2.3422,2.3422,2.3422,2.3491,2.4014,2.419,2.419,2.419,2.419,2.419,2.419,2.419,2.419,2.419,2.419,2.419,2.419,2.419,2.419,2.419,2.419,2.419,2.419,2.419,2.4426,2.516,2.5303,2.5303,2.5303,2.5303,2.5303,2.5303,2.5303,2.5303,2.5303,2.5303,2.5303,2.5303,2.5303,2.5363,2.5526,2.5634,2.5703,2.5703,2.5703,2.5703,2.5703,2.5703,2.5703,2.5703,2.5703,2.5703,2.5703,2.5703,2.5703,2.5703,2.5703,2.6484,1.0641,1.0474,0.0,1.1327,1.1035,0.0,1.1239,1.1438,1.1462,1.133,1.1921,1.2655,1.3338,1.4087,1.489,1.5677,1.715,1.864,1.9945,2.0203,2.0188,2.0022,1.9993,1.9933,1.9797,1.9669,1.9569,1.9527,1.9166,1.8825,1.8566,1.8547,1.8547,1.8508,1.8508,1.8508,1.8508,1.9017,1.9573,2.0239,2.0858,2.1478,2.2091,2.2147,2.2209,2.231,2.231,2.231,2.231,2.231,2.231,2.231,2.231,2.231,2.231,2.231,2.231,2.2443,2.3602,2.3994,2.3994,2.3994,2.4074,2.419,2.419,2.419,2.419,2.419,2.419,2.419,2.419,2.419,2.419,2.419,2.419,2.419,2.419,2.419,2.4392,2.5049,2.5182,2.5192,2.5293,2.5303,2.5303,2.5303,2.5303,2.5303,2.5303,2.5303,2.5303,2.5303,2.5303,2.5303,2.5303,2.5522,2.5659,2.5659,2.5659,2.5662,2.5703,2.5703,2.5703,2.5703,2.5703,2.5703,2.5703,2.5703,2.5703,2.5703,2.5703,2.7578,1.2627,1.2459,1.209,1.1626,1.1908,0.0,1.0734,1.0999,1.1462,1.133,1.1444,1.1761,1.2425,1.2734,1.3134,1.3883,1.4914,1.6438,1.8769,1.9563,1.9912,1.9984,1.9893,1.9797,1.9643,1.9609,1.9471,1.9134,1.8825,1.8566,1.829,1.827,1.8166,1.7971,1.7949,1.7949,1.7949,1.8637,1.9056,1.9185,2.016,2.0721,2.0858,2.1124,2.1631,2.231,2.231,2.231,2.231,2.231,2.231,2.231,2.231,2.231,2.231,2.231,2.231,2.2338,2.2588,2.2668,2.2668,2.2668,2.3359,2.419,2.419,2.419,2.419,2.419,2.419,2.419,2.419,2.419,2.419,2.419,2.419,2.419,2.419,2.419,2.4228,2.4392,2.4409,2.4604,2.5192,2.5303,2.5303,2.5303,2.5303,2.5303,2.5303,2.5303,2.5303,2.5303,2.5303,2.5303,2.5303,2.5357,2.5387,2.5387,2.5387,2.5463,2.5683,2.5703,2.5703,2.5703,2.5703,2.5703,2.5703,2.5703,2.5703,2.5703,2.5703,2.7578,1.3349,1.3061,1.2589,1.22,1.2121,0.0,0.0,1.0837,1.0917,1.1141,1.0876,1.0923,1.199,1.223,1.2497,1.3272,1.4463,1.5627,1.6526,1.7783,1.8596,1.8596,1.877,1.888,1.886,1.9129,1.9166,1.8825,1.8547,1.829,1.8014,1.8014,1.7949,1.7811,1.7811,1.7811,1.7811,1.8011,1.8308,1.8651,1.9361,1.9877,2.0251,2.092,2.1354,2.1691,2.2106,2.1811,2.1055,2.1945,2.231,2.231,2.231,2.231,2.231,2.231,2.231,2.231,2.231,2.231,2.231,2.231,2.273,2.3242,2.3242,2.3707,2.419,2.419,2.419,2.419,2.419,2.419,2.419,2.419,2.419,2.419,2.419,2.419,2.419,2.419,2.419,2.4321,2.4678,2.5061,2.5303,2.5303,2.5303,2.5303,2.5303,2.5303,2.5303,2.5303,2.5303,2.5303,2.5303,2.5303,2.5303,2.5303,2.5303,2.5354,2.5484,2.5508,2.5508,2.5508,2.5508,2.5561,2.5703,2.5703,2.5703,2.5742,2.748,2.9238,1.4111,1.3857,1.3558,1.3054,1.2589,1.2033,0.0,0.0,0.0,1.1043,1.0716,1.0726,1.1893,1.1966,1.2076,1.2729,1.4018,1.4671,1.3877,1.5353,1.6603,1.6846,1.7362,1.7698,1.7771,1.8041,1.8235,1.83,1.7942,1.7637,1.7485,1.7682,1.7766,1.7704,1.7704,1.7704,1.7704,1.7368,1.7494,1.8084,1.8535,1.9095,1.9684,2.0638,2.0959,2.0797,2.1493,2.0991,1.9818,2.1229,2.1781,2.1827,2.218,2.231,2.231,2.231,2.231,2.231,2.231,2.231,2.231,2.231,2.231,2.231,2.231,2.3017,2.3894,2.4132,2.419,2.419,2.419,2.419,2.419,2.419,2.419,2.419,2.419,2.419,2.419,2.419,2.419,2.419,2.419,2.4693,2.5149,2.5274,2.5303,2.5303,2.5303,2.5303,2.5303,2.5303,2.5303,2.5303,2.5303,2.5303,2.5303,2.5303,2.5303,2.5303,2.5303,2.5303,2.5303,2.5303,2.5303,2.5413,2.5611,2.5611,2.599,2.6777,2.959,3.0898,1.6314,1.6539,1.6599,1.4319,1.4313,1.4058,1.0949,0.0,1.2175,1.1276,0.0,1.211,1.2105,0.0,0.0,1.115,1.1776,1.1974,1.1237,1.2392,1.3912,1.5501,1.6222,1.659,1.659,1.5862,1.5906,1.7159,1.6424,1.6038,1.6369,1.7283,1.7658,1.7368,1.7368,1.7368,1.7368,1.7027,1.6914,1.6995,1.7869,1.83,1.8424,1.9421,1.9889,1.9854,1.9945,1.9889,1.9726,1.9909,1.998,2.0154,2.1691,2.231,2.231,2.231,2.231,2.231,2.231,2.231,2.231,2.231,2.231,2.231,2.231,2.2405,2.2756,2.3894,2.419,2.419,2.419,2.419,2.419,2.419,2.419,2.419,2.419,2.419,2.419,2.419,2.419,2.419,2.419,2.4266,2.454,2.5192,2.5303,2.5303,2.5303,2.5303,2.5303,2.5303,2.5303,2.5303,2.5303,2.5303,2.5303,2.5303,2.5303,2.5303,2.5303,2.5303,2.5303,2.5303,2.5303,2.5313,2.5348,2.5348,2.7062,3.0312,3.0723,3.0898,1.6281,1.6809,1.7005,1.5021,1.4456,1.3754,1.1397,1.1355,1.1822,1.1796,0.0,0.0,0.0,0.0,0.0,0.0,1.1691,1.1535,1.06,1.1411,1.2394,1.3197,1.3796,1.4434,1.521,1.4951,1.5089,1.5928,1.5095,1.4965,1.5915,1.6397,1.6757,1.6986,1.7002,1.7002,1.7002,1.6686,1.6501,1.6517,1.7057,1.7394,1.7607,1.906,1.969,1.969,1.969,1.969,1.969,1.969,1.969,1.9782,2.0514,2.0797,2.0894,2.1915,2.231,2.231,2.231,2.231,2.231,2.231,2.231,2.231,2.231,2.231,2.2579,2.3834,2.419,2.4034,2.3307,2.3664,2.419,2.419,2.419,2.419,2.419,2.419,2.419,2.419,2.419,2.419,2.419,2.419,2.4321,2.462,2.5037,2.5303,2.5303,2.5303,2.5303,2.5303,2.5303,2.5303,2.5303,2.5303,2.5303,2.5303,2.5303,2.5303,2.5303,2.5303,2.5303,2.5303,2.5303,2.5303,2.5303,2.7283,2.9072,3.0607,3.0804,3.0799,1.6548,1.7146,1.73,1.5357,1.4392,1.3471,1.1725,1.159,1.2,1.2507,1.2936,0.0,0.0,0.0,0.0,0.0,0.0,1.1326,1.0138,1.0662,1.117,1.1218,1.1751,1.2581,1.3769,1.353,1.365,1.4535,1.374,1.3843,1.5288,1.5639,1.6063,1.6644,1.6659,1.6659,1.6659,1.6328,1.6108,1.5981,1.6338,1.666,1.6927,1.8847,1.969,1.969,1.969,1.969,1.969,1.969,1.969,1.969,1.969,1.969,1.9854,2.1134,2.1584,2.1661,2.2135,2.231,2.231,2.231,2.231,2.231,2.231,2.231,2.2497,2.3422,2.3685,2.3468,2.2552,2.2993,2.3771,2.4132,2.419,2.419,2.419,2.419,2.419,2.419,2.419,2.419,2.419,2.419,2.419,2.419,2.4666,2.5072,2.5264,2.5303,2.5303,2.5303,2.5303,2.5303,2.5303,2.5303,2.5303,2.5303,2.5303,2.5303,2.5303,2.5303,2.5303,2.5303,2.6226,2.6687,2.6687,2.9187,3.0398,3.041,3.0645,3.0626,1.7921,1.8339,1.8231,1.5262,1.4497,1.3877,1.1621,1.2365,1.3499,1.3393,1.4648,1.5507,1.4614,0.0,0.0,0.0,0.0,0.0,0.0,0.9663,1.006,1.006,1.0703,1.1466,1.228,1.0887,1.0819,1.2914,1.2196,1.2431,1.4154,1.5257,1.5964,1.6297,1.6328,1.6328,1.6328,1.5983,1.558,1.5134,1.5814,1.6153,1.6298,1.8658,1.969,1.969,1.969,1.969,1.969,1.969,1.969,1.969,1.969,1.969,1.9726,1.9747,1.9782,2.0015,2.1721,2.231,2.231,2.231,2.231,2.231,2.231,2.231,2.231,2.2349,2.2349,2.2349,2.231,2.2338,2.2668,2.3915,2.419,2.419,2.419,2.419,2.419,2.419,2.419,2.419,2.419,2.419,2.419,2.419,2.4228,2.4493,2.5222,2.5303,2.5303,2.5303,2.5303,2.5303,2.5303,2.5303,2.5303,2.5303,2.5303,2.5303,2.5303,2.5303,2.5303,2.5303,2.8552,3.0244,3.0244,3.034,3.0398,3.0398,3.0402,3.0402,1.7557,1.8126,1.825,1.6193,1.4913,1.3835,1.2584,1.252,1.2789,1.2966,1.3912,1.4584,1.4177,0.0,0.0,0.0,0.0,0.0,0.0,0.0,0.9316,0.9389,0.0,0.0,0.0,0.9959,1.0189,1.163,1.0961,1.13,1.3167,1.4032,1.4745,1.5273,1.5728,1.5983,1.5983,1.5536,1.5472,1.569,1.56,1.5398,1.5151,1.7372,1.8867,1.969,1.969,1.969,1.969,1.969,1.969,1.969,1.969,1.969,1.969,1.969,1.969,1.9945,2.1691,2.231,2.231,2.231,2.231,2.231,2.231,2.231,2.231,2.231,2.231,2.231,2.231,2.231,2.2405,2.2859,2.2943,2.317,2.4014,2.419,2.419,2.419,2.419,2.419,2.419,2.419,2.419,2.419,2.419,2.4303,2.454,2.4572,2.4752,2.5253,2.5303,2.5303,2.5303,2.5303,2.5303,2.5303,2.5303,2.5303,2.5303,2.5303,2.636,2.8629,2.9802,3.0398,3.0398,3.0398,3.0398,3.0398,3.0398,3.0398,1.7147,1.7569,1.7611,1.6123,1.5021,1.4033,1.3106,1.2924,1.2992,1.322,1.3766,1.4192,1.411,0.0,0.0,0.0,0.0,0.0,0.0,0.9196,0.8936,0.0,0.0,0.0,0.0,0.9165,0.9558,1.0669,1.0224,1.0743,1.2696,1.3436,1.4109,1.4767,1.5297,1.5551,1.5551,1.5289,1.5272,1.5533,1.5414,1.5111,1.4707,1.609,1.7362,1.8574,1.8574,1.8574,1.8574,1.8968,1.9369,1.969,1.969,1.969,1.969,1.969,1.969,1.9854,2.1007,2.1781,2.231,2.231,2.231,2.231,2.231,2.231,2.231,2.231,2.231,2.231,2.231,2.231,2.231,2.231,2.231,2.2525,2.3353,2.3894,2.419,2.419,2.419,2.419,2.419,2.419,2.419,2.419,2.419,2.419,2.419,2.419,2.4476,2.5233,2.5303,2.5303,2.5303,2.5303,2.5303,2.5303,2.5303,2.5303,2.5303,2.5303,2.6899,3.0321,3.0398,3.0398,3.0398,3.0398,3.0398,3.0398,3.0398,3.0398]},{"header":{"parameterUnit":"m.s-1","parameterCategory":1,"la1":30.6,"la2":29.2853,"lo1":-89.7004,"lo2":-87.6739,"dy":0.0162,"dx":0.0183,"nx":112,"ny":82,"refTime":"2024-06-14T18:00:00:Z","depth":0,"parameterNumber":3,"parameterNumberName":"V-component_of_WINDS"},"data":[0.0,0.0,0.0,0.0,0.0,0.0,0.0,0.0,0.0,0.0,0.0,0.0,0.0,0.0,0.0,0.0,0.0,0.0,0.0,0.0,0.0,0.0,0.0,0.0,0.0,0.0,0.0,0.0,0.0,0.0,0.0,0.0,0.0,0.0,0.0,0.0,0.0,0.0,0.0,0.0,0.0,0.0,0.0,0.0,0.0,0.0,0.0,0.0,0.0,0.0,0.0,0.0,0.0,0.0,0.0,0.0,0.0,0.0,0.0,0.0,0.0,0.0,0.0,0.0,0.0,0.0,0.0,0.0,0.0,0.0,0.0,0.0,0.0,0.0,0.0,0.0,0.0,0.0,0.0,0.0,0.0,0.0,0.0,0.0,0.0,0.0,0.0,0.0,0.0,0.0,-0.9687,-0.9633,-0.9788,-0.975,-0.9343,-0.8981,-0.8443,-0.76,0.0,0.0,0.0,0.0,0.0,0.0,0.0,0.0,0.0,0.0,0.0,0.0,0.0,0.0,0.0,0.0,0.0,0.0,0.0,0.0,0.0,0.0,0.0,0.0,0.0,0.0,0.0,0.0,0.0,0.0,0.0,0.0,0.0,0.0,0.0,0.0,0.0,0.0,0.0,0.0,0.0,0.0,0.0,0.0,0.0,0.0,0.0,0.0,0.0,0.0,0.0,0.0,0.0,0.0,0.0,0.0,0.0,0.0,0.0,0.0,0.0,0.0,0.0,0.0,0.0,0.0,0.0,0.0,0.0,0.0,0.0,0.0,0.0,0.0,0.0,0.0,0.0,0.0,0.0,0.0,0.0,0.0,0.0,0.0,0.0,0.0,0.0,0.0,0.0,0.0,0.0,0.0,0.0,0.0,0.0,0.0,0.0,0.0,0.0,0.0,0.0,0.0,0.0,0.0,-1.0386,-1.0641,-1.0205,-0.9633,-0.8953,-0.8844,-0.826,-0.7018,0.0,0.0,0.0,0.0,0.0,0.0,0.0,0.0,0.0,0.0,0.0,0.0,0.0,0.0,0.0,0.0,0.0,0.0,0.0,0.0,0.0,0.0,0.0,0.0,0.0,0.0,0.0,0.0,0.0,0.0,0.0,0.0,0.0,0.0,0.0,0.0,0.0,0.0,0.0,0.0,0.0,0.0,0.0,0.0,0.0,0.0,0.0,0.0,0.0,0.0,0.0,0.0,0.0,0.0,0.0,0.0,0.0,0.0,0.0,0.0,0.0,0.0,0.0,0.0,0.0,0.0,0.0,0.0,0.0,0.0,0.0,0.0,0.0,0.0,0.0,0.0,0.0,0.0,0.0,0.0,0.0,0.0,0.0,0.0,0.0,0.0,0.0,0.0,0.0,0.0,0.0,0.0,0.0,0.0,0.0,0.0,0.0,0.0,0.0,0.0,0.0,0.0,0.0,-0.9582,-0.9976,-1.0579,-1.0198,-0.9686,-0.9182,-0.8926,-0.8365,-0.7359,-0.7118,0.0,0.0,0.0,0.0,0.0,0.0,0.0,0.0,0.0,0.0,0.0,0.0,0.0,0.0,0.0,0.0,0.0,0.0,0.0,0.0,0.0,0.0,0.0,0.0,0.0,0.0,0.0,0.0,0.0,0.0,0.0,0.0,0.0,0.0,0.0,0.0,0.0,0.0,0.0,0.0,0.0,0.0,0.0,0.0,0.0,0.0,0.0,0.0,0.0,0.0,0.0,0.0,0.0,0.0,0.0,0.0,0.0,0.0,0.0,0.0,0.0,0.0,0.0,0.0,0.0,0.0,0.0,0.0,0.0,0.0,0.0,0.0,0.0,0.0,0.0,0.0,0.0,0.0,0.0,0.0,0.0,0.0,0.0,0.0,0.0,0.0,0.0,0.0,0.0,0.0,0.0,0.0,0.0,0.0,0.0,0.0,0.0,0.0,0.0,0.0,0.0,0.0,-0.9594,-0.964,-1.0339,-1.0084,-0.9776,-0.9434,-0.8985,-0.8447,-0.7746,-0.7349,0.0,0.0,0.0,0.0,0.0,0.0,0.0,0.0,0.0,0.0,0.0,0.0,0.0,0.0,0.0,0.0,0.0,0.0,0.0,0.0,0.0,0.0,0.0,0.0,0.0,0.0,0.0,0.0,0.0,0.0,0.0,0.0,0.0,0.0,0.0,0.0,0.0,0.0,0.0,0.0,0.0,0.0,0.0,0.0,0.0,0.0,0.0,0.0,0.0,0.0,0.0,0.0,0.0,0.0,0.0,0.0,0.0,0.0,0.0,0.0,0.0,0.0,0.0,0.0,0.0,0.0,0.0,0.0,0.0,0.0,0.0,0.0,0.0,0.0,0.0,0.0,0.0,0.0,0.0,0.0,0.0,0.0,0.0,0.0,0.0,0.0,0.0,0.0,0.0,0.0,0.0,0.0,0.0,0.0,0.0,0.0,0.0,0.0,0.0,0.0,0.0,0.0,-0.9867,-1.0003,-1.0354,-1.0084,-0.9776,-0.9434,-0.8855,-0.8275,-0.7722,-0.7201,0.0,0.0,0.0,0.0,0.0,0.0,0.0,0.0,0.0,0.0,0.0,0.0,0.0,0.0,0.0,0.0,0.0,0.0,0.0,0.0,0.0,0.0,0.0,0.0,0.0,0.0,0.0,0.0,0.0,0.0,0.0,0.0,0.0,0.0,0.0,0.0,0.0,0.0,0.0,0.0,0.0,0.0,0.0,0.0,0.0,0.0,0.0,0.0,0.0,0.0,0.0,0.0,0.0,0.0,0.0,0.0,0.0,0.0,0.0,0.0,0.0,0.0,0.0,0.0,0.0,0.0,0.0,0.0,0.0,0.0,0.0,0.0,0.0,0.0,0.0,0.0,0.0,0.0,0.0,0.0,0.0,0.0,0.0,0.0,0.0,0.0,0.0,0.0,0.0,0.0,0.0,0.0,0.0,0.0,0.0,0.0,0.0,0.0,0.0,0.0,0.0,0.0,-0.9592,-0.9715,0.0,-0.997,-0.9776,-0.9434,-0.8969,-0.8417,-0.7746,0.0,0.0,0.0,0.0,0.0,0.0,0.0,0.0,0.0,0.0,0.0,0.0,0.0,0.0,0.0,0.0,0.0,0.0,0.0,0.0,0.0,0.0,0.0,0.0,0.0,0.0,0.0,0.0,0.0,0.0,0.0,0.0,0.0,0.0,0.0,0.0,0.0,0.0,0.0,0.0,0.0,0.0,0.0,0.0,0.0,0.0,0.0,0.0,0.0,0.0,0.0,0.0,0.0,0.0,0.0,0.0,0.0,0.0,0.0,0.0,0.0,0.0,0.0,0.0,0.0,0.0,0.0,0.0,0.0,0.0,0.0,0.0,0.0,0.0,0.0,0.0,0.0,0.0,0.0,0.0,0.0,0.0,0.0,0.0,0.0,0.0,0.0,0.0,0.0,0.0,0.0,0.0,0.0,0.0,0.0,0.0,0.0,0.0,0.0,0.0,0.0,0.0,-0.9321,-0.9559,-0.9758,0.0,-0.9905,-0.9776,-0.9434,-0.8965,-0.8426,-0.7746,0.0,0.0,0.0,0.0,0.0,0.0,0.0,0.0,0.0,0.0,0.0,0.0,0.0,0.0,0.0,0.0,0.0,0.0,0.0,0.0,0.0,0.0,0.0,0.0,0.0,0.0,0.0,0.0,0.0,0.0,0.0,0.0,0.0,0.0,0.0,0.0,0.0,0.0,0.0,0.0,0.0,0.0,0.0,0.0,0.0,0.0,0.0,0.0,0.0,0.0,0.0,0.0,0.0,0.0,0.0,0.0,0.0,0.0,0.0,0.0,0.0,0.0,0.0,0.0,0.0,0.0,0.0,0.0,0.0,0.0,0.0,0.0,0.0,0.0,0.0,0.0,0.0,0.0,0.0,0.0,0.0,0.0,0.0,0.0,0.0,0.0,0.0,0.0,0.0,0.0,0.0,0.0,0.0,0.0,0.0,0.0,0.0,0.0,0.0,0.0,0.0,0.0,-0.9237,-0.9904,-1.0285,-0.9944,-0.9905,-0.9776,-0.9422,-0.8856,-0.8264,0.0,0.0,0.0,0.0,0.0,0.0,0.0,0.0,0.0,0.0,0.0,0.0,0.0,0.0,0.0,0.0,0.0,0.0,0.0,0.0,0.0,0.0,0.0,0.0,0.0,0.0,0.0,0.0,0.0,0.0,0.0,0.0,0.0,0.0,0.0,0.0,0.0,0.0,0.0,0.0,0.0,0.0,0.0,0.0,0.0,0.0,0.0,0.0,0.0,0.0,0.0,0.0,0.0,0.0,0.0,0.0,0.0,0.0,0.0,0.0,0.0,0.0,0.0,0.0,0.0,0.0,0.0,0.0,0.0,0.0,0.0,0.0,0.0,0.0,0.0,0.0,0.0,0.0,0.0,0.0,0.0,0.0,0.0,0.0,0.0,0.0,0.0,0.0,0.0,0.0,0.0,0.0,0.0,0.0,0.0,0.0,0.0,0.0,0.0,0.0,0.0,0.0,0.0,-0.9208,-0.9705,-1.0021,-0.9905,-0.9905,-0.9841,-0.9764,-0.8868,-0.8167,-0.7846,0.0,0.0,0.0,0.0,0.0,0.0,0.0,0.0,0.0,0.0,0.0,0.0,0.0,0.0,0.0,0.0,0.0,0.0,0.0,0.0,0.0,0.0,0.0,0.0,0.0,0.0,0.0,0.0,0.0,0.0,0.0,0.0,0.0,0.0,0.0,0.0,0.0,0.0,0.0,0.0,0.0,0.0,0.0,0.0,0.0,0.0,0.0,0.0,0.0,0.0,0.0,0.0,0.0,0.0,0.0,0.0,0.0,0.0,0.0,0.0,0.0,0.0,0.0,0.0,0.0,0.0,0.0,0.0,0.0,0.0,0.0,0.0,0.0,0.0,0.0,0.0,0.0,0.0,0.0,0.0,0.0,0.0,0.0,0.0,0.0,0.0,0.0,0.0,0.0,0.0,0.0,0.0,0.0,0.0,0.0,0.0,0.0,0.0,0.0,0.0,0.0,0.0,-0.8947,-0.951,-0.9905,-0.9905,-0.9905,-0.979,-0.949,-0.8838,-0.8164,-0.7508,0.0,0.0,0.0,0.0,0.0,0.0,0.0,0.0,0.0,0.0,0.0,0.0,0.0,0.0,0.0,0.0,0.0,0.0,0.0,0.0,0.0,0.0,0.0,0.0,0.0,0.0,0.0,0.0,0.0,0.0,0.0,0.0,0.0,0.0,0.0,0.0,0.0,0.0,0.0,0.0,0.0,0.0,0.0,0.0,0.0,0.0,0.0,0.0,0.0,0.0,0.0,0.0,0.0,0.0,0.0,0.0,0.0,0.0,0.0,0.0,0.0,0.0,0.0,0.0,0.0,0.0,0.0,0.0,0.0,0.0,0.0,0.0,0.0,0.0,0.0,0.0,0.0,0.0,0.0,0.0,0.0,0.0,0.0,0.0,0.0,0.0,0.0,0.0,0.0,0.0,0.0,0.0,0.0,0.0,0.0,0.0,0.0,0.0,0.0,0.0,0.0,0.0,-0.8594,-0.9358,-0.9905,-0.9905,-0.9905,-0.9607,-0.8926,-0.8799,-0.82,-0.691,0.0,0.0,0.0,0.0,0.0,0.0,0.0,0.0,0.0,0.0,0.0,0.0,0.0,0.0,0.0,0.0,0.0,0.0,0.0,0.0,0.0,0.0,0.0,0.0,0.0,0.0,0.0,0.0,0.0,0.0,0.0,0.0,0.0,0.0,0.0,0.0,0.0,0.0,0.0,0.0,0.0,0.0,0.0,0.0,0.0,0.0,0.0,0.0,0.0,0.0,0.0,0.0,0.0,0.0,0.0,0.0,0.0,0.0,0.0,0.0,-0.5108,-0.5108,0.0,0.0,0.0,0.0,0.0,0.0,0.0,0.0,0.0,0.0,0.0,0.0,0.0,0.0,0.0,0.0,0.0,0.0,0.0,0.0,0.0,0.0,0.0,0.0,0.0,0.0,0.0,0.0,0.0,0.0,0.0,0.0,0.0,0.0,0.0,0.0,0.0,0.0,0.0,0.0,-0.8594,-0.9358,-0.9905,-0.9905,-0.9905,-0.9738,-0.9316,-0.869,-0.7924,-0.7018,-0.6002,0.0,0.0,0.0,0.0,0.0,0.0,0.0,0.0,0.0,0.0,0.0,0.0,0.0,0.0,0.0,0.0,0.0,0.0,0.0,0.0,0.0,0.0,0.0,0.0,0.0,0.0,0.0,0.0,0.0,0.0,0.0,0.0,0.0,0.0,0.0,0.0,0.0,0.0,0.0,0.0,0.0,0.0,0.0,0.0,0.0,0.0,0.0,0.0,0.0,0.0,0.0,0.0,0.0,0.0,0.0,0.0,0.0,0.0,0.0,-0.5468,-0.5584,0.0,0.0,0.0,0.0,0.0,0.0,0.0,0.0,0.0,0.0,0.0,0.0,0.0,0.0,0.0,0.0,0.0,0.0,0.0,0.0,0.0,0.0,0.0,0.0,0.0,0.0,0.0,0.0,0.0,0.0,0.0,0.0,0.0,0.0,0.0,0.0,0.0,0.0,0.0,0.0,-0.8465,-0.9527,-1.0268,-1.0268,-1.0133,-0.9876,-0.9515,-0.8727,-0.7919,-0.7107,-0.6274,0.0,0.0,0.0,0.0,0.0,0.0,0.0,0.0,0.0,0.0,0.0,0.0,0.0,0.0,0.0,0.0,0.0,0.0,0.0,0.0,0.0,0.0,0.0,0.0,0.0,0.0,0.0,0.0,0.0,0.0,0.0,0.0,0.0,0.0,0.0,0.0,0.0,0.0,0.0,0.0,0.0,0.0,0.0,0.0,0.0,0.0,0.0,0.0,0.0,0.0,0.0,0.0,0.0,-1.0483,-1.0483,-1.0428,-0.9215,-0.8672,-0.8589,-0.7126,-0.696,-0.7588,-0.6149,0.0,0.0,0.0,0.0,0.0,0.0,0.0,0.0,0.0,0.0,0.0,0.0,0.0,0.0,0.0,0.0,0.0,0.0,0.0,0.0,0.0,0.0,-0.9828,-0.9145,-0.9004,-0.8682,-0.75,0.0,0.0,0.0,0.0,0.0,0.0,0.0,0.0,0.0,0.0,0.0,-0.8438,-0.965,-1.0534,-1.0591,-1.0288,-0.991,-0.9515,-0.8746,-0.7962,-0.7156,-0.6738,-0.6143,0.0,0.0,0.0,0.0,0.0,0.0,0.0,0.0,0.0,0.0,0.0,0.0,0.0,0.0,0.0,0.0,0.0,0.0,0.0,0.0,0.0,0.0,0.0,0.0,0.0,0.0,0.0,0.0,0.0,0.0,0.0,0.0,-0.6208,-0.6561,0.0,0.0,0.0,0.0,0.0,0.0,0.0,0.0,0.0,0.0,0.0,0.0,0.0,-0.9466,-0.9466,-0.9466,-1.0596,-1.276,-1.276,-1.276,-1.276,-1.2546,-1.2479,-1.2467,-1.2238,0.0,-0.7676,-0.7452,0.0,0.0,0.0,0.0,0.0,0.0,0.0,0.0,0.0,0.0,0.0,0.0,0.0,0.0,0.0,0.0,0.0,0.0,0.0,0.0,0.0,0.0,-0.8848,-0.8979,-0.9004,-0.8955,-0.876,-0.8224,-0.7616,-0.7084,-0.6651,-0.6242,0.0,0.0,0.0,0.0,0.0,0.0,-0.8933,-0.943,-0.9784,-1.0138,-0.9844,-0.9436,-0.9013,-0.8571,-0.7962,-0.7156,-0.7041,-0.6611,-0.5754,-0.5279,0.0,0.0,0.0,0.0,0.0,0.0,0.0,0.0,0.0,0.0,0.0,0.0,0.0,0.0,0.0,0.0,0.0,0.0,0.0,0.0,0.0,0.0,0.0,0.0,0.0,0.0,0.0,0.0,0.0,-0.5564,-0.677,-0.8268,-0.735,-0.6599,0.0,0.0,0.0,0.0,0.0,0.0,0.0,0.0,0.0,-0.8462,-1.0608,-1.1745,-1.1745,-1.1745,-1.2234,-1.3198,-1.3198,-1.3198,-1.3198,-1.3198,-1.3198,-1.3198,-1.3198,-1.2289,-1.0713,-0.962,-0.8145,-0.6567,0.0,0.0,0.0,0.0,-0.6207,-0.7725,-0.7959,-0.8052,-0.793,-0.6958,0.0,0.0,0.0,0.0,0.0,0.0,0.0,-0.4952,-0.6863,-0.8808,-1.0141,-0.9441,-0.9667,-1.001,-0.9775,-0.9238,-0.8571,-0.7949,-0.7842,-0.75,-0.6338,-0.6552,0.0,0.0,0.0,-0.8234,-0.8804,-0.9694,-1.0354,-1.0532,-1.0211,-0.982,-0.9403,-0.8726,-0.8079,-0.748,-0.7164,-0.6812,-0.6438,-0.5584,-0.4942,0.0,0.0,0.0,0.0,0.0,0.0,0.0,0.0,0.0,0.0,0.0,0.0,0.0,0.0,0.0,0.0,0.0,0.0,0.0,0.0,0.0,0.0,0.0,0.0,0.0,0.0,0.0,0.0,-0.6041,-0.7086,-0.9092,-0.7985,-0.6912,0.0,0.0,0.0,0.0,0.0,0.0,-0.9818,-1.0445,-1.0747,-1.0747,-1.2334,-1.3198,-1.3198,-1.3198,-1.3198,-1.321,-1.3774,-1.4037,-1.4037,-1.4037,-1.4037,-1.4,-1.338,-1.3456,-1.3877,-1.189,-0.9975,-0.8347,-0.8347,-0.8347,-0.8223,-0.6898,-0.7238,-0.8564,-0.9844,-1.0283,-1.0078,-0.8799,-0.7739,-0.6677,-0.5005,0.0,0.0,0.0,0.0,-0.6101,-0.7755,-0.9675,-1.0988,-1.0219,-1.0552,-1.0986,-1.0714,-1.0469,-1.0019,-0.892,-0.8867,-0.8564,-0.7148,-0.734,0.0,-0.6959,-0.784,-0.8656,-0.898,-0.9906,-1.0605,-1.0734,-1.04,-1.0019,-0.9553,-0.8872,-0.8234,-0.7724,-0.7329,-0.7017,-0.6794,-0.6143,-0.5496,-0.4898,0.0,0.0,0.0,0.0,0.0,0.0,0.0,0.0,0.0,0.0,0.0,0.0,0.0,0.0,0.0,0.0,0.0,0.0,0.0,0.0,0.0,0.0,0.0,0.0,0.0,0.0,0.0,0.0,0.0,-0.7789,-0.806,0.0,0.0,0.0,0.0,-0.9579,-0.973,-0.978,-0.9893,-1.1883,-1.3035,-1.3035,-1.3135,-1.3198,-1.3198,-1.3198,-1.3198,-1.3223,-1.5314,-1.6346,-1.6346,-1.6346,-1.6346,-1.6218,-1.3921,-1.4244,-1.6153,-1.3939,-1.1913,-1.0156,-1.0156,-1.0156,-1.0146,-1.0059,-1.0078,-1.0166,-1.0254,-1.0283,-1.0273,-1.0186,-0.8713,-0.6979,-0.6852,-0.6816,0.0,0.0,-0.6934,-0.7608,-1.0588,-1.0659,-1.023,-1.1233,-1.1514,-1.1567,-1.1547,-1.1981,-1.1808,-0.9925,-0.9258,-0.8848,-0.8369,0.0,-0.8447,-0.8704,-0.8561,-0.8818,-0.9977,-0.9868,-0.9822,-1.0272,-0.991,-0.9463,-0.9077,-0.8773,-0.8345,-0.7743,-0.7675,-0.7309,-0.6563,-0.721,-0.6547,-0.4387,-0.3779,0.0,0.0,0.0,0.0,0.0,0.0,0.0,0.0,0.0,0.0,0.0,0.0,0.0,0.0,0.0,0.0,0.0,0.0,0.0,0.0,0.0,0.0,0.0,0.0,0.0,0.0,0.0,0.0,-0.9115,-0.9667,0.0,-0.8813,-0.811,-0.889,-1.1795,-1.2008,-1.2008,-1.2008,-1.2772,-1.3198,-1.3198,-1.3198,-1.3198,-1.3198,-1.46,-1.5302,-1.5314,-1.6145,-1.6522,-1.6522,-1.6522,-1.5656,-1.4165,-1.3296,-1.4247,-1.6459,-1.5668,-1.4915,-1.4275,-1.4275,-1.4275,-1.4108,-1.2549,-1.1953,-1.1953,-1.1953,-1.1953,-1.1953,-1.1953,-0.9725,-0.6979,-0.6979,-0.6979,-0.7181,-0.7956,-0.9446,-1.1066,-1.2137,-1.2167,-1.1733,-1.1269,-1.1588,-1.1914,-1.1665,-1.177,-1.1717,-1.0998,-1.0883,-1.0405,-0.9013,-0.9004,-0.9028,-0.8638,-0.8928,-0.9322,-0.977,-0.9948,-1.0107,-1.0264,-1.0137,-0.9826,-0.9307,-0.9023,-0.8515,-0.7747,-0.7698,-0.7556,-0.728,-0.6186,-0.5017,-0.3797,-0.3588,-0.3504,0.0,0.0,0.0,0.0,0.0,0.0,0.0,0.0,0.0,0.0,0.0,0.0,0.0,0.0,0.0,0.0,0.0,0.0,0.0,0.0,0.0,0.0,0.0,0.0,0.0,-0.8919,-0.9968,-1.0157,-1.0784,-1.086,-0.9981,-0.9604,-1.047,-1.301,-1.3198,-1.3198,-1.3198,-1.3198,-1.3536,-1.4287,-1.43,-1.43,-1.43,-1.5793,-1.6522,-1.6522,-1.6522,-1.6522,-1.6522,-1.6522,-1.5611,-1.4071,-1.3248,-1.3789,-1.5332,-1.6151,-1.6522,-1.6522,-1.6522,-1.6522,-1.6207,-1.38,-1.2881,-1.2881,-1.2881,-1.2881,-1.2881,-1.2881,-1.1138,-0.8988,-0.8988,-0.8988,-0.914,-0.9976,-1.1501,-1.2881,-1.2881,-1.2881,-1.2686,-1.1798,-1.2035,-1.2373,-1.2116,-1.2218,-1.2258,-1.1851,-1.194,-1.1619,-1.0123,-1.0158,-1.0133,-0.9352,-0.958,-0.9853,-0.9853,-1.0107,-1.0283,-1.0283,-1.0283,-1.0155,-0.9724,-0.9258,-0.8608,-0.7761,-0.7191,-0.7019,-0.7275,-0.5431,-0.4179,-0.37,-0.3572,-0.3481,-0.3442,0.0,0.0,0.0,0.0,0.0,0.0,0.0,0.0,0.0,0.0,0.0,0.0,0.0,0.0,0.0,0.0,0.0,0.0,0.0,0.0,0.0,0.0,0.0,-1.0106,-0.9968,-1.0169,-1.0681,-1.1299,-1.1224,-1.0106,-1.0998,-1.2077,-1.3123,-1.3261,-1.3298,-1.3298,-1.3298,-1.4275,-1.6446,-1.6522,-1.6522,-1.6522,-1.6522,-1.6522,-1.6522,-1.6522,-1.6522,-1.6522,-1.6522,-1.6479,-1.625,-1.3931,-1.2881,-1.3065,-1.5433,-1.638,-1.638,-1.638,-1.638,-1.6107,-1.3752,-1.2881,-1.2881,-1.2881,-1.2881,-1.2881,-1.2881,-1.2881,-1.2881,-1.2881,-1.2881,-1.2881,-1.2881,-1.2881,-1.2881,-1.2881,-1.2881,-1.2881,-1.2881,-1.2881,-1.2881,-1.2881,-1.3372,-1.3465,-1.2417,-1.2375,-1.235,-1.1693,-1.1747,-1.1642,-1.0991,-1.0547,0.0,-1.0283,-1.0283,-1.0283,-1.0283,-1.0283,-1.0309,-1.0297,-0.9492,-0.8608,-0.7747,-0.623,-0.5686,-0.6432,-0.5167,-0.4316,-0.4093,-0.3713,-0.3455,-0.3296,0.0,0.0,0.0,0.0,0.0,0.0,0.0,0.0,0.0,0.0,0.0,0.0,0.0,0.0,0.0,0.0,0.0,0.0,0.0,0.0,0.0,-1.0281,-1.1475,-1.1173,-1.1475,-1.1776,-1.1927,-1.2826,-1.3128,-1.2359,-1.2572,-1.2872,-1.3173,-1.4675,-1.5577,-1.5577,-1.5577,-1.5853,-1.6497,-1.6522,-1.6522,-1.6522,-1.6522,-1.6522,-1.6522,-1.6522,-1.6522,-1.6522,-1.6522,-1.5567,-1.3836,-1.32,-1.2881,-1.2978,-1.361,-1.3884,-1.3884,-1.3884,-1.3884,-1.3789,-1.3152,-1.2881,-1.2881,-1.2881,-1.2881,-1.2881,-1.2881,-1.2881,-1.2881,-1.2881,-1.2881,-1.2881,-1.2881,-1.2881,-1.2881,-1.2881,-1.2881,-1.2881,-1.2881,-1.2881,-1.2881,-1.2881,-1.3017,-1.3074,-1.2773,-1.3087,-1.3045,-1.1792,-1.137,-1.1114,-1.0949,-1.0547,-1.0283,-1.0283,-1.0283,-1.0283,-1.0283,-1.0283,-1.0283,-1.0309,-0.8917,-0.7954,-0.7731,-0.691,-0.6203,-0.566,-0.5298,-0.4771,-0.4039,-0.411,-0.3877,0.0,0.0,0.0,0.0,0.0,0.0,0.0,0.0,0.0,0.0,0.0,0.0,0.0,0.0,0.0,0.0,0.0,0.0,0.0,0.0,0.0,0.0,-1.1851,-1.2391,-1.2693,-1.2542,-1.2492,-1.2697,-1.3556,-1.4047,-1.3923,-1.3923,-1.4111,-1.4538,-1.5752,-1.6522,-1.6522,-1.6522,-1.6522,-1.6522,-1.6522,-1.6522,-1.6522,-1.6522,-1.6522,-1.6479,-1.5478,-1.5522,-1.6522,-1.6522,-1.5744,-1.434,-1.3334,-1.2881,-1.2881,-1.2881,-1.2881,-1.2881,0.0,0.0,0.0,0.0,-1.2881,-1.2881,-1.2881,-1.2881,-1.2881,-1.2881,-1.2881,-1.2881,-1.2881,-1.2881,-1.2881,-1.2881,-1.2881,-1.2881,-1.2881,-1.2881,-1.2881,-1.2881,-1.2881,-1.2881,-1.2881,-1.2881,-1.2881,-1.2881,-1.32,0.0,-1.2289,-1.1959,-1.1677,-1.1253,-1.082,-1.0478,-1.0303,-1.0283,-1.0283,-1.0283,-1.0283,-1.0283,-1.0283,-0.9372,0.0,0.0,0.0,-0.6668,-0.5397,-0.5218,0.0,0.0,0.0,0.0,0.0,0.0,0.0,0.0,-0.3842,-0.4227,0.0,0.0,0.0,0.0,0.0,0.0,0.0,0.0,0.0,0.0,0.0,0.0,0.0,0.0,0.0,0.0,-1.3423,-1.3574,-1.4312,-1.3433,-1.2868,-1.3323,-1.3934,-1.4437,-1.4865,-1.5029,-1.5467,-1.6446,-1.6522,-1.6522,-1.6522,-1.6522,0.0,0.0,0.0,-1.6522,-1.6522,-1.6522,-1.638,-1.6064,-1.4201,-1.4433,-1.6522,-1.6522,-1.6337,-1.5976,-1.3836,-1.2881,-1.2881,-1.2881,-1.2881,-1.2881,-1.2881,-1.2881,-1.2881,-1.2881,-1.2881,-1.2881,-1.2881,0.0,0.0,-1.2881,-1.2881,-1.2881,-1.2881,-1.2881,-1.2881,-1.2881,-1.2881,-1.2881,-1.2881,-1.2881,-1.2881,-1.2881,-1.2881,-1.2881,-1.2881,-1.2881,-1.2881,-1.2881,-1.2881,-1.2881,-1.2881,-1.2949,-1.2683,-1.1822,-1.1221,-1.0771,-1.0449,-1.0351,-1.0283,-1.0283,-1.0283,0.0,-1.0283,-1.0291,-0.9629,-0.8077,-0.7798,-0.7066,-0.5582,-0.5124,-0.4791,-0.4509,-0.4536,-0.4648,-0.4907,-0.494,-0.5117,-0.5364,-0.428,-0.4591,0.0,0.0,0.0,0.0,0.0,0.0,0.0,0.0,0.0,0.0,0.0,0.0,0.0,0.0,0.0,-1.5414,-1.4851,-1.4337,-1.5064,-1.4739,-1.4438,-1.4538,-1.504,-1.5241,-1.4941,-1.568,-1.6283,-1.6497,-1.6522,-1.6522,-1.6522,-1.6522,-1.6522,-1.6522,-1.6522,-1.6522,-1.6522,-1.6522,-1.5522,-1.361,-1.5107,0.0,-1.6522,-1.6522,-1.5433,-1.3573,-1.3113,-1.2881,-1.2881,-1.2881,-1.2881,-1.2881,-1.2881,-1.2881,-1.2881,-1.2881,-1.2881,-1.2881,-1.2881,-1.2881,-1.2881,-1.2881,-1.2881,-1.2881,-1.2881,-1.2881,0.0,-1.2881,-1.2881,-1.2881,-1.2881,-1.2881,-1.2881,-1.2881,-1.2881,-1.2881,-1.2881,-1.2881,-1.2881,-1.2881,-1.2881,-1.2881,-1.2881,-1.2604,-1.2325,-1.2109,-1.1426,-1.0889,-1.0962,-1.0587,-1.0283,-1.0283,-1.0283,-1.0283,-1.0283,-1.0291,-1.0148,-0.9816,-0.8517,-0.7349,-0.6336,-0.5896,-0.5526,-0.5141,-0.5337,-0.5484,-0.5511,-0.5785,-0.5967,-0.6014,-0.551,-0.5339,0.0,0.0,0.0,0.0,0.0,0.0,0.0,0.0,0.0,0.0,0.0,-0.7691,0.0,0.0,-1.4475,-1.5715,-1.5203,-1.4789,-1.5302,-1.5103,-1.4916,-1.4916,-1.5279,-1.5379,-1.4953,-1.5869,-1.6522,-1.6522,-1.6522,-1.6522,-1.6522,-1.6522,-1.6522,-1.6522,-1.6522,-1.6522,-1.6522,-1.6522,-1.5876,-1.4709,-1.5932,-1.6522,-1.6479,-1.5242,-1.4025,-1.2881,-1.2881,-1.2881,-1.2881,-1.2881,-1.2881,-1.2881,-1.2881,-1.2881,-1.2881,-1.2881,-1.2881,-1.2881,-1.2881,-1.2881,-1.2881,-1.2881,-1.2881,-1.2881,-1.2881,-1.2881,-1.2881,-1.2881,-1.2881,-1.2881,-1.2881,-1.2881,-1.2881,-1.2881,-1.2881,-1.2881,-1.2881,-1.2881,-1.2881,-1.2881,-1.2881,-1.2881,-1.2881,-1.2695,-1.2547,-1.253,-1.1974,-1.1353,-1.0753,-1.0462,-1.03,-1.0303,-1.0283,-1.0283,-1.0283,-1.0291,-1.0293,-1.0293,-0.9516,-0.8449,-0.7115,-0.6661,-0.6241,-0.5752,-0.59,-0.5932,-0.5932,-0.6122,-0.627,-0.6404,-0.6219,-0.6072,0.0,0.0,0.0,0.0,0.0,0.0,0.0,0.0,-0.9213,-1.0375,-1.0552,-1.0912,-1.2377,-1.3873,-1.504,-1.5555,-1.5203,-1.5053,-1.5567,-1.5379,-1.5191,-1.5191,-1.5454,-1.5517,-1.5229,-1.5994,-1.6522,-1.6522,-1.6522,-1.6522,-1.6522,-1.6522,-1.6522,-1.6522,-1.6522,-1.6522,-1.6522,-1.6522,-1.6522,-1.6522,-1.6522,-1.625,-1.5744,-1.38,-1.2881,-1.2881,-1.2881,-1.2881,-1.2881,-1.2881,-1.2881,-1.2881,-1.2881,-1.2881,-1.2881,-1.2881,-1.2881,-1.2881,-1.2881,-1.2881,-1.2881,-1.2881,-1.2881,-1.2881,-1.2881,-1.2881,-1.2881,-1.2881,-1.2881,-1.2881,-1.2881,-1.2881,-1.2881,-1.2881,-1.2881,-1.2881,-1.2881,-1.2881,-1.2881,-1.2881,-1.2881,-1.2881,-1.2881,-1.2881,-1.289,-1.2916,-1.2596,-1.1973,-1.0927,-1.0526,-1.0299,-1.0282,-1.0283,-1.0283,-1.0283,-1.0296,-1.0305,-1.0305,-1.0159,-0.9424,-0.7985,-0.7284,-0.6753,-0.6277,-0.6277,-0.6303,-0.6364,-0.6364,-0.6485,-0.6673,-0.6673,-0.6673,-0.7148,-0.7552,-0.798,-0.8308,-0.8475,-0.868,0.0,0.0,-1.0134,-1.2381,-1.3613,-1.4337,-1.4538,-1.4777,-1.5203,-1.6233,-1.5542,-1.5268,-1.6258,-1.6358,-1.6333,-1.6333,-1.6371,-1.6371,-1.6333,-1.6446,-1.6522,-1.6522,-1.6522,-1.6522,-1.6522,-1.6522,-1.6522,-1.6522,-1.6522,-1.6522,-1.6522,-1.6522,-1.6522,-1.6522,-1.6522,-1.5389,-1.3296,-1.3017,-1.2881,-1.2881,-1.2881,-1.2881,-1.2881,-1.2881,-1.2881,-1.2881,-1.2881,-1.2881,-1.2881,-1.2881,-1.2881,-1.2881,-1.2881,-1.2881,-1.2881,-1.2881,-1.2881,-1.2881,-1.2881,-1.2881,-1.2881,-1.2881,-1.2881,-1.2881,-1.2881,-1.2881,-1.2881,-1.2881,-1.2881,-1.2881,-1.2881,-1.2881,-1.2881,-1.2881,-1.2881,-1.2881,-1.2881,-1.2881,-1.292,-1.288,-1.2862,-1.2771,-1.265,-1.1281,-1.0302,-1.0306,-1.0291,-1.0283,-1.0283,-1.0303,-1.0302,-1.0302,-0.9696,-0.9243,-0.9032,-0.7621,-0.6744,-0.6572,-0.654,-0.6667,-0.6927,-0.6927,-0.6941,-0.6974,-0.6974,-0.6974,-0.8218,-0.8477,-0.8716,0.0,-0.9391,-0.9782,-1.0648,-1.111,-1.1797,-1.3397,-1.4348,-1.4979,-1.5153,-1.5191,-1.548,0.0,-1.6132,-1.5994,-1.6459,-1.6522,-1.6522,-1.6522,-1.6522,-1.6522,-1.6522,-1.6522,-1.6522,-1.6522,-1.6522,-1.6522,-1.6522,-1.6522,-1.6522,-1.6522,-1.6522,-1.6522,-1.6522,-1.6522,-1.6522,-1.6466,-1.5062,-1.3884,-1.2881,-1.2881,-1.2881,-1.2881,-1.2881,-1.2881,-1.2881,-1.2881,-1.2881,-1.2881,-1.2881,-1.2881,-1.2881,-1.2881,-1.2881,-1.2881,-1.2881,-1.2881,-1.2881,-1.2881,-1.2881,-1.2881,-1.2881,-1.2881,-1.2881,-1.2881,-1.2881,-1.2881,-1.2881,-1.2881,-1.2881,-1.2881,-1.2881,-1.2881,-1.2881,-1.2881,-1.2881,-1.2881,-1.2881,-1.2881,-1.2881,-1.2881,-1.2881,-1.2881,-1.2918,-1.2902,-1.2898,-1.2273,-1.1421,-1.0418,-1.0312,-1.0318,-1.0312,-1.0311,-0.9759,-0.8447,-0.8079,-0.8071,-0.8415,-0.7802,-0.7234,-0.684,-0.684,-0.6901,-0.6979,-0.6979,-0.6979,-0.6979,-0.6979,-0.7114,-0.8779,-0.8975,0.0,-0.987,-1.0582,-1.1317,-1.2141,-1.2783,-1.3361,-1.3808,-1.4504,-1.504,-1.5103,-1.5414,-1.5865,-1.6434,-1.6522,-1.6522,-1.6522,-1.6522,-1.6522,-1.6522,-1.6522,-1.6522,-1.6522,-1.6522,-1.6522,-1.6522,-1.6522,-1.6522,-1.6522,-1.6522,-1.6522,-1.6522,-1.6194,-1.602,-1.602,-1.5656,-1.5522,-1.5478,-1.3752,-1.2881,-1.2881,-1.2881,-1.2881,-1.2881,-1.2881,-1.2881,-1.2881,-1.2881,-1.2881,-1.2881,-1.2881,-1.2881,-1.2881,-1.2881,-1.2881,-1.2881,-1.2881,-1.2881,-1.2881,-1.2881,-1.2881,-1.2881,-1.2881,-1.2881,-1.2881,-1.2881,-1.2881,-1.2881,-1.2881,-1.2881,-1.2881,-1.2881,-1.2881,-1.2881,-1.2881,-1.2881,-1.2881,-1.2881,-1.2881,-1.2881,-1.2881,-1.2881,-1.2881,-1.2881,-1.2881,-1.2899,-1.2899,-1.2894,-1.2416,-1.116,-1.0589,-1.0305,-1.031,-0.9759,-0.869,-0.7086,-0.7011,-0.7196,-0.7655,-0.7663,-0.7447,-0.7021,-0.6979,-0.6979,-0.6979,-0.6979,-0.6979,-0.6985,-0.7108,-0.7261,0.0,0.0,-0.9675,-1.0851,-1.2144,-1.3141,-1.3328,-1.411,-1.4535,-1.3526,-1.4416,-1.5151,-1.445,-1.5477,-1.6497,-1.6522,-1.6522,-1.6522,-1.6522,-1.6522,-1.6522,-1.6522,-1.6522,-1.6522,0.0,-1.6522,-1.6522,-1.6522,-1.6522,-1.6522,-1.6522,-1.6522,-1.6522,-1.6522,-1.5377,-1.4744,-1.4744,-1.361,-1.3017,-1.3017,-1.2929,-1.2881,-1.2881,-1.2881,-1.2881,-1.2881,-1.2881,-1.2881,-1.2881,-1.2881,-1.2881,-1.2881,-1.2881,-1.2881,-1.2881,-1.2881,-1.2881,-1.2881,-1.2881,-1.2881,-1.2881,-1.2881,-1.2881,-1.2881,-1.2881,-1.2881,-1.2881,-1.2881,-1.2881,-1.2881,-1.2881,-1.2881,-1.2881,-1.2881,-1.2881,-1.2881,-1.2881,-1.2881,-1.2881,-1.2881,-1.2881,-1.2881,-1.2881,-1.2881,-1.2881,-1.2881,-1.2881,-1.2881,-1.292,-1.2904,-1.2883,-1.2811,-1.1305,-1.0303,-1.0291,-0.8351,-0.7086,-0.6997,-0.6981,-0.7014,-0.7021,-0.7021,-0.7021,-0.6979,-0.6979,-0.6979,-0.6979,-0.6979,-0.6979,-0.6985,-0.7315,-0.7506,-1.0417,0.0,-1.1326,-1.2773,-1.3439,-1.3979,-1.4716,-1.4857,-1.4829,-1.4888,-1.5159,-1.5279,-1.4777,-1.5693,-1.6045,-1.4538,-1.5527,-1.6522,-1.6522,-1.6522,-1.6522,-1.6522,-1.6522,0.0,0.0,0.0,0.0,-1.6522,-1.6522,-1.6522,-1.6522,-1.6522,-1.6522,-1.6522,-1.6107,-1.5656,-1.5119,-1.4154,-1.342,-1.2881,-1.2881,-1.2881,-1.2881,-1.2881,-1.2881,-1.2881,-1.2881,-1.2881,-1.2881,-1.2881,-1.2881,-1.2881,-1.2881,-1.2881,-1.2881,-1.2881,-1.2881,-1.2881,-1.2881,-1.2881,-1.2881,-1.2881,-1.2881,-1.2881,-1.2881,-1.2881,-1.2881,-1.2881,-1.2881,-1.2881,-1.2881,-1.2881,-1.2881,-1.2881,-1.2881,-1.2881,-1.2881,-1.2881,-1.2881,-1.2881,-1.2881,-1.2881,-1.2881,-1.2881,-1.2881,-1.2881,-1.2881,-1.2881,-1.2881,-1.2877,-1.2454,-1.1299,-1.0631,-1.0317,-1.0284,-0.828,-0.7021,-0.6987,-0.7007,-0.6979,-0.6979,-0.6979,-0.6979,-0.6979,-0.6979,-0.6979,-0.6979,-0.6979,-0.7121,-0.7315,-0.7459,-0.7728,-1.1556,-1.2153,-1.2765,-1.4086,-1.4681,-1.5073,-1.555,-1.5375,-1.5142,-1.5199,-1.5216,-1.5028,-1.44,-1.4212,-1.4175,-1.4337,-1.5552,-1.6522,-1.6522,-1.6522,-1.6522,-1.6522,-1.6522,-1.6522,0.0,0.0,0.0,-1.6522,-1.6522,-1.6522,-1.6522,-1.6522,-1.6522,-1.6522,-1.6281,-1.592,-1.5433,-1.4698,-1.3836,-1.2881,-1.2881,-1.2881,-1.2881,-1.2881,-1.2881,-1.2881,-1.2881,-1.2881,-1.2881,-1.2881,-1.2881,-1.2881,-1.2881,-1.2881,-1.2881,-1.2881,-1.2881,-1.2881,-1.2881,-1.2881,-1.2881,-1.2881,-1.2881,-1.2881,-1.2881,-1.2881,-1.2881,-1.2881,-1.2881,-1.2881,-1.2881,-1.2881,-1.2881,-1.2881,-1.2881,-1.2881,-1.2881,-1.2881,-1.2881,-1.2881,-1.2881,-1.2881,-1.2881,-1.2881,-1.2881,-1.2881,-1.2881,-1.2881,-1.2881,-1.288,-1.2482,-1.1352,-1.1251,-1.1219,-1.1248,-0.862,-0.7017,-0.6993,-0.7012,-0.6993,-0.6985,-0.6979,-0.6979,-0.6979,-0.6979,-0.6979,-0.6979,-0.7128,-0.7275,-0.7513,-0.7735,-0.8051,-1.2027,-1.2873,-1.3918,-1.4838,-1.5758,-1.6333,-1.5819,-1.563,-1.5316,-1.4413,-1.4488,-1.435,0.0,0.0,-1.1387,-1.5655,-1.6446,-1.6522,-1.6522,-1.6522,-1.6522,0.0,0.0,0.0,0.0,0.0,0.0,-1.6522,-1.6522,-1.6522,-1.6522,-1.6522,-1.6522,-1.6522,-1.5952,-1.5632,-1.5632,-1.5062,-1.4201,-1.2968,-1.2929,-1.2881,-1.2881,-1.2881,-1.2881,-1.2881,-1.2881,-1.2881,-1.2881,-1.2881,-1.2881,-1.2881,-1.2881,-1.2881,-1.2881,-1.2881,-1.2881,-1.2881,-1.2881,-1.2881,-1.2881,-1.2881,-1.2881,-1.2881,-1.2881,-1.2881,-1.2881,-1.2881,-1.2881,-1.2881,-1.2881,-1.2881,-1.2881,-1.2881,-1.2881,-1.2881,-1.2881,-1.2881,-1.2881,-1.2881,-1.2881,-1.2881,-1.2881,-1.2881,-1.2881,-1.2881,-1.2881,-1.2881,-1.2881,-1.2778,-1.2719,-1.2898,-1.292,-1.2887,-1.2903,-0.9407,-0.7186,-0.7152,-0.7084,-0.7064,-0.7038,-0.7025,-0.7025,-0.7025,-0.7025,-0.7025,-0.7025,-0.7348,-0.754,-0.7574,-0.8151,-0.8383,-1.3994,-1.4648,-1.5253,-1.5936,-1.6011,-1.5869,-1.5731,-1.4739,-1.3761,-1.3523,-1.2693,-1.1738,0.0,0.0,0.0,-1.3711,-1.5402,0.0,-1.6522,-1.6522,0.0,-1.6522,0.0,-1.6522,-1.6522,-1.6522,0.0,-1.6522,-1.6522,-1.6522,-1.6522,-1.6522,-1.6522,-1.6522,-1.6337,-1.6281,-1.6281,-1.6107,-1.5433,-1.4247,-1.3344,-1.2881,-1.2881,-1.2881,-1.2881,-1.2881,-1.2881,-1.2881,-1.2881,-1.2881,-1.2881,-1.2881,-1.2881,-1.2881,-1.2881,-1.2881,-1.2881,-1.2881,-1.2881,-1.2881,-1.2881,-1.2881,-1.2881,-1.2881,-1.2881,-1.2881,-1.2881,-1.2881,-1.2881,-1.2881,-1.2881,-1.2881,-1.2881,-1.2881,-1.2881,-1.2881,-1.2881,-1.2881,-1.2881,-1.2881,-1.2881,-1.2881,-1.2881,-1.2881,-1.2881,-1.2881,-1.2881,-1.2881,-1.2881,-1.112,-1.0611,-1.2667,-1.2898,-1.2905,-1.2898,-1.1024,-0.9573,-0.8975,-0.8282,-0.7836,-0.7656,-0.7649,-0.7649,-0.7649,-0.7649,-0.7649,-0.7649,-0.7776,-0.7929,-0.8192,-0.8353,-0.849,-1.5102,-1.5603,-1.6095,-1.6423,-1.6107,-1.5567,-1.513,-1.3885,-1.2589,-1.1696,-1.0982,0.0,-0.9366,-0.9843,-1.0885,0.0,0.0,0.0,-1.6057,-1.6358,-1.6522,0.0,-1.6522,0.0,-1.6522,-1.6522,-1.6522,-1.6522,-1.6522,-1.6522,-1.6522,-1.6522,-1.6522,-1.6522,-1.6522,-1.6522,-1.6522,-1.6522,-1.6163,-1.5478,-1.4789,-1.3931,-1.2881,-1.2881,-1.2881,-1.2881,-1.2881,-1.2881,-1.2881,-1.2881,-1.2881,-1.2881,-1.2881,-1.2881,-1.2881,-1.2881,-1.2881,-1.2881,-1.2881,-1.2881,-1.2881,-1.2881,-1.2881,-1.2881,-1.2881,-1.2881,-1.2881,-1.2881,-1.2881,-1.2881,-1.2881,-1.2881,-1.2881,-1.2881,-1.2881,-1.2881,-1.2881,-1.2881,-1.2881,-1.2881,-1.2569,-1.2431,-1.2851,-1.2586,-1.2429,-1.2851,-1.2391,-1.1778,-1.1158,-1.0245,-1.0024,-1.1025,-1.1648,-1.1968,-1.1972,-1.1242,-1.0303,-0.9059,-0.8497,-0.8125,-0.7888,-0.7882,-0.7882,-0.7882,-0.7882,-0.7882,-0.7882,-0.8063,-0.821,-0.8377,-0.8504,-0.8651,-1.5743,-1.6095,-1.6522,-1.6522,-1.6082,-1.5379,-1.4337,-1.3082,-1.1628,-0.9788,0.0,-0.928,-0.8274,-0.8487,-0.9466,-1.1454,0.0,-1.3617,-1.5374,-1.6023,-1.6348,-1.6466,-1.6522,-1.6522,-1.6522,-1.6522,-1.6522,-1.6522,-1.6522,-1.6522,-1.6522,-1.6522,-1.6522,-1.6522,-1.6522,-1.6522,-1.6522,-1.6522,-1.6522,-1.6522,-1.6522,-1.5242,-1.2881,-1.2881,-1.2881,-1.2881,-1.2881,-1.2881,-1.2881,-1.2881,-1.2881,-1.2881,-1.2881,-1.2881,-1.2881,-1.2881,-1.2881,-1.2881,-1.2881,-1.2881,-1.2881,-1.2881,-1.2881,-1.2881,-1.2881,-1.2881,-1.2881,-1.2881,-1.2881,-1.2832,-1.2471,-1.2372,-1.2471,-1.2832,-1.2881,-1.2881,-1.2881,-1.2774,-1.2676,-1.2861,-1.2243,-1.1963,-1.2759,-1.2232,-1.1835,-1.2317,-1.1654,-1.0521,-0.8984,-0.9799,-1.016,-0.9083,-0.9973,-1.0712,-1.0813,-1.0716,-0.9995,-0.8488,-0.8307,-0.8204,-0.8008,-0.8001,-0.8001,-0.8001,-0.8001,-0.8001,-0.8001,-0.8303,-0.843,-0.8437,-0.8691,-0.8804,-1.6355,-1.6423,-1.6522,-1.6522,-1.5994,-1.5216,-1.4311,-1.2361,0.0,0.0,-0.8691,-0.7737,-0.7089,-0.8062,-0.9209,-0.9914,-1.1226,-1.282,-1.4819,-1.5205,-1.5562,0.0,-1.6522,-1.6522,-1.6522,-1.6522,0.0,0.0,-1.6522,-1.6522,-1.6522,-1.6522,-1.6522,-1.6522,-1.6522,-1.6522,-1.6522,-1.6522,-1.6522,-1.6522,-1.6522,-1.5242,-1.2881,-1.2881,-1.2881,-1.2881,-1.2881,-1.2881,-1.2881,-1.2881,-1.2881,-1.2881,-1.2881,-1.2881,-1.2881,-1.2881,-1.2881,-1.2881,-1.2881,-1.2881,-1.2881,-1.2881,-1.2881,-1.2881,-1.2881,-1.2881,-1.2881,-1.2881,-1.2881,-1.2372,-1.0079,-0.9524,-1.0079,-1.2372,-1.2881,-1.2881,-1.2881,-1.1999,-1.1519,-1.266,-1.2788,-1.2717,-1.2862,-1.277,-1.1939,-0.9814,-1.1234,-1.1624,-0.9112,-0.9024,-0.9344,-0.9887,-0.9944,-1.0218,-1.0762,-1.0285,-0.985,-0.9555,-0.9016,-0.8652,-0.8657,-0.8651,-0.8651,-0.8651,-0.8651,-0.8651,-0.8651,-0.8704,-0.8731,-0.8738,-0.8784,-0.8804,-1.6446,-1.6522,-1.6446,-1.6158,-1.5392,-1.4362,-1.293,0.0,0.0,0.0,-0.7223,-0.654,-0.6147,-0.7035,0.0,-0.8752,-0.9977,-1.1503,-1.3481,-1.4244,0.0,-1.5472,-1.6107,-1.638,0.0,-1.6337,-1.6522,-1.6522,-1.6522,-1.6522,-1.6522,-1.6522,-1.6522,-1.6522,-1.6522,-1.6207,-1.5567,-1.6207,-1.5888,-1.4606,-1.4606,-1.4025,-1.2881,-1.2881,-1.2881,-1.2881,-1.2881,-1.2881,-1.2881,-1.2881,-1.2881,-1.2881,-1.2881,-1.2881,-1.2881,-1.2881,-1.2881,-1.2881,-1.2881,-1.2881,-1.2881,-1.2881,-1.1909,-1.0795,-1.0795,-1.0795,-1.0795,-1.0795,-1.0795,-1.0438,-0.9166,-0.8804,-0.9113,-1.0438,-1.0795,-1.115,-1.2569,-1.2367,-1.1668,-1.091,-1.0748,-1.0791,-1.0759,-1.0756,-1.0347,-0.9015,-0.9902,-1.0288,-0.8957,-0.882,-0.9089,-0.9915,-0.954,-0.9413,-0.971,-0.9465,-0.9263,-0.9263,-0.8956,-0.8804,-0.8804,-0.8804,-0.8804,-0.8804,-0.8804,-0.8804,-0.8804,-0.8804,-0.8804,-0.8804,-0.8804,-0.8804,-1.6262,-1.6421,-1.6384,-1.5831,-1.4815,-1.3423,-1.1609,-0.9879,0.0,0.0,-0.5992,-0.5659,-0.5444,0.0,-0.6837,0.0,-0.8756,-1.0031,-1.2039,-1.3154,-1.4012,0.0,-1.554,0.0,-1.582,-1.6095,0.0,-1.6479,-1.6522,-1.6522,-1.6522,-1.6522,-1.6522,-1.6522,-1.6337,-1.57,-1.456,-1.5332,-1.4789,-1.2881,-1.2881,-1.2881,-1.2881,-1.2881,-1.2881,-1.2881,-1.2881,-1.2881,-1.2881,-1.2881,-1.2881,-1.2881,-1.2881,-1.2881,-1.2881,-1.2881,-1.2881,-1.2832,-1.2215,-1.2017,-1.2017,-1.2017,-1.0947,-0.9569,-0.8962,-0.8804,-0.8804,-0.8804,-0.8804,-0.8804,-0.8804,-0.8804,-0.8804,-0.8804,-0.8804,-0.9368,-1.1551,-1.2013,-1.137,-0.9194,-0.8804,-0.8784,-0.8802,-0.8803,-0.8778,-0.8802,-0.8803,-0.8778,-0.8795,-0.881,-0.9008,-0.9517,-0.9106,-0.8804,-0.8804,-0.8804,-0.8804,-0.8804,-0.8804,-0.8804,-0.8804,-0.8804,-0.8804,-0.8804,-0.8804,-0.8804,-0.8804,-0.8804,-0.8804,-0.8804,-0.8804,-0.8804,-1.5906,-1.6132,-1.6384,-1.5831,-1.4488,-1.2905,-1.1528,0.0,0.0,-0.6608,-0.5694,-0.5166,-0.5146,-0.555,-0.6179,0.0,0.0,-0.8683,-1.1015,-1.1804,-1.2818,-1.4737,0.0,0.0,-1.6337,-1.5952,-1.5908,-1.6479,-1.6522,-1.6522,-1.6522,-1.6522,-1.6522,-1.6522,-1.58,-1.5028,-1.4143,-1.3515,-1.3113,-1.2881,-1.2881,-1.2881,-1.2881,-1.2881,-1.2881,-1.2881,-1.2881,-1.2881,-1.2881,-1.2881,-1.2881,-1.2881,-1.2881,-1.2881,-1.2881,-1.2881,-1.2881,-1.252,-1.0028,-0.9166,-0.9166,-0.9166,-1.0685,-1.2067,-0.9577,-0.8804,-0.8804,-0.8804,-0.8804,-0.8804,-0.8804,-0.8804,-0.8804,-0.8804,-0.8804,-0.8857,-0.9113,-0.918,-0.9081,-0.8864,-0.8804,-0.8804,-0.8791,-0.8798,-0.8804,-0.8791,-0.8798,-0.8804,-0.8791,-0.8798,-0.8804,-0.891,-0.8857,-0.8804,-0.8804,-0.8804,-0.8804,-0.8804,-0.8804,-0.8804,-0.8804,-0.8804,-0.8804,-0.8804,-0.8804,-0.8804,-0.8804,-0.8804,-0.8804,-0.8804,-0.8804,-0.8804,-1.5093,-1.5553,-1.5723,-1.4916,-1.3897,-1.2526,-1.0471,0.0,-0.7417,-0.5899,-0.5323,-0.5108,-0.5108,-0.5373,-0.5764,-0.6234,-0.6591,-0.7437,-0.9253,-1.0214,-1.1271,-1.2786,-1.3784,0.0,0.0,0.0,-1.5332,-1.5908,-1.5599,-1.5567,-1.5964,-1.6281,-1.6324,-1.5952,-1.5522,-1.4892,-1.4097,-1.3286,-1.2881,-1.2881,-1.2881,-1.2881,-1.2881,-1.2881,-1.2881,-1.2881,-1.2881,-1.2881,-1.2881,-1.2881,-1.2881,-1.2881,-1.2881,-1.2881,-1.2725,-1.1049,-1.0438,-1.0285,-0.9166,-0.8804,-0.8804,-0.8804,-0.9524,-1.0233,-0.9113,-0.8804,-0.8804,-0.8804,-0.8804,-0.8804,-0.8804,-0.8804,-0.8804,-0.8804,-0.8804,-0.8804,-0.8804,-0.8804,-0.8804,-0.8804,-0.8804,-0.8804,-0.8804,-0.8804,-0.8804,-0.8804,-0.8804,-0.8804,-0.8804,-0.8804,-0.8804,-0.8804,-0.8804,-0.8804,-0.8804,-0.8804,-0.8804,-0.8804,-0.8804,-0.8804,-0.8804,-0.8804,-0.8804,-0.8804,-0.8804,-0.8804,-0.8804,-0.8804,-0.8804,-0.8804,-0.8804,-0.8804,-1.4173,-1.4977,-1.5304,-1.4321,-1.3467,-1.2191,0.0,-0.8328,-0.7047,-0.5442,-0.5108,-0.5108,-0.5108,-0.5253,-0.5482,-0.5756,-0.6066,-0.6754,-0.8216,-0.9215,-1.0278,0.0,0.0,-1.352,-1.385,-1.4391,-1.488,-1.532,-1.4926,-1.488,-1.532,-1.5744,-1.5776,-1.5365,-1.5017,-1.456,-1.4003,-1.3286,-1.2881,-1.2881,-1.2881,-1.2881,-1.2881,-1.2461,-1.252,-1.2881,-1.2881,-1.2881,-1.2881,-1.2881,-1.2421,-1.171,-1.171,-1.171,-1.1451,-0.9524,-0.8804,-0.8804,-0.8804,-0.8804,-0.8804,-0.8804,-0.8804,-0.8804,-0.8804,-0.8804,-0.8804,-0.8804,-0.8804,-0.8804,-0.8804,-0.8804,-0.8804,-0.8804,-0.8804,-0.8804,-0.8804,-0.8804,-0.8804,-0.8804,-0.8804,-0.8804,-0.8804,-0.8804,-0.8804,-0.8804,-0.8804,-0.8804,-0.8804,-0.8804,-0.8804,-0.8804,-0.8804,-0.8804,-0.8804,-0.8804,-0.8804,-0.8804,-0.8804,-0.8804,-0.8804,-0.8804,-0.8804,-0.8804,-0.8804,-0.8804,-0.8804,-0.8804,-0.8804,-0.8804,-0.8804,-0.8804,-1.3217,-1.442,-1.5451,-1.4357,-1.3254,-1.1839,0.0,-0.8328,-0.7047,-0.5442,-0.5108,-0.5108,-0.5108,-0.5108,-0.5253,-0.5734,-0.6133,-0.6865,-0.8224,-0.9102,-1.0166,0.0,0.0,-1.23,-1.3947,-1.4463,-1.4698,-1.4698,-1.4698,-1.4698,-1.4698,-1.4709,-1.4709,-1.4698,-1.4143,-1.3815,-1.3815,-1.319,-1.2881,-1.2881,-1.2881,-1.2881,-1.2832,-1.1484,-1.1584,-1.2881,-1.2881,-1.2881,-1.2881,-1.2881,-1.1301,-0.8857,-0.8857,-0.8857,-0.8857,-0.8811,-0.8804,-0.8804,-0.8804,-0.8804,-0.8804,-0.8804,-0.8804,-0.8804,-0.8804,-0.8804,-0.8804,-0.8804,-0.8804,-0.8804,-0.8804,-0.8804,-0.8804,-0.8804,-0.8804,-0.8804,-0.8804,-0.8804,-0.8804,-0.8804,-0.8804,-0.8804,-0.8804,-0.8804,-0.8804,-0.8804,-0.8804,-0.8804,-0.8804,-0.8804,-0.8804,-0.8804,-0.8804,-0.8804,-0.8804,-0.8804,-0.8804,-0.8804,-0.8804,-0.8804,-0.8804,-0.8804,-0.8804,-0.8804,-0.8804,-0.8804,-0.8804,-0.8804,-0.8804,-0.8804,-0.8804,-0.8804,-1.0926,-1.1829,-1.2496,-1.1496,-1.0797,-0.9957,-0.8392,-0.7327,-0.6371,-0.5323,-0.5108,-0.5108,-0.5108,-0.5253,-0.5553,-0.6117,-0.6471,0.0,0.0,0.0,0.0,-1.1095,-1.196,-1.2698,0.0,-1.3396,-1.3658,-1.405,-1.3695,-1.3658,-1.405,-1.3695,-1.3658,-1.405,-1.3909,-1.3589,-1.32,-1.3027,-1.2666,-1.2129,-1.2129,-1.2129,-1.2129,-1.2197,-1.1801,-1.1082,-1.1334,-1.1484,-1.1484,-1.1484,-1.0423,-0.8804,-0.8804,-0.8804,-0.8804,-0.8804,-0.8804,-0.8804,-0.8804,-0.8804,-0.8804,-0.8804,-0.8804,-0.8804,-0.8804,-0.8804,-0.8804,-0.8804,-0.8804,-0.8804,-0.8804,-0.8804,-0.8804,-0.8804,-0.8804,-0.8804,-0.8804,-0.8804,-0.8804,-0.8804,-0.8804,-0.8804,-0.8804,-0.8804,-0.8804,-0.8804,-0.8804,-0.8804,-0.8804,-0.8804,-0.8804,-0.8804,-0.8804,-0.8804,-0.8804,-0.8804,-0.8804,-0.8804,-0.8804,-0.8804,-0.8804,-0.8804,-0.8804,-0.8804,-0.8804,-0.8804,-0.8804,-0.8804,-0.8804,-0.8804,-0.8804,-0.8778,0.0,-0.9929,-1.0414,-0.9786,-0.933,-0.8727,-0.7646,-0.675,-0.5951,-0.5254,-0.503,-0.4991,-0.5088,-0.5233,-0.5432,-0.572,-0.6271,0.0,0.0,0.0,0.0,-1.069,0.0,0.0,0.0,-1.2628,-1.3065,-1.342,-1.3104,-1.2958,-1.3044,-1.2677,-1.253,-1.2638,-1.3198,-1.3025,-1.2098,-1.2353,-1.2138,-1.1416,-1.1416,-1.1416,-1.1416,-1.1642,-1.1233,-1.0415,-1.0167,-1.0269,0.0,-1.0762,-1.002,-0.8804,-0.8804,-0.8804,-0.8804,-0.8804,-0.8804,-0.8804,-0.8804,-0.8804,-0.8804,-0.8804,-0.8043,-0.7176,-0.7176,-0.7937,-0.8804,-0.8804,-0.8804,-0.8804,-0.8804,-0.8804,-0.8804,-0.8804,-0.8804,-0.8804,-0.8804,-0.8804,-0.8804,-0.8804,-0.8804,-0.8804,-0.8804,-0.8804,-0.8804,-0.8804,-0.8804,-0.8804,-0.8804,-0.8804,-0.8804,-0.8804,-0.8804,-0.8804,-0.8804,-0.8804,-0.8804,-0.8804,-0.8804,-0.8804,-0.8804,-0.8804,-0.8804,-0.8804,-0.8804,-0.8646,-0.8374,-0.8103,-0.8103,-0.8374,-0.8374,-0.8519,0.0,0.0,0.0,-0.8975,-0.8585,-0.7988,-0.7234,-0.64,0.0,-0.5146,-0.4853,-0.4755,-0.5029,-0.5049,-0.5009,-0.4899,-0.5772,0.0,0.0,-0.8717,0.0,0.0,-1.1057,0.0,-1.1235,-1.2176,-1.2774,-1.2774,-1.2774,-1.2452,-1.1765,-1.1715,-1.1416,-1.0762,-1.2049,-1.2098,-1.0813,-1.1416,-1.1416,-1.072,-1.072,-1.072,-1.072,-1.0064,-1.0167,-1.0661,-0.9413,-0.9361,-1.0218,-1.0517,-0.9969,-0.891,-0.8804,-0.8804,-0.8804,-0.8804,-0.8804,-0.8804,-0.8804,-0.8804,-0.8804,-0.8804,-0.6848,-0.4519,-0.4519,-0.6524,-0.8752,-0.8533,-0.848,-0.848,-0.848,-0.8646,-0.8804,-0.8804,-0.8804,-0.8804,-0.8804,-0.8804,-0.8804,-0.8804,-0.8804,-0.8804,-0.8804,-0.8804,-0.8804,-0.8804,-0.8804,-0.8804,-0.8804,-0.8804,-0.8804,-0.8804,-0.8804,-0.8804,-0.8804,-0.8752,-0.8699,-0.8699,-0.8699,-0.8646,-0.8646,-0.8699,-0.8699,-0.8699,-0.8752,-0.8427,-0.7723,-0.702,-0.702,-0.7616,-0.7616,-0.8026,-0.5487,0.0,-0.7199,-0.6769,-0.6437,-0.6073,0.0,-0.5282,-0.4895,-0.4544,0.0,0.0,-0.4806,-0.4662,-0.4928,-0.6304,0.0,-0.7405,-0.8315,0.0,0.0,-1.1435,-1.2089,-1.2261,-1.1728,-1.1917,-1.1832,-1.1325,-1.1275,-1.1225,-1.1065,-1.1065,-1.072,-1.0064,-1.0872,-1.1124,-1.0813,-1.0965,-1.0712,-1.0064,-1.0064,-1.0064,-1.0012,-0.9865,-0.9865,-1.0012,-0.9718,-0.971,-0.9865,-0.9465,-0.9517,-0.9814,-0.9061,-0.8804,-0.8804,-0.8804,-0.8804,-0.8804,-0.8804,-0.8804,-0.8804,-0.8804,-0.6848,-0.4519,-0.4519,-0.6524,-0.8315,-0.6145,-0.5496,-0.5496,-0.5496,-0.7176,-0.8804,-0.8804,-0.8804,-0.8804,-0.8804,-0.8804,-0.8804,-0.8804,-0.8804,-0.8804,-0.8804,-0.8804,-0.8804,-0.8804,-0.8804,-0.8804,-0.8804,-0.8804,-0.8804,-0.8804,-0.8804,-0.8804,-0.8804,-0.8262,-0.7943,-0.7943,-0.745,-0.7128,-0.7128,-0.767,-0.7943,-0.7943,-0.8533,-0.8427,-0.7723,-0.7509,-0.7235,-0.6858,-0.6858,-0.7166,-0.4507,-0.5152,-0.5779,-0.5633,-0.5369,-0.5152,-0.4987,0.0,0.0,0.0,0.0,0.0,0.0,0.0,0.0,0.0,-0.6559,0.0,0.0,0.0,-1.0199,-1.1221,-1.1434,-1.1342,-1.0914,-1.1166,-1.1216,-1.0813,-1.0813,-1.0669,-1.0364,-1.0364,-1.0012,-0.9361,-0.971,-0.9865,-0.9865,-1.0167,-1.0012,-0.9361,-0.9361,-0.9145,-0.8823,-0.8823,-0.8659,-0.833,-0.833,-0.8495,-0.8666,-0.8309,-0.8732,-0.9517,-0.9008,-0.8804,-0.8646,-0.7337,-0.6848,-0.6848,-0.6848,-0.6848,-0.6848,-0.6848,-0.5764,-0.4519,-0.4519,-0.5605,-0.6524,-0.4952,-0.4519,-0.4519,-0.4519,-0.5655,-0.7176,-0.848,-0.8804,-0.8804,-0.8804,-0.8804,-0.8427,-0.7069,-0.6848,-0.6848,-0.6848,-0.7931,-0.8804,-0.8804,-0.8804,-0.8804,-0.8804,-0.8804,-0.8804,-0.8804,-0.8804,-0.8804,-0.8804,-0.8427,-0.8049,-0.7723,-0.7343,-0.6966,-0.6588,-0.6966,-0.7343,-0.767,-0.7444,-0.7283,-0.7182,-0.6529,-0.6204,-0.6091,-0.6091,-0.6332,-0.4296,-0.4534,-0.4797,-0.5,-0.4927,-0.4771,-0.4677,0.0,0.0,0.0,0.0,0.0,0.0,-0.4806,0.0,0.0,0.0,0.0,-0.9639,-0.9271,-0.9278,-1.0487,-1.0269,-0.9909,-0.9814,-1.0312,-1.0618,-1.0517,-1.0517,-1.0269,-0.9666,-0.9666,-0.9361,-0.8646,-0.8646,-0.8586,-0.848,-0.9145,-0.9145,-0.848,-0.848,-0.8156,-0.7509,-0.7509,-0.7182,-0.6588,-0.6588,-0.6912,-0.7402,-0.7295,-0.7889,-0.8752,-0.8315,-0.8156,-0.7824,-0.5386,-0.4519,-0.4519,-0.4519,-0.4519,-0.4519,-0.4519,-0.4519,-0.4519,-0.4519,-0.4519,-0.4519,-0.4519,-0.4519,-0.4519,-0.4519,-0.4519,-0.5117,-0.7557,-0.8156,-0.8156,-0.8156,-0.8156,-0.7444,-0.4952,-0.4519,-0.4519,-0.4519,-0.6524,-0.8156,-0.8156,-0.8156,-0.8315,-0.8752,-0.8427,-0.8156,-0.8156,-0.8156,-0.8315,-0.8752,-0.8804,-0.8533,-0.7883,-0.7557,-0.7069,-0.6475,-0.6312,-0.6691,-0.7509,-0.6303,-0.5923,-0.6421,-0.5281,-0.4948,-0.5324,-0.5324,-0.5496,-0.432,-0.4427,-0.446,-0.4444,-0.4625,-0.4661,-0.4152,0.0,0.0,0.0,0.0,0.0,0.0,-0.4809,-0.5094,0.0,0.0,-0.7854,0.0,0.0,-0.9445,-0.9923,-1.0364,-1.0415,-0.9865,-0.9917,-0.971,-0.9166,-0.9113,-0.9061,-0.8956,-0.8956,-0.8633,-0.7883,-0.7883,-0.7563,-0.6966,-0.7664,-0.7664,-0.6912,-0.6912,-0.6858,-0.675,-0.675,-0.6696,-0.6588,-0.6588,-0.6912,-0.7348,-0.6912,-0.7557,-0.8533,-0.6091,-0.5167,-0.5113,-0.468,-0.4519,-0.4519,-0.4519,-0.4519,-0.4519,-0.4519,-0.4519,-0.4519,-0.4519,-0.4519,-0.4519,-0.4519,-0.4519,-0.4519,-0.4519,-0.4519,-0.4625,-0.5062,-0.5167,-0.5167,-0.5167,-0.5167,-0.5007,-0.457,-0.4519,-0.4519,-0.4519,-0.4846,-0.5167,-0.5167,-0.5167,-0.6036,-0.848,-0.6686,-0.5167,-0.5167,-0.5167,-0.6145,-0.8586,-0.8804,-0.8752,-0.8646,-0.6897,-0.5814,-0.5651,-0.5113,-0.5445,-0.675,-0.6529,-0.6204,-0.5651,-0.5706,-0.5328,-0.468,-0.468,-0.468,-0.3864,-0.4036,-0.4175,-0.414,-0.4485,-0.4729,-0.4459,0.0,0.0,0.0,0.0,0.0,0.0,0.0,-0.5132,-0.6446,0.0,-0.7964,-0.9126,-0.9047,-0.9112,-0.9725,-0.9762,-0.9614,-0.9316,-0.8883,-0.8514,-0.8209,-0.783,-0.7616,-0.7616,-0.7616,-0.7456,-0.7128,-0.7128,-0.6745,-0.6036,-0.6362,-0.6524,-0.6588,-0.6588,-0.6367,-0.5982,-0.5982,-0.5823,-0.5445,-0.5445,-0.5609,-0.5823,-0.555,-0.5878,-0.6362,-0.5007,-0.4519,-0.4519,-0.4519,-0.4519,-0.4519,-0.4519,-0.4519,-0.4519,-0.4519,-0.4519,-0.4519,-0.4519,-0.4519,-0.4519,-0.4519,-0.4519,-0.4519,-0.4519,-0.4519,-0.4519,-0.4519,-0.4519,-0.4519,-0.4519,-0.4519,-0.4519,-0.4519,-0.4519,-0.4519,-0.4519,-0.4519,-0.4519,-0.4519,-0.4519,-0.4952,-0.6308,-0.5332,-0.4519,-0.4519,-0.4519,-0.5062,-0.6362,-0.647,-0.7117,-0.8699,-0.6362,-0.4948,-0.4948,-0.468,-0.4791,-0.5445,-0.5445,-0.566,-0.6091,-0.5437,-0.4897,-0.4519,-0.4519,-0.4519,-0.3592,-0.3794,-0.4012,-0.4079,0.0,-0.4641,-0.4774,0.0,0.0,0.0,0.0,0.0,0.0,-0.4465,0.0,-0.6702,-0.7058,-0.7529,-0.8593,-0.845,-0.8435,-0.8999,-0.8732,-0.848,-0.8321,-0.7777,-0.745,-0.745,-0.6912,-0.6588,-0.6588,-0.6588,-0.6529,-0.6367,-0.6367,-0.5982,-0.5273,-0.5273,-0.5546,-0.61,-0.61,-0.5823,-0.5273,-0.5277,-0.5007,-0.4522,-0.4525,-0.4522,-0.4519,-0.4519,-0.4519,-0.4519,-0.4519,-0.4519,-0.4519,-0.4519,-0.4519,-0.4405,-0.368,-0.3901,-0.4519,-0.4519,-0.4519,-0.4519,-0.4519,-0.4519,-0.4519,-0.4519,-0.4519,-0.4519,-0.4519,-0.4519,-0.4519,-0.4519,-0.4519,-0.4519,-0.4519,-0.4519,-0.4519,-0.4519,-0.4519,-0.4519,-0.4519,-0.4519,-0.4519,-0.4519,-0.4519,-0.4519,-0.4519,-0.4519,-0.4519,-0.4519,-0.4519,-0.4519,-0.4519,-0.4519,-0.5441,-0.7664,-0.6362,-0.5222,-0.4515,-0.4519,-0.4519,-0.4519,-0.4519,-0.5007,-0.61,-0.5007,-0.4519,-0.4519,-0.4519,-0.4519,-0.3884,-0.3978,-0.4059,-0.4309,-0.4202,0.0,-0.4688,-0.4759,0.0,-0.4794,0.0,0.0,0.0,-0.4641,-0.5293,-0.6602,-0.6416,-0.6256,-0.6711,-0.7368,-0.754,-0.6907,-0.7396,-0.7503,-0.6804,-0.6696,-0.6696,-0.6696,-0.6642,-0.6588,-0.6588,-0.6588,-0.6312,-0.5597,-0.5597,-0.5273,-0.457,-0.457,-0.4625,-0.4625,-0.4625,-0.4625,-0.457,-0.4581,-0.4532,-0.448,-0.449,-0.448,-0.4519,-0.4519,-0.4519,-0.4519,-0.4519,-0.4519,-0.4519,-0.4519,-0.4519,-0.4125,-0.1284,-0.2176,-0.4519,-0.4519,-0.4519,-0.4519,-0.4519,-0.4519,-0.4519,-0.4519,-0.4519,-0.4519,-0.4519,-0.4519,-0.4519,-0.4519,-0.4519,-0.4519,-0.4519,-0.4519,-0.4519,-0.4519,-0.4519,-0.4519,-0.4519,-0.4519,-0.4519,-0.4519,-0.4519,-0.4519,-0.4519,-0.4519,-0.4519,-0.4519,-0.4519,-0.4519,-0.4519,-0.4519,-0.457,-0.4787,-0.7122,-0.7283,-0.4625,-0.4519,-0.4519,-0.4519,-0.4519,-0.4574,-0.4625,-0.4574,-0.4519,-0.4519,-0.4519,-0.4519,-0.3412,-0.3383,-0.337,-0.3642,-0.3572,0.0,0.0,-0.5061,-0.4928,-0.4738,-0.4766,0.0,0.0,0.0,-0.5151,-0.5994,-0.607,-0.6136,-0.6442,-0.6764,-0.6912,-0.6642,-0.6858,-0.6912,-0.6642,-0.6204,-0.5923,-0.5923,-0.555,-0.5281,-0.5281,-0.5281,-0.5171,-0.4893,-0.4897,-0.4732,-0.4519,-0.4525,-0.4473,-0.4473,-0.4522,-0.4522,-0.4473,-0.4477,-0.3968,-0.307,-0.3074,-0.3638,-0.4494,-0.4487,-0.3411,-0.1675,-0.1675,-0.1675,-0.1675,-0.1675,-0.1675,-0.1563,-0.0392,-0.0727,-0.1675,-0.1675,-0.1675,-0.2065,-0.3956,-0.4519,-0.4519,-0.4519,-0.4519,-0.4519,-0.4519,-0.4519,-0.4519,-0.4519,-0.4519,-0.4519,-0.4519,-0.4519,-0.4519,-0.4519,-0.4519,-0.4519,-0.4519,-0.4519,-0.4519,-0.4519,-0.4519,-0.4519,-0.4519,-0.4519,-0.4519,-0.4519,-0.4519,-0.4519,-0.4519,-0.4519,-0.4519,-0.4519,-0.555,-0.566,-0.4574,-0.4519,-0.4519,-0.4519,-0.4519,-0.4519,-0.4519,-0.4519,-0.4519,-0.4519,-0.4519,-0.4519,-0.2982,-0.2905,-0.2894,0.0,0.0,0.0,-0.4692,-0.4886,-0.4771,-0.4573,-0.4178,0.0,-0.4481,0.0,0.0,0.0,-0.5394,-0.548,-0.5745,-0.6061,-0.615,-0.5987,-0.615,-0.615,-0.5932,-0.5492,-0.5164,-0.5164,-0.4732,-0.4519,-0.4519,-0.4519,-0.4519,-0.4519,-0.4522,-0.4522,-0.4522,-0.448,-0.4255,-0.3799,-0.3793,-0.4021,-0.4484,-0.4487,-0.3922,-0.2852,-0.1899,-0.2127,-0.3091,-0.3084,-0.1847,0.0,0.0,0.0,0.0,0.0,0.0,0.0,0.0,0.0,0.0,0.0,0.0,-0.0392,-0.2454,-0.3067,-0.3289,-0.4236,-0.4519,-0.4519,-0.4519,-0.4519,-0.4519,-0.4519,-0.4519,-0.4519,-0.4519,-0.4519,-0.4519,-0.4519,-0.4519,-0.4519,-0.4519,-0.4519,-0.4519,-0.4519,-0.4519,-0.4519,-0.4519,-0.4519,-0.4519,-0.4519,-0.4519,-0.4519,-0.4519,-0.4519,-0.4519,-0.4519,-0.4519,-0.4519,-0.4519,-0.4519,-0.4519,-0.4519,-0.4519,-0.4519,-0.4519,-0.4519,-0.4519,-0.4519,-0.4519,-0.4519,-0.2697,-0.2702,0.0,0.0,0.0,0.0,-0.4074,-0.4207,-0.4242,-0.4359,-0.3965,-0.3928,-0.5091,-0.436,0.0,-0.4747,-0.4416,-0.4124,-0.4474,-0.5054,-0.5218,-0.457,-0.5109,-0.5218,-0.457,-0.4519,-0.4519,-0.4519,-0.4519,-0.4519,-0.4519,-0.4519,-0.4519,-0.4519,-0.4473,-0.448,-0.448,-0.449,-0.3755,-0.2232,-0.223,-0.3019,-0.4497,-0.4507,-0.4458,-0.4228,-0.1233,0.0,0.0,0.0,0.0,0.0,0.0,0.0,0.0,0.0,0.0,0.0,0.0,0.0,0.0,0.0,0.0,0.0,0.0,0.0,-0.0615,-0.3624,-0.446,-0.4519,-0.4519,-0.4519,-0.4519,-0.4519,-0.4519,-0.4519,-0.4519,-0.4519,-0.4519,-0.446,-0.446,-0.446,-0.446,-0.446,-0.446,-0.446,-0.446,-0.446,-0.446,-0.446,-0.446,-0.446,-0.4463,-0.4519,-0.4519,-0.4519,-0.4519,-0.4519,-0.4519,-0.4519,-0.4519,-0.4519,-0.4519,-0.4519,-0.4519,-0.4519,-0.4519,-0.4519,-0.4519,-0.4519,-0.4519,-0.4519,-0.2415,-0.2342,0.0,-0.2397,0.0,0.0,0.0,-0.4094,0.0,0.0,-0.3965,-0.3711,-0.4056,-0.3934,0.0,-0.4142,-0.4146,-0.416,-0.43,-0.4559,-0.4732,-0.4515,-0.4688,-0.4746,-0.4529,-0.448,-0.4487,-0.4487,-0.4487,-0.4484,-0.4473,-0.4473,-0.4473,-0.4473,-0.4477,-0.3968,-0.2901,-0.3931,-0.4278,-0.3822,-0.2693,-0.3033,-0.4507,-0.4511,-0.2186,0.1908,0.2751,0.1964,0.0,0.0,0.0,0.0,0.0,0.0,0.0,0.0,0.0,0.0,0.0,0.0,0.0,0.0,0.0,0.0,0.0,0.0,-0.0168,-0.1062,-0.2843,-0.4519,-0.4519,-0.4487,-0.4501,-0.4525,-0.4519,-0.4519,-0.4519,-0.4519,-0.3846,-0.173,-0.134,-0.134,-0.134,-0.134,-0.134,-0.134,-0.134,-0.134,-0.134,-0.134,-0.134,-0.134,-0.3231,-0.4519,-0.4519,-0.4519,-0.4477,-0.4507,-0.4511,-0.4497,-0.4519,-0.4519,-0.4519,-0.4519,-0.4519,-0.4519,-0.4519,-0.4519,-0.4519,-0.4519,-0.4519,-0.4519,-0.2557,0.0,0.0,-0.2568,-0.2761,-0.2978,-0.3242,0.0,0.0,0.0,-0.3847,-0.3448,-0.2993,-0.3006,0.0,-0.3938,-0.4053,-0.4151,-0.4306,-0.4438,-0.4473,-0.4524,-0.452,-0.428,-0.3667,-0.3608,-0.3583,-0.3583,-0.3583,-0.358,-0.3574,-0.4144,-0.4487,-0.4487,-0.449,-0.4039,-0.3135,-0.286,-0.213,-0.0894,0.0,-0.0335,-0.1843,-0.1229,0.0727,0.3602,0.4225,0.3482,0.168,0.0504,0.0,0.0,0.0,0.0727,0.1786,0.1786,0.1786,0.1619,0.0392,0.0,0.0,0.0,0.0,0.0,0.0,0.0,0.0,0.0,-0.2181,-0.449,-0.449,-0.3596,-0.2697,-0.2736,-0.2732,-0.3065,-0.4236,-0.4519,-0.3624,-0.056,0.0,0.0,0.0,0.0,0.0,0.0,0.0,0.0,0.0,0.0,0.0,0.0,-0.1619,-0.2732,-0.2732,-0.2732,-0.2738,-0.2701,-0.2701,-0.3261,-0.4435,-0.4473,-0.4519,-0.4519,-0.4519,-0.4519,-0.4519,-0.4519,-0.4519,-0.4519,-0.4519,-0.4519,-0.2898,0.0,0.0,-0.3097,-0.3086,0.0,-0.3487,-0.3585,-0.3585,-0.3458,0.0,-0.3277,-0.2146,-0.1801,-0.2113,-0.3593,-0.3946,-0.4095,-0.4288,-0.4295,-0.4306,-0.4278,-0.4437,-0.3924,-0.2534,-0.2172,-0.1989,-0.1989,-0.1991,-0.1991,-0.1989,-0.3337,-0.4193,-0.4477,-0.4501,-0.4343,-0.4113,-0.112,0.1794,0.4514,0.4511,0.3764,0.2454,0.3878,0.3761,0.251,0.3869,0.4494,0.4265,0.1567,0.0392,0.0392,0.0112,0.1842,0.4519,0.4519,0.4519,0.4125,0.1341,0.0392,0.0392,0.0112,0.0,0.0,0.0,0.0,0.0,0.0,-0.1967,-0.407,-0.407,-0.2079,0.0,0.0,0.0,-0.0727,-0.3511,-0.407,-0.3289,-0.056,0.0,0.0,0.0,0.0,0.0,0.0,0.0,0.0,0.0,0.0,0.0,0.0,0.0,0.0,0.0,0.0,0.0,0.0,0.0,-0.1234,-0.3958,-0.4092,-0.4236,-0.4519,-0.4519,-0.4519,-0.4519,-0.4519,-0.4519,-0.4519,-0.4519,-0.4519,-0.2568,-0.2604,0.0,0.0,-0.3011,-0.3286,-0.3554,-0.3609,-0.3331,-0.237,-0.2962,-0.3519,-0.3245,-0.1667,-0.0524,-0.0865,-0.2842,-0.3999,-0.2854,-0.2699,-0.2693,-0.2675,-0.3777,-0.4379,-0.4063,-0.185,-0.0464,-0.0464,-0.0465,-0.0465,-0.0464,-0.0792,-0.2041,-0.4442,-0.4508,-0.3375,-0.1009,0.2018,0.3884,0.4514,0.4504,0.4324,0.4027,0.4324,0.432,0.4027,0.4379,0.4487,0.447,0.379,0.3511,0.3289,0.0951,0.1842,0.4519,0.4519,0.4519,0.4405,0.3735,0.3511,0.3121,0.0783,0.0,0.0,0.0,0.0,0.0,0.0,-0.0449,-0.0954,-0.0954,-0.0505,0.0,0.0,0.0,-0.0168,-0.0839,-0.095,-0.0783,-0.0112,0.0,0.0,0.0,0.0,0.0,0.0,0.0,0.0,0.0,0.0,0.0,0.0,0.0,0.0,0.0,0.0,0.0,0.0,0.0,-0.028,-0.0954,-0.0952,-0.2063,-0.446,-0.4519,-0.4519,-0.4519,-0.4519,-0.4519,-0.4519,-0.4519,-0.4519,-0.2688,0.0,0.0,-0.2824,0.0,-0.2741,-0.3435,-0.3619,-0.3116,-0.1299,-0.1435,-0.1889,-0.1889,-0.0835,0.0,0.0,-0.1329,-0.2563,-0.321,-0.2062,-0.1169,-0.1148,-0.1849,-0.2368,-0.2368,-0.0899,0.0,0.0,0.0,0.0,0.0,0.1367,0.1444,-0.0163,-0.0885,-0.0558,0.1062,0.2631,0.3761,0.4497,0.449,0.4484,0.4525,0.4477,0.4477,0.4525,0.4477,0.4473,0.4519,0.4519,0.4519,0.4349,0.2788,0.3121,0.4519,0.4519,0.4519,0.4519,0.4519,0.4519,0.4236,0.2676,0.2176,0.2176,0.2176,0.2176,0.2176,0.2176,0.2176,0.1842,0.0392,0.0,0.0,0.0,0.0,0.0,0.0,0.0,0.0,0.0,0.0,0.0,0.0,0.0,0.0,0.0,0.0,0.0,0.0,0.0,0.0,0.0,0.0,0.0,0.0,0.0,0.0,0.0,0.0,0.0,0.0,0.0,-0.0727,-0.2341,-0.2343,-0.2343,-0.2343,-0.2343,-0.3067,-0.4519,-0.4519,-0.4519,-0.2841,0.0,-0.2731,-0.2895,-0.2529,0.0,-0.3388,-0.3257,-0.2393,-0.0405,0.0,0.0,0.0,0.0,0.0,0.0,0.0,-0.0883,-0.3387,-0.1561,0.0,0.0,0.0,0.0,0.0,0.0,0.0,0.0,0.0,0.0,0.0,0.2767,0.4323,0.4338,0.3202,0.2603,0.2603,0.2615,0.3239,0.448,0.4639,0.4743,0.4846,0.4846,0.4736,0.4519,0.4519,0.457,0.4732,0.457,0.4519,0.4519,0.4519,0.4519,0.4519,0.4519,0.4519,0.4519,0.4519,0.4519,0.4519,0.4519,0.4519,0.4519,0.4519,0.4519,0.4519,0.4519,0.4519,0.3901,0.1452,0.0783,0.0783,0.0783,0.0783,0.0783,0.0783,0.0392,0.0,0.0,0.0,0.0,0.0,0.0,0.0,0.0,0.0,0.0,0.0,0.0,0.0,0.0,0.0,0.0,0.0,0.0,0.0,0.0,0.0,0.0,0.0,0.0,0.0,0.0,0.0,0.0,0.0,0.0,-0.1563,-0.4519,-0.4519,-0.4519,0.0,0.0,-0.2714,0.0,-0.3056,-0.3419,0.0,0.0,-0.0405,0.0,0.0,0.0,0.0,0.0,0.0,0.0,0.0,-0.0137,-0.0544,-0.0272,0.0,0.0,0.0,0.0,0.0,0.0,0.0,0.0,0.0,0.0,0.0,0.2384,0.3714,0.3733,0.402,0.4204,0.4204,0.4197,0.4307,0.448,0.5062,0.571,0.6317,0.6317,0.5664,0.4519,0.4519,0.4948,0.5651,0.4842,0.4519,0.4519,0.4519,0.4519,0.4519,0.4519,0.4519,0.4519,0.4519,0.4519,0.4519,0.4519,0.4519,0.4519,0.4519,0.4519,0.4519,0.4519,0.4519,0.4405,0.4015,0.3901,0.3901,0.3901,0.3901,0.3901,0.3901,0.1842,0.0,0.0,0.0,0.0,0.0,0.0,0.0,0.0,0.0,0.0,0.0,0.0,0.0,0.0,0.0,0.0,0.0,0.0,0.0,0.0,0.0,0.0,0.0,0.0,0.0,0.0,0.0,0.0,0.0,0.0,-0.1563,-0.4519,-0.4519,-0.4519,-0.2168,-0.2285,-0.2408,0.0,-0.2888,-0.2834,-0.1799,0.0,0.0,0.0,0.0,0.0,0.0,0.0,0.0449,0.1798,0.2024,0.1796,0.1119,0.0448,0.0,0.0,0.0,0.0539,0.1889,0.2024,0.1751,0.1073,0.1029,0.0994,0.1018,0.2785,0.3764,0.3749,0.407,0.4393,0.47,0.4854,0.5193,0.5673,0.6421,0.6691,0.6588,0.702,0.6416,0.5054,0.5054,0.5378,0.5869,0.5714,0.5226,0.4519,0.4519,0.4519,0.4519,0.4519,0.4519,0.4519,0.4519,0.4519,0.4519,0.4519,0.4519,0.4519,0.4519,0.4519,0.4519,0.4519,0.4519,0.4519,0.4519,0.4519,0.4519,0.4519,0.4519,0.4519,0.4519,0.212,0.0,0.0,0.0,0.0,0.0,0.0,0.0,0.0,0.0,0.0,0.0,0.0,0.0,0.0,0.0,0.0,0.0,0.0,0.0,0.0,0.0,0.0,0.0,0.0,0.0,0.0,0.0,0.0,0.0,0.0,-0.0671,-0.2009,-0.3735,-0.4519,0.0,0.0,-0.2104,-0.2401,-0.2226,-0.1649,0.0,0.0,0.0165,0.0,0.0928,0.0843,0.0492,0.0718,0.1393,0.2881,0.3379,0.3286,0.237,0.1474,0.0804,0.0491,0.0448,0.1166,0.2971,0.3427,0.3239,0.2324,0.2279,0.2265,0.2242,0.3234,0.3896,0.4107,0.4139,0.4447,0.503,0.536,0.5996,0.6912,0.745,0.7503,0.7182,0.7723,0.7283,0.6032,0.5869,0.5869,0.6086,0.6475,0.6204,0.5605,0.5605,0.5167,0.4519,0.4519,0.4519,0.4519,0.4519,0.4519,0.4519,0.4519,0.4519,0.4519,0.4519,0.4519,0.4519,0.4519,0.4519,0.4519,0.4519,0.4519,0.4519,0.4519,0.4519,0.4519,0.4519,0.2732,0.1118,0.1118,0.1118,0.1118,0.1118,0.1118,0.0895,0.0112,0.0,0.0,0.0,0.0,0.0,0.0,0.0,0.0,0.0,0.0,0.0,0.0,0.0,0.0,0.0,0.0,0.0,0.0,0.0,0.0,0.0,0.0,0.0,-0.0056,-0.3074,-0.4473,0.0,-0.1821,0.0,-0.1852,-0.0991,0.0,0.0,0.0,0.0639,0.2938,0.3398,0.3046,0.1906,0.2647,0.306,0.2057,0.2868,0.3595,0.3506,0.3458,0.3004,0.183,0.1697,0.1741,0.1875,0.2915,0.3551,0.3506,0.3506,0.3509,0.3516,0.3595,0.395,0.4631,0.465,0.4921,0.5477,0.5933,0.667,0.767,0.767,0.8049,0.8699,0.8699,0.8321,0.7563,0.6858,0.6534,0.6583,0.6588,0.7402,0.8586,0.8586,0.6902,0.4519,0.4519,0.4519,0.4519,0.4519,0.4519,0.4519,0.4519,0.4519,0.4519,0.4519,0.4519,0.4519,0.4519,0.4519,0.4519,0.4519,0.4519,0.4519,0.4519,0.4519,0.4519,0.4519,0.4349,0.4294,0.4294,0.4294,0.4294,0.4294,0.4294,0.3289,0.0448,0.0,0.0,0.0,0.0,0.0,0.0,0.0,0.0,0.0,0.0,0.0,0.0,0.0,0.0,0.0,0.0,0.0,0.0,0.0,0.0,0.0,0.0,0.0,-0.0056,-0.3098,-0.4504,0.0,0.0,0.0,-0.0836,-0.0322,0.0317,0.1466,0.1715,0.1789,0.2074,0.2897,0.344,0.2873,0.3218,0.3462,0.304,0.3312,0.3588,0.3588,0.3588,0.3448,0.2996,0.2954,0.2954,0.2948,0.3357,0.3588,0.3588,0.3588,0.3759,0.41,0.4092,0.4399,0.5058,0.5081,0.5566,0.6524,0.7037,0.7659,0.8427,0.883,0.8942,0.8804,0.9263,0.9033,0.833,0.809,0.767,0.7079,0.675,0.745,0.8804,0.8804,0.815,0.7009,0.5171,0.566,0.7283,0.7283,0.7283,0.7283,0.7283,0.5982,0.4519,0.4519,0.4519,0.4519,0.4519,0.4519,0.4519,0.4519,0.4519,0.4519,0.4519,0.4519,0.4519,0.4519,0.4519,0.4519,0.4519,0.4519,0.4519,0.4519,0.4519,0.4125,0.3065,0.2899,0.2899,0.2899,0.2899,0.2899,0.2899,0.1174,0.0,0.0,0.0,0.0,0.0,0.0,0.0,0.0,0.0,0.0,0.0,0.0,0.0,0.0,0.0,0.0,-0.0,-0.1122,-0.1625,-0.1035,0.0,0.0,0.0,0.0,0.0434,0.204,0.2543,0.2507,0.1885,0.2644,0.3363,0.3236,0.3366,0.3527,0.3571,0.3581,0.3581,0.3581,0.3581,0.3581,0.3581,0.3588,0.3588,0.3581,0.3751,0.388,0.388,0.4056,0.4312,0.4696,0.4691,0.5,0.5567,0.5782,0.6328,0.7236,0.791,0.8505,0.9013,0.9761,0.9917,0.9465,0.9909,0.9843,0.9408,0.9295,0.8718,0.7806,0.7498,0.7937,0.8804,0.8804,0.8804,0.8586,0.6632,0.7176,0.8804,0.8804,0.8804,0.8804,0.8804,0.7498,0.5928,0.5928,0.5277,0.4519,0.4519,0.4519,0.4519,0.4519,0.4519,0.4519,0.4519,0.4519,0.4519,0.4519,0.4519,0.4519,0.4519,0.4519,0.4519,0.4519,0.4519,0.4519,0.4519,0.4519,0.4519,0.4519,0.4519,0.4519,0.4519,0.1786,0.0,0.0,0.0,0.0,0.0,0.0,0.0,0.0,0.0,0.0,0.0,0.0,0.0,0.0,0.0,0.0,0.0,0.0,0.0,0.0,0.0,0.0,0.0,0.0,0.0,0.149,0.0,0.2679,0.2695,0.284,0.302,0.3086,0.3199,0.3353,0.3591,0.3622,0.3581,0.3581,0.3581,0.3581,0.3581,0.3581,0.3626,0.3622,0.4092,0.4391,0.443,0.4957,0.5308,0.5346,0.5346,0.5653,0.6264,0.6768,0.7211,0.7551,0.8441,0.9094,0.9434,1.0398,1.0813,1.0813,1.0813,1.0813,1.0813,1.0415,0.9673,0.8808,0.883,0.8857,0.891,0.891,0.8857,0.8804,0.8804,0.8804,0.8804,0.8804,0.8804,0.8804,0.8804,0.8804,0.8804,0.8804,0.6848,0.4625,0.4625,0.4625,0.4625,0.4625,0.4625,0.4625,0.4625,0.4625,0.4625,0.4625,0.4625,0.4625,0.4519,0.4519,0.4519,0.4519,0.4519,0.4519,0.4519,0.4519,0.4519,0.4519,0.4519,0.4519,0.4519,0.1898,0.0112,0.0,0.0,0.0,0.0,0.0,0.0,0.0,0.0,0.0,0.0,0.0,0.0,0.0,0.0,0.0,0.0,0.0,0.0,0.0196,0.0,0.0,0.0,0.0,0.0,0.0,0.0,0.2147,0.2493,0.2675,0.2926,0.3368,0.3312,0.3312,0.3799,0.372,0.3581,0.3581,0.3581,0.3581,0.3581,0.3581,0.3751,0.4136,0.4303,0.4565,0.5,0.5216,0.548,0.5916,0.6719,0.7433,0.8013,0.8136,0.8383,0.864,0.9199,0.9642,1.0003,1.1036,1.1266,1.0813,1.1316,1.1416,1.1275,1.0821,1.1065,1.1566,0.9614,0.9984,1.176,1.176,1.0541,0.8804,0.8804,0.8804,0.8804,0.8804,0.8804,0.8804,0.8804,0.8804,0.8804,0.8804,0.8262,0.761,0.761,0.761,0.761,0.761,0.761,0.761,0.761,0.761,0.761,0.761,0.761,0.7009,0.4897,0.4519,0.4519,0.4519,0.4519,0.4519,0.4519,0.4519,0.4519,0.4519,0.4519,0.4519,0.4519,0.3735,0.2399,0.0168,0.0,0.0,0.0,0.0,0.0,0.0,0.0,0.0,0.0,0.0,0.0,0.0,0.0,0.0,0.0,0.0,0.0,0.0907,0.0,0.0,0.0,0.0,0.0,0.0775,0.1355,0.1928,0.236,0.2594,0.2881,0.3438,0.3456,0.3529,0.4013,0.4115,0.4019,0.366,0.3581,0.3667,0.3921,0.3921,0.4136,0.4739,0.5,0.5303,0.5653,0.6118,0.6628,0.7224,0.7855,0.8357,0.8675,0.8716,0.8783,0.8939,0.9553,1.006,1.0446,1.1495,1.1874,1.1692,1.2089,1.2197,1.2058,1.1792,1.2147,1.2783,1.115,1.1451,1.2881,1.2881,1.1909,1.049,1.049,1.049,1.0336,0.9218,0.8804,0.8804,0.8804,0.8804,0.8804,0.8804,0.8804,0.8804,0.8804,0.8804,0.8804,0.8804,0.8804,0.8804,0.8804,0.8804,0.8804,0.8804,0.8804,0.7937,0.5062,0.4519,0.4519,0.4519,0.4519,0.4519,0.4519,0.4519,0.4519,0.4519,0.4519,0.4519,0.4519,0.4519,0.379,0.2009,0.0727,0.0,0.0,0.0,0.0,0.0,0.0,0.0,0.0,0.0,0.0,0.0,0.0,0.0,0.0,0.0,0.0,0.1852,0.1055,0.0,0.0124,0.0048,0.0,0.0835,0.1404,0.1918,0.2305,0.2534,0.2835,0.3419,0.3643,0.3816,0.4127,0.4515,0.4518,0.3742,0.3744,0.3924,0.4347,0.4478,0.4739,0.5351,0.5873,0.6264,0.6392,0.7405,0.8234,0.8756,0.8797,0.8797,0.8878,0.8878,0.8878,0.8878,0.9742,1.0407,1.0818,1.1801,1.2525,1.2948,1.3045,1.3017,1.2881,1.2881,1.2881,1.2881,1.2881,1.2881,1.2881,1.2881,1.2881,1.2881,1.2881,1.2881,1.2569,1.0079,0.9271,0.9271,0.9271,0.9061,0.8804,0.8804,0.8804,0.8804,0.8804,0.8804,0.8804,0.8804,0.8804,0.8804,0.8804,0.8804,0.8804,0.8804,0.8804,0.8043,0.5496,0.4952,0.4897,0.4574,0.4519,0.4519,0.4519,0.4519,0.4519,0.4519,0.4519,0.4519,0.4519,0.4519,0.4519,0.4519,0.2065,0.0504,0.0504,0.0504,0.0336,0.0,0.0,0.0,0.0,0.0,0.0,0.0,0.0,0.0,0.0,0.0,0.0,0.217,0.1862,0.1538,0.0889,0.0364,0.0,0.1366,0.1718,0.1918,0.2305,0.2432,0.2715,0.3504,0.3412,0.3427,0.3948,0.4031,0.3984,0.3947,0.4517,0.4826,0.443,0.4822,0.5351,0.5959,0.6136,0.6562,0.7489,0.8185,0.8756,0.9319,0.9359,0.9558,0.9961,1.0,1.0,1.0,1.0491,1.0781,1.091,1.2294,1.2948,1.3097,1.3982,1.3847,1.2881,1.2881,1.2881,1.2881,1.2881,1.2881,1.2881,1.2881,1.2881,1.2881,1.2881,1.2881,1.2832,1.2264,1.2116,1.2116,1.2116,1.0584,0.8804,0.8804,0.8804,0.8804,0.8804,0.8804,0.8804,0.8804,0.8804,0.8804,0.8804,0.8804,0.8804,0.8804,0.8804,0.8639,0.8043,0.799,0.723,0.4897,0.4519,0.4519,0.4519,0.4519,0.4519,0.4519,0.4519,0.4519,0.4519,0.4519,0.4519,0.4519,0.3959,0.3624,0.3624,0.3624,0.2508,0.0112,0.0,0.0,0.0,0.0,0.0,0.0,0.0,0.0,0.0,0.0,0.0,0.2354,0.2186,0.2163,0.1742,0.1274,0.0,0.0,0.1862,0.1974,0.2623,0.2636,0.285,0.3867,0.3885,0.3881,0.4344,0.4595,0.4666,0.4428,0.4641,0.4853,0.4853,0.5471,0.6044,0.6356,0.6774,0.7405,0.8234,0.8797,0.9319,0.9883,0.9883,1.0,1.0283,1.0283,1.0283,1.0283,1.0715,1.1055,1.1318,1.2573,1.3282,1.3531,1.4111,1.4201,1.3752,1.3152,1.3563,1.4606,1.3382,1.2881,1.2881,1.2881,1.2881,1.2881,1.2881,1.2881,1.2881,1.2881,1.2881,1.2881,1.2881,1.1959,1.0838,1.0838,0.988,0.8804,0.8804,0.8804,0.8804,0.8804,0.8804,0.8804,0.8804,0.8804,0.8804,0.8804,0.8804,0.8804,0.8804,0.8804,0.8315,0.6902,0.5441,0.4519,0.4519,0.4519,0.4519,0.4519,0.4519,0.4519,0.4519,0.4519,0.4519,0.4519,0.4519,0.4519,0.4519,0.4519,0.3846,0.2286,0.2232,0.2232,0.2232,0.2232,0.1507,0.0,0.0,0.0,0.0,0.0,0.0,0.2743,0.2506,0.2513,0.2449,0.2163,0.1933,0.0,0.0,0.0,0.2933,0.2947,0.3126,0.4212,0.4355,0.4395,0.4602,0.5171,0.5376,0.4812,0.4694,0.4879,0.5352,0.6148,0.6705,0.6733,0.7381,0.8071,0.868,0.9142,0.9676,1.0299,1.0312,1.0361,1.0428,1.0428,1.0428,1.0428,1.0905,1.1361,1.1744,1.2858,1.3557,1.3976,1.4384,1.4744,1.4971,1.4025,1.4698,1.6337,1.4387,1.361,1.3573,1.3065,1.2881,1.2881,1.2881,1.2881,1.2881,1.2881,1.2881,1.2881,1.2881,1.2881,1.2881,1.2881,1.1351,0.9472,0.8962,0.8804,0.8804,0.8804,0.8804,0.8804,0.8804,0.8804,0.8804,0.8804,0.8804,0.8804,0.8804,0.8804,0.8804,0.8804,0.6848,0.5117,0.457,0.4519,0.4519,0.4519,0.4519,0.4519,0.4519,0.4519,0.4519,0.4519,0.4519,0.4519,0.4519,0.4519,0.4519,0.4519,0.4519,0.4519,0.4519,0.4519,0.3289,0.0838,0.0838,0.0567,0.0,0.0,0.0,0.3654,0.3252,0.2927,0.2589,0.2395,0.2258,0.1906,0.0,0.2257,0.2969,0.0,0.3472,0.4257,0.0,0.0,0.4086,0.4639,0.4929,0.4512,0.5196,0.5763,0.5834,0.6719,0.73,0.73,0.7439,0.7887,0.8743,0.8964,0.9447,1.0328,1.0333,1.0505,1.0905,1.0905,1.0905,1.0905,1.1431,1.1734,1.179,1.3283,1.4042,1.4137,1.5587,1.625,1.6293,1.6151,1.625,1.6479,1.6194,1.6107,1.5888,1.3752,1.2881,1.2881,1.2881,1.2881,1.2881,1.2881,1.2881,1.2881,1.2881,1.2881,1.2881,1.2881,1.2676,1.1909,0.9472,0.8804,0.8804,0.8804,0.8804,0.8804,0.8804,0.8804,0.8804,0.8804,0.8804,0.8804,0.8804,0.8804,0.8804,0.8804,0.8533,0.7444,0.4897,0.4519,0.4519,0.4519,0.4519,0.4519,0.4519,0.4519,0.4519,0.4519,0.4519,0.4519,0.4519,0.4519,0.4519,0.4519,0.4519,0.4519,0.4519,0.4519,0.4349,0.4015,0.4015,0.2606,0.0,0.0,0.0,0.4286,0.4113,0.3965,0.3261,0.3007,0.2736,0.2061,0.2181,0.2621,0.3216,0.0,0.0,0.0,0.0,0.0,0.0,0.4694,0.4867,0.4859,0.5291,0.5583,0.55,0.6323,0.7118,0.775,0.7741,0.8107,0.9012,0.916,0.9626,1.0634,1.0648,1.0882,1.1457,1.1468,1.1468,1.1468,1.1957,1.221,1.2222,1.3507,1.4148,1.4258,1.5782,1.6522,1.6522,1.6522,1.6522,1.6522,1.6522,1.6522,1.638,1.5389,1.4971,1.4835,1.343,1.2881,1.2881,1.2881,1.2881,1.2881,1.2881,1.2881,1.2881,1.2881,1.2881,1.2323,0.9569,0.8804,0.9166,1.0744,0.9984,0.8804,0.8804,0.8804,0.8804,0.8804,0.8804,0.8804,0.8804,0.8804,0.8804,0.8804,0.8804,0.8374,0.7176,0.555,0.4519,0.4519,0.4519,0.4519,0.4519,0.4519,0.4519,0.4519,0.4519,0.4519,0.4519,0.4519,0.4519,0.4519,0.4519,0.4519,0.4519,0.4519,0.4519,0.4519,0.4872,0.4345,0.3082,0.1008,0.1143,0.5257,0.5242,0.5207,0.4115,0.3789,0.3452,0.2519,0.2676,0.3131,0.3645,0.4048,0.0,0.0,0.0,0.0,0.0,0.0,0.5102,0.5055,0.5316,0.5478,0.5381,0.602,0.6831,0.7751,0.7577,0.7881,0.8951,0.8965,0.9514,1.0855,1.09,1.1247,1.1982,1.1993,1.1993,1.1993,1.2473,1.2756,1.2883,1.3831,1.4356,1.4585,1.5885,1.6522,1.6522,1.6522,1.6522,1.6522,1.6522,1.6522,1.6522,1.6522,1.6522,1.6293,1.4525,1.3884,1.38,1.3104,1.2881,1.2881,1.2881,1.2881,1.2881,1.2881,1.2881,1.2471,1.049,0.9932,1.0387,1.2372,1.1401,0.9725,0.8962,0.8804,0.8804,0.8804,0.8804,0.8804,0.8804,0.8804,0.8804,0.8804,0.8804,0.8804,0.8804,0.7015,0.5386,0.4625,0.4519,0.4519,0.4519,0.4519,0.4519,0.4519,0.4519,0.4519,0.4519,0.4519,0.4519,0.4519,0.4519,0.4519,0.4519,0.4683,0.4766,0.4766,0.5212,0.5428,0.5362,0.2681,0.2882,0.6834,0.672,0.6501,0.5107,0.4745,0.4442,0.3332,0.3429,0.3871,0.4287,0.4724,0.5113,0.5247,0.0,0.0,0.0,0.0,0.0,0.0,0.5329,0.5779,0.5779,0.6149,0.6586,0.709,0.6606,0.6826,0.8227,0.8149,0.8908,1.091,1.0933,1.1387,1.2449,1.2473,1.2473,1.2473,1.2943,1.3425,1.3868,1.4427,1.4867,1.5198,1.6077,1.6522,1.6522,1.6522,1.6522,1.6522,1.6522,1.6522,1.6522,1.6522,1.6522,1.6479,1.6423,1.638,1.6064,1.3705,1.2881,1.2881,1.2881,1.2881,1.2881,1.2881,1.2881,1.2881,1.2774,1.2774,1.2774,1.2881,1.2832,1.2116,0.942,0.8804,0.8804,0.8804,0.8804,0.8804,0.8804,0.8804,0.8804,0.8804,0.8804,0.8804,0.8804,0.8699,0.7664,0.4846,0.4519,0.4519,0.4519,0.4519,0.4519,0.4519,0.4519,0.4519,0.4519,0.4519,0.4519,0.4519,0.4519,0.4519,0.4519,0.5099,0.5401,0.5401,0.5418,0.5428,0.5428,0.5292,0.5292,0.7817,0.7882,0.7841,0.679,0.6101,0.5485,0.4768,0.509,0.5462,0.5239,0.6303,0.7034,0.6238,0.0,0.0,0.0,0.0,0.0,0.0,0.0,0.527,0.5098,0.0,0.0,0.0,0.6468,0.7003,0.8449,0.8335,0.8948,1.071,1.1161,1.1676,1.2423,1.2793,1.2943,1.2943,1.3446,1.3931,1.4504,1.4999,1.5066,1.476,1.5234,1.5831,1.6522,1.6522,1.6522,1.6522,1.6522,1.6522,1.6522,1.6522,1.6522,1.6522,1.6522,1.6522,1.6151,1.3752,1.2881,1.2881,1.2881,1.2881,1.2881,1.2881,1.2881,1.2881,1.2881,1.2881,1.2881,1.2881,1.2881,1.2676,1.171,1.1501,1.099,0.9218,0.8804,0.8804,0.8804,0.8804,0.8804,0.8804,0.8804,0.8804,0.8804,0.8804,0.8427,0.7444,0.7337,0.6632,0.468,0.4519,0.4519,0.4519,0.4519,0.4519,0.4519,0.4519,0.4519,0.4519,0.4519,0.4707,0.5113,0.5322,0.5428,0.5428,0.5428,0.5428,0.5428,0.5428,0.5428,0.9554,0.9639,0.9562,0.8618,0.7945,0.7305,0.6499,0.6728,0.7017,0.6664,0.7474,0.8153,0.7781,0.0,0.0,0.0,0.0,0.0,0.0,0.5283,0.503,0.0,0.0,0.0,0.0,0.6182,0.6881,0.8298,0.8354,0.9014,1.0606,1.1274,1.1839,1.2391,1.3065,1.3459,1.3459,1.4133,1.4748,1.5264,1.5823,1.5924,1.5634,1.5811,1.6548,1.7626,1.7626,1.7626,1.7626,1.7229,1.6837,1.6522,1.6522,1.6522,1.6522,1.6522,1.6522,1.6293,1.4709,1.361,1.2881,1.2881,1.2881,1.2881,1.2881,1.2881,1.2881,1.2881,1.2881,1.2881,1.2881,1.2881,1.2881,1.2881,1.2881,1.2421,1.0643,0.9472,0.8804,0.8804,0.8804,0.8804,0.8804,0.8804,0.8804,0.8804,0.8804,0.8804,0.8804,0.8804,0.7717,0.4791,0.4519,0.4519,0.4519,0.4519,0.4519,0.4519,0.4519,0.4519,0.4519,0.4519,0.4803,0.5415,0.5428,0.5428,0.5428,0.5428,0.5428,0.5428,0.5428,0.5428]}]]